     2              OBSERVATION DATA    GPS                 RINEX VERSION / TYPE
teqc 2000Feb29 Duncan Agnew 20000428 21:01:06UTC            PGM / RUN BY / DATE
                                                            COMMENT
L2: 1 -> 1; 150 -> 5; 250 -> 9                              COMMENT
L2: 1 -> 1; 150 -> 5; 250 -> 9                              COMMENT
L2: 1 -> 1; 150 -> 5; 250 -> 9                              COMMENT
L2: 1 -> 1; 150 -> 5; 250 -> 9                              COMMENT
L2: 1 -> 1; 150 -> 5; 250 -> 9                              COMMENT
Original Marker Name: SCP2                                  COMMENT
Campaign Name: Hector Postseismic                           COMMENT
4-Character Station Name: SCP2                              COMMENT
6-Character Antenna Code: DMRCHT                            COMMENT
Vertical Measurement Point: BCR                             COMMENT
Vertical Offset to Rinex Ref. Point: 0.0348                 COMMENT
Radial Measurement Point: ECF                               COMMENT
Radial Offset to Rinex Ref. Point: 0.1897                   COMMENT
Antenna Height from Field Measurement: 0.8392 m             COMMENT
Additional Antenna Identification Info.:                    COMMENT
Turborogue and Ashtech Choke Ring                           COMMENT
at pickup, off level by 2 bubble units; after               COMMENT
releveling, centered                                        COMMENT
Original XYZ: -2306486.5723 -4735682.7408 3585180.2773      COMMENT
New XYZ position is based on association with SCEC monument COMMENT
E1F2I8R6+0011. Position of that monument is believed to be  COMMENT
valid to within 1 m horizontally; vertical accuracy         COMMENT
should be no worse than 3-times this value.                 COMMENT
                                                            COMMENT
Revised Rinex header created by UCSD GPS archive for        COMMENT
GSAC on 17-Jun-2000 (2000:169) 00:35:11 GMT                 COMMENT
For assistance contact dagnew@ucsd.edu                      COMMENT
or anderson@python.ucsd.edu                                 COMMENT
                                                            COMMENT
SIGN 1935                                                   MARKER NAME
SEO UNIV SOUTHERN CALIFORNIA                                OBSERVER / AGENCY
175 ASHTECH Z-XII3 CD00                                     REC # / TYPE / VERS
381 DORNE-MARGOL. TYPE T                                    ANT # / TYPE
 -2306521.1754 -4735673.1109  3585176.4869                  APPROX POSITION XYZ
        0.7827        0.0000        0.0000                  ANTENNA: DELTA H/E/N
     1     1     0                                          WAVELENGTH FACT L1/2
     7    C1    L1    L2    P1    P2    S1    S2            # / TYPES OF OBSERV
     0                                                      INTERVAL
  2000     2     4     0     0   30.000000                  TIME OF FIRST OBS
  2000     2     4    23    59   30.000000                  TIME OF LAST OBS
                                                            END OF HEADER
 00  2  4  0  0 30.0000000  0  8G16G24G 9G 5G 7G10G30G 4
  24516281.302    -4218754.60549  -2949201.46845  24516280.852    24516294.156
       210.000         138.000
  20201923.118   -24371614.74049 -18400842.60348  20201922.800    20201931.214
       245.000         215.000
  22128389.917   -13826005.21049 -10754210.47547  22128389.854    22128398.923
       236.000         193.000
  20922593.954   -25012352.01449 -19468475.36947  20922593.230    20922601.348
       245.000         211.000
  24012822.768    17708697.32649  13800591.55145  24012821.450    24012833.185
       211.000         151.000
  24210711.619    -5210143.08049  -3779503.63845  24210710.164    24210723.812
       210.000         148.000
  23766672.684    -1951991.61549  -1231714.10445  23766672.295    23766683.478
       217.000         153.000
  21234267.111   -16140505.76349 -12561942.35047  21234267.093    21234275.007
       241.000         203.000
 00  2  4  0  1  0.0000000  0  8G16G24G 9G 5G 7G10G30G 4
  24523784.012    -4179327.38449  -2918478.94745  24523783.638    24523794.834
       211.000         139.000
  20200290.657   -24380193.28949 -18407527.14948  20200290.460    20200298.663
       244.000         215.000
  22141293.538   -13758196.10549 -10701372.24247  22141293.372    22141302.522
       235.000         194.000
  20912025.477   -25067889.57249 -19511751.33047  20912024.647    20912032.966
       244.000         211.000
  24025632.554    17776013.23749  13853045.46845  24025631.252    24025643.351
       211.000         150.000
  24191593.083    -5310610.19949  -3857789.48545  24191591.200    24191604.968
       208.000         148.000
  23747811.781    -2051105.22849  -1308945.29245  23747811.992    23747822.797
       215.000         153.000
  21247496.515   -16070984.89149 -12507770.24847  21247496.394    21247504.927
       241.000         203.000
 00  2  4  0  1 30.0000000  0  8G16G24G 9G 5G 7G10G30G 4
  24531384.919    -4139384.37549  -2887354.46945  24531384.306    24531396.839
       207.000         139.000
  20198754.442   -24388265.76649 -18413817.35248  20198754.114    20198762.316
       244.000         215.000
  22154260.517   -13690054.20149 -10648274.68447  22154260.295    22154269.592
       236.000         193.000
  20901523.430   -25123077.91949 -19554755.18047  20901522.497    20901530.868
       245.000         211.000
  24038446.801    17843352.57349  13905517.62245  24038445.760    24038458.363
       211.000         150.000
  24172470.888    -5411096.67649  -3936090.42845  24172469.238    24172482.720
       209.000         148.000
  23728968.503    -2150126.46849  -1386104.51345  23728968.207    23728978.919
       216.000         153.000
  21260798.006   -16001085.38849 -12453303.11647  21260798.246    21260806.307
       241.000         203.000
 00  2  4  0  2  0.0000000  0  8G16G24G 9G 5G 7G10G30G 4
  24539082.831    -4098931.39849  -2855832.66445  24539082.886    24539093.939
       213.000         139.000
  20197313.845   -24395835.94249 -18419716.15348  20197313.431    20197321.865
       246.000         215.000
  22167290.775   -13621580.05949 -10594918.23847  22167290.714    22167300.094
       237.000         193.000
  20891087.986   -25177916.24549 -19597486.29047  20891087.141    20891095.604
       246.000         211.000
  24051262.128    17910697.28949  13957993.98645  24051261.438    24051272.343
       212.000         149.000
  24153347.164    -5511591.59349  -4014397.97145  24153346.016    24153359.450
       211.000         148.000
  23710141.708    -2249061.39849  -1463196.49145  23710141.391    23710153.183
       218.000         154.000
  21274171.816   -15930805.65449 -12398539.69347  21274172.017    21274179.936
       242.000         202.000
 00  2  4  0  2 30.0000000  0  8G16G24G 9G 5G 7G10G30G 4
  24546876.533    -4057975.17149  -2823918.67745  24546875.452    24546888.804
       211.000         139.000
  20195968.661   -24402904.78349 -18425224.29748  20195968.232    20195976.620
       246.000         215.000
  22180383.049   -13552779.77749 -10541307.65347  22180382.591    22180391.852
       235.000         193.000
  20880721.823   -25232390.60849 -19639933.78847  20880721.008    20880729.181
       246.000         212.000
  24064079.269    17978051.95349  14010478.10745  24064078.465    24064091.082
       210.000         148.000
  24134221.984    -5612094.75149  -4092711.91245  24134220.187    24134233.807
       207.000         147.000
  23691331.104    -2347911.06149  -1540222.02145  23691329.864    23691341.856
       218.000         155.000
  21287616.693   -15860152.27849 -12343485.12147  21287616.690    21287624.656
       242.000         202.000
 00  2  4  0  3  0.0000000  0  8G16G24G 9G 5G 7G10G30G 4
  24554767.874    -4016506.10749  -2791605.09745  24554766.829    24554778.016
       208.000         139.000
  20194721.509   -24409458.47349 -18430331.03448  20194721.215    20194729.468
       244.000         215.000
  22193535.765   -13483661.99449 -10487449.67847  22193535.415    22193544.729
       234.000         193.000
  20870425.436   -25286498.42249 -19682095.68347  20870424.636    20870432.875
       244.000         212.000
  24076901.869    18045435.63849  14062984.83645  24076902.118    24076913.596
       212.000         149.000
  24115094.135    -5712611.01349  -4171036.08745  24115092.049    24115106.203
       206.000         146.000
  23672535.972    -2446679.29949  -1617184.09945  23672535.245    23672547.267
       217.000         155.000
  21301132.692   -15789125.25949 -12288139.40647  21301132.982    21301140.929
       240.000         202.000
 00  2  4  0  3 30.0000000  0  8G16G24G 9G 5G 7G10G30G 4
  24562755.945    -3974528.68049  -2758895.37445  24562754.049    24562766.825
       206.000         138.000
  20193577.156   -24415472.02049 -18435016.87548  20193576.758    20193585.074
       245.000         215.000
  22206752.987   -13414205.09149 -10433327.45047  22206752.845    22206762.036
       234.000         192.000
  20860197.708   -25340245.17449 -19723976.21747  20860196.766    20860204.909
       246.000         212.000
  24089730.187    18112848.47349  14115514.28345  24089729.817    24089741.307
       212.000         149.000
  24095963.244    -5813143.08949  -4249372.61045  24095961.663    24095975.101
       211.000         147.000
  23653754.450    -2545376.21949  -1694090.60245  23653754.087    23653765.561
       218.000         155.000
  21314719.383   -15717726.74149 -12232504.20247  21314719.337    21314727.194
       241.000         202.000
 00  2  4  0  4  0.0000000  0  7G24G 9G 5G 7G10G30G 4
  20192535.455   -24420946.38649 -18439282.57648  20192535.039    20192543.623
       244.000         215.000
  22220041.437   -13344374.06049 -10378913.69447  22220041.176    22220050.449
       234.000         192.000
  20850038.841   -25393630.27749 -19765574.95347  20850038.149    20850046.337
       245.000         212.000
  24102566.882    18180305.39949  14168078.08345  24102566.660    24102577.316
       209.000         148.000
  24076829.475    -5913691.49749  -4327721.85745  24076828.099    24076840.385
       209.000         149.000
  23634987.056    -2643999.18949  -1770939.46945  23634986.479    23634997.762
       216.000         155.000
  21328376.738   -15645957.05249 -12176579.77947  21328376.832    21328384.900
       240.000         202.000
 00  2  4  0  4 30.0000000  0  7G24G 9G 5G 7G10G30G 4
  20191595.842   -24425883.89449 -18443129.94948  20191595.609    20191603.699
       244.000         215.000
  22233403.582   -13274155.54749 -10324198.00147  22233403.285    22233412.626
       234.000         192.000
  20839947.185   -25446662.16049 -19806898.45147  20839946.415    20839954.763
       245.000         212.000
  24115412.658    18247810.25449  14220679.22745  24115413.127    24115423.515
       210.000         148.000
  24057692.009    -6014259.39049  -4406086.29245  24057690.997    24057704.188
       209.000         150.000
  23616232.036    -2742556.35849  -1847737.06745  23616231.643    23616242.838
       215.000         154.000
  21342101.198   -15573834.57649 -12120380.45447  21342101.241    21342109.502
       240.000         202.000
 00  2  4  0  5  0.0000000  0  7G24G 9G 5G 7G10G30G 4
  20190758.213   -24430285.45949 -18446559.69648  20190757.689    20190766.117
       245.000         215.000
  22246840.660   -13203543.24049 -10269175.44447  22246840.193    22246849.834
       234.000         191.000
  20829920.149   -25499354.33849 -19847957.23447  20829919.287    20829927.487
       245.000         212.000
  24128264.781    18315348.34649  14273306.26945  24128264.360    24128275.083
       212.000         148.000
  24038552.488    -6114837.55949  -4484458.74445  24038550.987    24038563.733
       212.000         152.000
  23597488.607    -2841052.93149  -1924487.45745  23597488.109    23597499.030
       215.000         154.000
  21355891.480   -15501366.08549 -12063911.50047  21355891.454    21355899.516
       240.000         202.000
 00  2  4  0  5 30.0000000  0  7G24G 9G 5G 7G10G30G 4
  20190019.732   -24434166.03149 -18449583.48248  20190019.330    20190027.610
       245.000         215.000
  22260355.898   -13132520.34049 -10213832.95547  22260355.586    22260364.632
       234.000         191.000
  20819956.431   -25551713.75849 -19888756.73248  20819955.595    20819963.699
       246.000         213.000
  24141121.831    18382912.68749  14325953.78145  24141122.039    24141132.488
       210.000         148.000
  24019411.867    -6215421.59749  -4562835.77045  24019410.438    24019423.557
       212.000         154.000
  23578759.874    -2939472.42649  -2001177.78245  23578759.265    23578770.979
       215.000         153.000
  21369745.991   -15428559.88749 -12007179.40347  21369746.003    21369753.736
       241.000         201.000
 00  2  4  0  6  0.0000000  0  7G24G 9G 5G 7G10G30G 4
  20189376.283   -24437547.28849 -18452218.19748  20189375.916    20189384.169
       246.000         215.000
  22273944.429   -13061112.09849 -10158190.20447  22273944.399    22273953.353
       235.000         191.000
  20810054.953   -25603746.20349 -19929301.44648  20810054.049    20810062.232
       247.000         213.000
  24153981.663    18450491.40349  14378612.47745  24153980.827    24153993.394
       209.000         147.000
  24000266.794    -6316029.11349  -4641231.09245  24000265.572    24000279.025
       214.000         153.000
  23560045.900    -3037814.19349  -2077807.53545  23560045.920    23560056.782
       218.000         155.000
  21383660.904   -15355436.64349 -11950200.26047  21383660.690    21383668.942
       242.000         201.000
 00  2  4  0  6 30.0000000  0  7G24G 9G 5G 7G10G30G 4
  20188828.789   -24440424.15449 -18454459.87248  20188828.285    20188836.894
       244.000         215.000
  22287600.131   -12989350.93649 -10102272.43947  22287599.946    22287609.249
       233.000         191.000
  20800218.344   -25655437.77349 -19969580.53148  20800217.439    20800225.690
       245.000         213.000
  24166844.037    18518083.92049  14431281.93845  24166843.572    24166855.923
       206.000         146.000
  23981117.891    -6416656.42749  -4719641.82145  23981116.628    23981129.662
       214.000         155.000
  23541347.541    -3136073.98849  -2154373.42745  23541346.875    23541359.006
       217.000         157.000
  21397633.537   -15282009.98849 -11892984.68747  21397633.746    21397641.622
       240.000         201.000
 00  2  4  0  7  0.0000000  0  7G24G 9G 5G 7G10G30G 4
  20188375.384   -24442806.52949 -18456316.23748  20188375.059    20188383.347
       244.000         215.000
  22301317.820   -12917264.14849 -10046100.94747  22301317.699    22301327.307
       233.000         190.000
  20790449.801   -25706771.58649 -20009580.85548  20790448.942    20790457.259
       245.000         213.000
  24179711.018    18585700.35049  14483970.02045  24179710.185    24179722.538
       208.000         146.000
  23961967.179    -6517293.48549  -4798060.17045  23961965.736    23961979.281
       214.000         156.000
  23522669.332    -3234227.73549  -2230856.68445  23522668.575    23522680.072
       218.000         158.000
  21411665.904   -15208269.67549 -11835524.71647  21411666.102    21411674.064
       240.000         201.000
 00  2  4  0  7 30.0000000  0  7G24G 9G 5G 7G10G30G 4
  20188014.863   -24444700.89649 -18457792.33148  20188014.618    20188022.799
       244.000         215.000
  22315094.253   -12844868.86949  -9989689.07347  22315094.182    22315103.263
       233.000         190.000
  20780750.371   -25757741.98149 -20049297.99048  20780749.606    20780757.683
       245.000         213.000
  24192583.553    18653345.90349  14536680.80545  24192582.674    24192594.463
       208.000         146.000
  23942816.180    -6617931.84749  -4876479.53245  23942815.264    23942828.219
       213.000         157.000
  23504011.699    -3332273.76749  -2307256.02045  23504011.172    23504022.034
       220.000         159.000
  21425758.300   -15134213.78049 -11777818.83147  21425758.476    21425766.610
       240.000         201.000
 00  2  4  0  8  0.0000000  0  8G24G 9G 5G 6G 7G10G30G 4
  20187748.818   -24446098.71049 -18458881.50548  20187748.493    20187756.876
       244.000         215.000
  22328923.092   -12772197.82049  -9933062.30247  22328922.978    22328932.228
       233.000         190.000
  20771123.265   -25808332.69849 -20088719.27048  20771122.821    20771130.642
       245.000         213.000
  24870323.897    -4006458.94049  -2493834.53245  24870323.603    24870337.818
       196.000         136.000
  24205462.041    18721022.30149  14589415.61845  24205460.378    24205473.597
       207.000         146.000
  23923667.373    -6718558.87849  -4954890.05345  23923666.770    23923679.883
       215.000         157.000
  23485371.785    -3430226.87149  -2383582.94145  23485371.606    23485383.010
       220.000         161.000
  21439912.714   -15059831.69849 -11719858.77447  21439912.877    21439920.956
       240.000         200.000
 00  2  4  0  8 30.0000000  0  8G24G 9G 5G 6G 7G10G30G 4
  20187578.257   -24446994.91449 -18459579.80848  20187577.731    20187586.044
       246.000         215.000
  22342805.207   -12699246.78949  -9876217.37647  22342804.388    22342813.954
       234.000         189.000
  20761567.435   -25858548.63449 -20127848.51348  20761566.457    20761574.571
       247.000         213.000
  24856772.631    -4077670.69049  -2549323.94445  24856771.665    24856787.166
       198.000         138.000
  24218348.961    18788743.21549  14642185.13045  24218348.246    24218361.459
       208.000         144.000
  23904524.528    -6819155.37349  -5033276.79745  23904523.703    23904535.651
       219.000         157.000
  23466750.848    -3528079.66849  -2459831.69945  23466750.027    23466761.438
       223.000         162.000
  21454134.720   -14985094.58649 -11661622.06947  21454134.642    21454142.404
       241.000         200.000
 00  2  4  0  9  0.0000000  0  8G24G 9G 5G 6G 7G10G30G 4
  20187503.565   -24447387.34749 -18459885.56648  20187503.082    20187511.392
       245.000         215.000
  22356744.450   -12625995.47349  -9819138.45047  22356744.468    22356753.952
       233.000         189.000
  20752078.449   -25908413.43549 -20166704.14848  20752077.576    20752085.587
       247.000         214.000
  24843226.535    -4148855.05949  -2604792.02845  24843225.723    24843240.252
       201.000         140.000
  24231241.016    18856491.58949  14694976.01345  24231240.072    24231251.973
       210.000         144.000
  23885385.548    -6919731.12949  -5111647.38145  23885383.813    23885397.318
       217.000         157.000
  23448149.202    -3625831.44649  -2536001.76146  23448148.565    23448160.311
       223.000         164.000
  21468428.664   -14909979.42949 -11603090.78947  21468428.716    21468436.631
       240.000         200.000
 00  2  4  0  9 30.0000000  0  8G24G 9G 5G 6G 7G10G30G 4
  20187524.838   -24447275.48049 -18459798.36048  20187524.398    20187532.749
       245.000         215.000
  22370745.378   -12552420.15049  -9761807.05547  22370745.375    22370754.418
       233.000         188.000
  20742655.293   -25957932.24849 -20205290.18048  20742654.559    20742662.553
       247.000         214.000
  24829684.607    -4220016.98749  -2660242.65445  24829684.067    24829698.091
       205.000         142.000
  24244136.273    18924256.01349  14747779.43845  24244136.154    24244147.539
       209.000         143.000
  23866248.553    -7020296.03649  -5190009.52645  23866248.030    23866259.823
       217.000         157.000
  23429565.790    -3723487.50749  -2612097.21446  23429565.659    23429576.480
       223.000         165.000
  21482793.422   -14834492.13549 -11544269.52947  21482793.482    21482801.461
       241.000         199.000
 00  2  4  0 10  0.0000000  0  8G24G 9G 5G 6G 7G10G30G 4
  20187644.040   -24446648.83049 -18459310.02948  20187643.535    20187651.777
       245.000         215.000
  22384808.939   -12478515.85449  -9704219.32347  22384808.669    22384817.639
       232.000         188.000
  20733299.500   -26007097.07149 -20243600.38048  20733298.636    20733306.760
       247.000         214.000
  24816144.795    -4291168.94149  -2715685.53345  24816144.031    24816157.943
       206.000         143.000
  24257034.550    18992036.67649  14800595.49345  24257033.525    24257045.438
       207.000         142.000
  23847112.214    -7120857.59549  -5268369.04345  23847111.558    23847123.765
       217.000         158.000
  23411001.601    -3821042.09949  -2688113.58546  23411001.281    23411011.221
       222.000         166.000
  21497227.536   -14758640.59649 -11485164.44947  21497227.469    21497235.358
       239.000         199.000
 00  2  4  0 10 30.0000000  0  8G24G 9G 5G 6G 7G10G30G 4
  20187861.430   -24445506.10149 -18458419.55948  20187861.095    20187869.490
       244.000         215.000
  22398938.311   -12404265.63649  -9646362.04247  22398938.248    22398947.643
       232.000         188.000
  20724012.456   -26055900.61749 -20281629.07048  20724011.665    20724019.692
       246.000         214.000
  24802607.983    -4362305.42149  -2771116.37745  24802607.352    24802620.920
       205.000         143.000
  24269936.077    19059835.25049  14853425.50745  24269935.963    24269947.881
       206.000         142.000
  23827976.361    -7221416.51149  -5346726.49845  23827975.446    23827987.363
       217.000         157.000
  23392458.731    -3918485.01349  -2764042.93646  23392458.068    23392469.661
       222.000         167.000
  21511726.394   -14682448.49349 -11425793.99547  21511726.512    21511734.766
       239.000         199.000
 00  2  4  0 11  0.0000000  0  8G24G 9G 5G 6G 7G10G30G 4
  20188178.321   -24443840.57749 -18457121.70748  20188177.735    20188186.158
       244.000         215.000
  22413131.776   -12329678.62249  -9588242.31846  22413131.772    22413140.799
       232.000         187.000
  20714799.426   -26104315.18249 -20319354.65048  20714798.593    20714806.647
       246.000         214.000
  24789077.126    -4433409.74349  -2826522.19645  24789076.400    24789090.390
       205.000         142.000
  24282841.414    19127653.36149  14906270.75345  24282840.050    24282852.489
       206.000         142.000
  23808842.906    -7321962.73149  -5425074.05945  23808840.862    23808854.504
       217.000         157.000
  23373938.676    -4015807.83949  -2839878.72046  23373938.359    23373948.212
       221.000         167.000
  21526283.319   -14605951.39949 -11366185.87647  21526283.114    21526291.223
       239.000         198.000
 00  2  4  0 11 30.0000000  0  8G24G 9G 5G 6G 7G10G30G 4
  20188594.509   -24441653.27249 -18455417.28148  20188594.297    20188602.429
       244.000         215.000
  22427384.296   -12254781.47749  -9529880.94346  22427384.055    22427393.374
       232.000         187.000
  20705665.564   -26152313.84749 -20356756.15648  20705664.936    20705672.766
       247.000         215.000
  24775553.050    -4504478.13649  -2881900.02145  24775552.552    24775565.883
       206.000         141.000
  24295756.109    19195520.38349  14959154.08745  24295756.158    24295767.759
       208.000         143.000
  23789717.459    -7422466.93749  -5503388.87645  23789716.412    23789728.673
       216.000         156.000
  23355443.226    -4113001.47549  -2915613.83146  23355443.833    23355453.115
       222.000         167.000
  21540893.571   -14529173.91449 -11306359.28247  21540893.800    21540901.925
       238.000         198.000
 00  2  4  0 12  0.0000000  0  8G24G 9G 5G 6G 7G10G30G 4
  20189112.706   -24438929.95849 -18453295.18048  20189112.518    20189120.604
       244.000         215.000
  22441691.770   -12179595.35149  -9471294.38246  22441691.920    22441700.778
       232.000         187.000
  20696611.375   -26199893.56949 -20393831.20948  20696610.695    20696618.433
       248.000         215.000
  24762037.218    -4575503.68949  -2937244.47545  24762036.439    24762051.680
       207.000         141.000
  24308681.522    19263443.42249  15012081.10045  24308681.050    24308693.783
       211.000         143.000
  23770603.507    -7522910.83149  -5581656.68445  23770601.975    23770614.770
       215.000         155.000
  23336973.246    -4210061.10549  -2991244.51746  23336972.360    23336983.060
       221.000         167.000
  21555556.921   -14452117.59549 -11246315.40447  21555557.008    21555565.160
       238.000         198.000
 00  2  4  0 12 30.0000000  0  8G24G 9G 5G 6G 7G10G30G 4
  20189731.937   -24435675.89849 -18450759.51048  20189731.680    20189739.999
       244.000         215.000
  22456053.866   -12104122.31049  -9412484.25946  22456053.508    22456062.929
       231.000         187.000
  20687634.988   -26247064.58849 -20430587.79348  20687634.339    20687642.046
       247.000         215.000
  24748533.236    -4646467.01849  -2992540.45345  24748532.438    24748545.839
       208.000         141.000
  24321619.641    19331432.77249  15065059.78145  24321618.984    24321631.112
       210.000         144.000
  23751504.238    -7623277.57849  -5659864.37545  23751503.246    23751516.064
       216.000         155.000
  23318530.135    -4306979.42349  -3066765.09646  23318529.848    23318539.984
       220.000         166.000
  21570273.934   -14374779.39649 -11186051.88447  21570274.030    21570282.083
       238.000         197.000
 00  2  4  0 13  0.0000000  0  8G24G 9G 5G 6G 7G10G30G 4
  20190449.328   -24431906.00149 -18447821.89248  20190448.903    20190457.257
       244.000         215.000
  22470467.500   -12028378.41549  -9353463.07446  22470467.439    22470476.595
       231.000         186.000
  20678733.208   -26293843.53449 -20467038.86948  20678732.691    20678740.566
       248.000         215.000
  24735040.019    -4717374.03149  -3047792.54145  24735039.019    24735052.667
       209.000         142.000
  24334569.577    19399485.11149  15118087.54145  24334569.058    24334580.119
       212.000         144.000
  23732420.381    -7723563.06549  -5738008.74345  23732419.178    23732431.087
       216.000         155.000
  23300113.809    -4403756.70449  -3142175.76846  23300113.807    23300123.968
       220.000         165.000
  21585048.669   -14297137.72149 -11125551.88547  21585048.912    21585056.628
       238.000         197.000
 00  2  4  0 13 30.0000000  0  8G24G 9G 5G 6G 7G10G30G 4
  20191262.880   -24427630.34749 -18444490.17748  20191262.810    20191271.076
       244.000         215.000
  22484932.332   -11952365.21549  -9294232.05146  22484931.886    22484941.772
       231.000         186.000
  20669902.107   -26340251.11649 -20503200.57148  20669901.405    20669909.422
       248.000         215.000
  24721554.389    -4788241.05149  -3103013.47945  24721553.844    24721567.867
       211.000         142.000
  24347530.350    19467594.23149  15171159.53045  24347529.056    24347540.504
       211.000         144.000
  23713349.811    -7823779.38649  -5816099.20945  23713348.361    23713360.919
       215.000         154.000
  23281720.923    -4500411.04349  -3217490.62646  23281720.610    23281731.132
       219.000         164.000
  21599883.632   -14219179.28949 -11064805.06447  21599883.752    21599892.088
       238.000         197.000
 00  2  4  0 14  0.0000000  0  8G24G 9G 5G 6G 7G10G30G 4
  20192172.406   -24422850.74649 -18440765.77648  20192172.170    20192180.218
       244.000         215.000
  22499450.871   -11876069.97649  -9234781.24746  22499450.744    22499460.447
       231.000         186.000
  20661140.738   -26386292.22549 -20539076.70548  20661140.120    20661147.923
       247.000         215.000
  24708077.593    -4859061.41549  -3158198.05445  24708076.165    24708089.759
       212.000         141.000
  24360496.795    19535733.18549  15224254.77845  24360496.339    24360507.933
       210.000         144.000
  23694289.629    -7923940.49849  -5894146.64445  23694287.796    23694300.958
       215.000         152.000
  23263348.363    -4596958.39149  -3292722.13146  23263348.549    23263358.148
       219.000         164.000
  21614779.581   -14140900.64949 -11003808.73047  21614779.569    21614787.728
       237.000         196.000
 00  2  4  0 14 30.0000000  0  8G24G 9G 5G 6G 7G10G30G 4
  20193175.035   -24417581.86449 -18436660.12248  20193174.886    20193183.069
       244.000         216.000
  22514024.557   -11799484.74249  -9175104.48846  22514024.435    22514033.642
       230.000         186.000
  20652449.910   -26431962.55049 -20574663.92148  20652449.377    20652457.187
       248.000         215.000
  24694607.196    -4929848.40549  -3213356.64145  24694606.640    24694619.283
       209.000         140.000
  24373469.072    19603902.61249  15277373.78945  24373468.659    24373481.020
       210.000         144.000
  23675239.873    -8024047.02949  -5972151.56145  23675238.294    23675250.744
       214.000         152.000
  23244994.162    -4693409.57449  -3367878.69346  23244993.516    23245004.101
       219.000         164.000
  21629735.377   -14062307.12449 -10942567.03247  21629735.376    21629743.717
       237.000         196.000
 00  2  4  0 15  0.0000000  0  8G24G 9G 5G 6G 7G10G30G 4
  20194269.729   -24411829.14549 -18432177.45148  20194269.368    20194277.602
       244.000         216.000
  22528654.824   -11722602.12149  -9115195.98846  22528654.757    22528664.393
       230.000         186.000
  20643833.181   -26477243.53849 -20609947.75248  20643832.592    20643840.460
       248.000         216.000
  24681140.143    -5000617.70649  -3268501.46445  24681139.333    24681153.379
       208.000         139.000
  24386445.206    19672092.47649  15330508.70545  24386444.935    24386456.197
       208.000         143.000
  23656198.014    -8124111.63549  -6050123.79745  23656196.106    23656207.731
       213.000         151.000
  23226658.030    -4789765.89649  -3442961.34246  23226657.340    23226667.945
       219.000         164.000
  21644749.046   -13983409.81149 -10881088.61247  21644749.162    21644757.340
       237.000         196.000
 00  2  4  0 15 30.0000000  0  8G24G 9G 5G 6G 7G10G30G 4
  20195458.833   -24405580.11949 -18427308.05048  20195458.375    20195466.499
       246.000         216.000
  22543343.964   -11645410.56249  -9055046.76246  22543343.598    22543352.944
       232.000         185.000
  20635294.265   -26522115.94149 -20644913.21248  20635293.633    20635301.452
       250.000         216.000
  24667678.407    -5071358.79649  -3323624.24945  24667678.082    24667691.733
       208.000         140.000
  24399423.595    19740294.80349  15383653.35245  24399423.221    24399435.524
       212.000         143.000
  23637163.347    -8224138.29749  -6128066.45345  23637161.953    23637174.333
       215.000         152.000
  23208341.608    -4886018.59049  -3517963.25546  23208341.460    23208351.553
       222.000         164.000
  21659814.622   -13904239.57749 -10819397.53247  21659814.902    21659822.595
       238.000         195.000
 00  2  4  0 16  0.0000000  0  8G24G 9G 5G 6G 7G10G30G 4
  20196742.584   -24398833.83549 -18422051.17648  20196742.416    20196750.406
       245.000         216.000
  22558092.882   -11567904.58349  -8994652.53046  22558092.458    22558101.986
       230.000         185.000
  20626834.234   -26566573.43849 -20679555.36448  20626833.400    20626841.432
       248.000         216.000
  24654224.097    -5142060.83449  -3378716.63645  24654223.426    24654236.949
       213.000         140.000
  24412404.755    19808511.04649  15436808.83045  24412404.564    24412416.233
       210.000         142.000
  23618138.376    -8324114.77249  -6205970.02145  23618135.715    23618149.852
       214.000         153.000
  23190050.062    -4982140.51449  -3592863.27146  23190049.982    23190059.683
       222.000         165.000
  21674932.411   -13824795.09449 -10757492.75147  21674932.327    21674940.391
       236.000         195.000
 00  2  4  0 16 30.0000000  0  8G24G 9G 5G 6G 7G10G30G 4
  20198119.811   -24391596.37649 -18416411.56748  20198119.333    20198127.667
       245.000         216.000
  22572900.249   -11490091.39149  -8934018.91346  22572900.076    22572909.510
       231.000         185.000
  20618452.155   -26610621.30049 -20713878.32248  20618451.143    20618459.275
       249.000         216.000
  24640776.200    -5212729.84449  -3433783.29345  24640775.486    24640788.866
       214.000         142.000
  24425392.220    19876760.99149  15489990.56945  24425391.244    24425402.704
       210.000         141.000
  23599122.003    -8424045.66649  -6283838.08145  23599120.839    23599133.210
       215.000         154.000
  23171787.024    -5078112.93249  -3667646.80746  23171786.536    23171796.590
       221.000         165.000
  21690103.132   -13745072.49649 -10695371.26247  21690103.024    21690111.350
       237.000         195.000
 00  2  4  0 17  0.0000000  0  8G24G 9G 5G 6G 7G10G30G 4
  20199590.429   -24383867.98449 -18410389.42248  20199590.055    20199598.158
       244.000         216.000
  22587763.028   -11411987.03949  -8873158.43046  22587762.407    22587772.665
       230.000         185.000
  20610148.429   -26654257.55249 -20747880.54948  20610147.552    20610155.475
       248.000         216.000
  24627337.426    -5283350.93849  -3488812.61945  24627336.570    24627350.281
       213.000         143.000
  24438384.329    19945034.99049  15543191.08345  24438383.169    24438394.618
       209.000         140.000
  23580113.019    -8523937.98749  -6361676.08145  23580111.029    23580123.995
       215.000         155.000
  23153554.040    -5173927.18649  -3742307.07946  23153553.938    23153563.847
       220.000         165.000
  21705326.888   -13665071.12049 -10633032.55247  21705327.175    21705335.061
       236.000         194.000
 00  2  4  0 17 30.0000000  0  8G24G 9G 5G 6G 7G10G30G 4
  20201154.604   -24375647.97949 -18403984.19648  20201154.252    20201162.431
       244.000         216.000
  22602678.105   -11333607.87749  -8812083.79746  22602678.371    22602687.597
       229.000         184.000
  20601922.265   -26697486.12349 -20781565.10148  20601921.576    20601929.308
       248.000         216.000
  24613908.841    -5353918.24749  -3543800.01745  24613908.416    24613921.352
       212.000         143.000
  24451382.379    20013339.53649  15596415.37545  24451381.541    24451393.737
       213.000         139.000
  23561113.507    -8623780.22549  -6439475.08245  23561111.712    23561123.861
       216.000         157.000
  23135351.162    -5269583.07349  -3816843.94746  23135350.840    23135360.880
       220.000         164.000
  21720605.502   -13584781.70249 -10570469.38747  21720605.558    21720613.821
       236.000         194.000
 00  2  4  0 18  0.0000000  0  8G24G 9G 5G 6G 7G10G30G 4
  20202809.792   -24366949.66949 -18397206.26548  20202809.646    20202817.870
       244.000         216.000
  22617643.582   -11254963.98149  -8750802.88146  22617643.411    22617653.589
       229.000         184.000
  20593771.547   -26740317.98049 -20814940.52548  20593770.969    20593778.718
       248.000         216.000
  24600487.773    -5424446.05549  -3598756.62245  24600487.397    24600500.625
       212.000         144.000
  24464390.845    20081698.44549  15649682.05945  24464390.615    24464402.711
       212.000         139.000
  23542125.452    -8723562.29449  -6517227.19745  23542123.817    23542136.834
       217.000         158.000
  23117174.206    -5365102.76349  -3891274.71446  23117173.764    23117183.432
       220.000         164.000
  21735941.957   -13504188.08349 -10507669.18247  21735942.070    21735950.322
       236.000         194.000
 00  2  4  0 18 30.0000000  0  8G24G 9G 5G 6G 7G10G30G 4
  20204555.309   -24357777.10549 -18390058.78248  20204554.918    20204563.035
       246.000         216.000
  22632659.266   -11176055.86949  -8689316.08446  22632659.266    22632668.938
       230.000         184.000
  20585698.831   -26782740.18149 -20847996.73448  20585698.098    20585705.990
       250.000         216.000
  24587072.320    -5494943.79249  -3653689.79345  24587072.404    24587084.887
       215.000         143.000
  24477409.798    20150113.47749  15702992.45245  24477410.242    24477419.937
       211.000         138.000
  23523149.690    -8823280.30949  -6594929.41345  23523149.233    23523160.632
       218.000         159.000
  23099019.904    -5460503.59549  -3965612.84246  23099019.502    23099030.111
       222.000         165.000
  21751331.824   -13423313.86749 -10444650.33647  21751331.856    21751339.869
       237.000         194.000
 00  2  4  0 19  0.0000000  0  8G24G 9G 5G 6G 7G10G30G 4
  20206392.770   -24348121.02749 -18382534.53748  20206392.436    20206400.456
       244.000         216.000
  22647724.318   -11096888.73349  -8627627.45846  22647723.657    22647733.960
       229.000         183.000
  20577705.208   -26824746.85149 -20880729.15548  20577704.671    20577712.322
       248.000         216.000
  24573662.977    -5565410.32349  -3708598.62645  24573662.777    24573674.925
       214.000         145.000
  24490437.176    20218572.82649  15756337.39445  24490435.774    24490448.946
       208.000         138.000
  23504189.857    -8922914.38249  -6672566.21645  23504188.739    23504200.187
       218.000         161.000
  23080886.248    -5555795.87649  -4039866.41446  23080886.435    23080895.773
       222.000         165.000
  21766772.513   -13342172.64649 -10381423.43547  21766772.607    21766781.085
       235.000         193.000
 00  2  4  0 19 30.0000000  0  8G24G 9G 5G 6G 7G10G30G 4
  20208322.934   -24337977.95049 -18374630.80548  20208322.499    20208330.780
       245.000         216.000
  22662841.024   -11017450.30749  -8565727.42346  22662840.782    22662850.384
       230.000         183.000
  20569787.916   -26866352.17649 -20913148.83648  20569787.183    20569794.945
       249.000         216.000
  24560258.447    -5635851.06349  -3763487.32845  24560258.037    24560271.520
       215.000         146.000
  24503475.711    20287090.60349  15809727.83345  24503474.677    24503486.270
       211.000         138.000
  23485249.353    -9022446.79549  -6750123.79445  23485248.661    23485260.407
       216.000         162.000
  23062774.661    -5650972.37749  -4114029.76846  23062774.084    23062784.441
       222.000         167.000
  21782263.807   -13260765.55549 -10317989.35947  21782263.932    21782272.439
       236.000         193.000
 00  2  4  0 20  0.0000000  0  8G24G 9G 5G 6G 7G10G30G 4
  20210346.593   -24327343.48949 -18366344.18348  20210346.188    20210354.303
       246.000         216.000
  22678008.325   -10937745.72649  -8503620.01146  22678008.272    22678018.024
       230.000         183.000
  20561944.551   -26907569.25149 -20945265.99548  20561943.832    20561951.609
       250.000         217.000
  24546856.917    -5706275.87449  -3818363.57945  24546855.905    24546869.130
       214.000         147.000
  24516521.121    20355644.77149  15863146.68745  24516519.457    24516532.459
       209.000         137.000
  23466329.362    -9121871.45349  -6827597.42046  23466328.489    23466339.612
       221.000         164.000
  23044686.534    -5746025.25049  -4188096.79446  23044686.226    23044696.047
       223.000         168.000
  21797805.237   -13179094.79749 -10254349.83247  21797805.473    21797813.552
       236.000         192.000
 00  2  4  0 20 30.0000000  0  8G24G 9G 5G 6G 7G10G30G 4
  20212466.435   -24316203.45549 -18357663.60248  20212466.111    20212474.070
       244.000         216.000
  22693224.430   -10857784.55849  -8441312.64946  22693224.328    22693233.957
       229.000         183.000
  20554175.130   -26948397.60149 -20977080.24848  20554174.561    20554182.125
       248.000         217.000
  24533459.152    -5776680.48049  -3873224.07245  24533457.851    24533471.141
       212.000         147.000
  24529567.154    20424202.62349  15916568.36345  24529567.234    24529577.976
       211.000         138.000
  23447429.139    -9221192.33849  -6904990.17946  23447427.983    23447439.414
       220.000         164.000
  23026627.361    -5840926.14049  -4262045.39346  23026626.878    23026636.377
       223.000         168.000
  21813396.790   -13097160.51549 -10190504.95847  21813396.750    21813404.835
       235.000         192.000
 00  2  4  0 21  0.0000000  0  8G24G 9G 5G 6G 7G10G30G 4
  20214683.756   -24304551.27549 -18348583.94948  20214683.466    20214691.507
       244.000         216.000
  22708487.250   -10777578.07249  -8378814.14246  22708487.721    22708497.162
       229.000         183.000
  20546478.854   -26988841.65649 -21008595.04848  20546478.259    20546485.984
       248.000         217.000
  24520067.032    -5847055.42949  -3928061.44445  24520066.901    24520080.703
       212.000         145.000
  24542613.589    20492762.25849  15969991.47745  24542612.973    24542625.195
       210.000         138.000
  23428548.519    -9320410.39449  -6982302.79946  23428547.264    23428558.828
       219.000         166.000
  23008600.530    -5935657.32849  -4335861.74346  23008600.028    23008609.483
       223.000         169.000
  21829043.692   -13014935.47849 -10126433.52347  21829043.937    21829051.976
       234.000         192.000
 00  2  4  0 21 30.0000000  0  8G24G 9G 5G 6G 7G10G30G 4
  20216998.626   -24292386.52949 -18339104.88948  20216998.343    20217006.409
       244.000         216.000
  22723798.908   -10697115.39949  -8316116.00446  22723799.621    22723808.997
       229.000         183.000
  20538857.900   -27028889.84749 -21039801.38248  20538857.295    20538865.049
       248.000         217.000
  24506681.925    -5917394.37149  -3982870.75545  24506681.677    24506694.969
       210.000         145.000
  24555662.401    20561333.88649  16023423.90545  24555661.439    24555673.931
       208.000         139.000
  23409688.296    -9419520.98549  -7059531.68546  23409687.531    23409699.145
       218.000         166.000
  22990612.405    -6030185.09449  -4409519.59146  22990612.540    22990621.931
       223.000         170.000
  21844749.222   -12932402.15349 -10062121.85347  21844749.255    21844757.458
       234.000         192.000
 00  2  4  0 22  0.0000000  0  8G24G 9G 5G 6G 7G10G30G 4
  20219408.332   -24279723.26749 -18329237.37948  20219407.985    20219416.188
       244.000         216.000
  22739153.785   -10616425.36449  -8253240.69846  22739153.671    22739163.378
       228.000         183.000
  20531314.516   -27068530.32849 -21070690.02348  20531313.827    20531321.628
       248.000         217.000
  24493300.102    -5987715.04849  -4037665.82745  24493299.781    24493311.525
       207.000         143.000
  24568709.949    20629899.20249  16076851.41245  24568709.816    24568720.904
       206.000         139.000
  23390842.885    -9518553.47449  -7136699.69946  23390841.677    23390853.069
       221.000         166.000
  22972659.236    -6124528.82749  -4483034.04146  22972658.869    22972668.391
       223.000         171.000
  21860508.189   -12849588.41449  -9997591.68247  21860508.415    21860516.569
       234.000         191.000
 00  2  4  0 22 30.0000000  0  7G24G 9G 5G 6G10G30G 4
  20221910.415   -24266574.55349 -18318991.59648  20221910.083    20221918.125
       244.000         216.000
  22754553.249   -10535500.60949  -8190182.49846  22754553.231    22754562.845
       228.000         182.000
  20523854.513   -27107732.70149 -21101237.27848  20523853.702    20523861.445
       249.000         217.000
  24479923.288    -6058009.48649  -4092440.45945  24479922.292    24479935.234
       208.000         143.000
  23372012.289    -9617508.49149  -7213807.34046  23372011.083    23372023.174
       218.000         166.000
  22954743.069    -6218678.17049  -4556397.03246  22954743.152    22954752.505
       224.000         170.000
  21876317.947   -12766507.79249  -9932853.55447  21876318.030    21876326.623
       234.000         191.000
 00  2  4  0 23  0.0000000  0  7G24G 9G 5G 6G10G30G 4
  20224501.604   -24252957.57349 -18308380.92848  20224501.339    20224509.317
       244.000         216.000
  22769997.092   -10454342.75149  -8126942.65946  22769996.949    22770006.532
       227.000         182.000
  20516479.132   -27146490.30049 -21131437.95548  20516478.298    20516486.295
       248.000         217.000
  24466550.229    -6128284.30249  -4147199.80545  24466549.330    24466561.642
       208.000         143.000
  23353198.849    -9716373.25449  -7290844.65346  23353197.638    23353209.336
       220.000         166.000
  22936864.173    -6312631.62449  -4629607.37346  22936863.170    22936874.175
       224.000         171.000
  21892175.917   -12683173.93049  -9867918.09447  21892175.972    21892184.299
       234.000         191.000
 00  2  4  0 23 30.0000000  0  7G24G 9G 5G 6G10G30G 4
  20227179.122   -24238887.02549 -18297416.83648  20227178.875    20227187.019
       244.000         216.000
  22785486.268   -10372946.97949  -8063517.43646  22785485.457    22785495.612
       228.000         182.000
  20509190.331   -27184793.12649 -21161284.26748  20509189.653    20509197.412
       249.000         217.000
  24453179.904    -6198545.47949  -4201948.55445  24453177.717    24453192.542
       207.000         143.000
  23334404.247    -9815139.13649  -7367804.90846  23334402.929    23334415.243
       221.000         167.000
  22919021.931    -6406392.83849  -4702667.92646  22919021.711    22919031.242
       225.000         171.000
  21908077.562   -12599610.10749  -9802803.44747  21908077.474    21908085.732
       234.000         190.000
 00  2  4  0 24  0.0000000  0  7G24G 9G 5G 6G10G30G 4
  20229942.054   -24224367.69149 -18286103.04048  20229941.553    20229949.875
       246.000         216.000
  22801019.656   -10291318.38649  -7999910.79846  22801019.593    22801029.682
       228.000         181.000
  20501988.564   -27222638.48449 -21190774.10748  20501987.739    20501995.436
       250.000         217.000
  24439812.075    -6268792.31849  -4256686.14545  24439810.961    24439823.375
       207.000         145.000
  23315632.567    -9913784.25549  -7444671.05546  23315631.874    23315642.597
       223.000         167.000
  22901213.558    -6499975.94649  -4775589.68546  22901213.020    22901222.536
       226.000         171.000
  21924022.320   -12515819.74349  -9737512.26947  21924022.355    21924030.364
       236.000         190.000
 00  2  4  0 24 30.0000000  0  7G24G 9G 5G 6G10G30G 4
  20232788.683   -24209408.56649 -18274446.55448  20232788.232    20232796.297
       244.000         216.000
  22816596.675   -10209460.61349  -7936125.57546  22816596.299    22816606.453
       228.000         181.000
  20494868.281   -27260055.46049 -21219930.14548  20494867.728    20494875.327
       249.000         217.000
  24426447.827    -6339020.78649  -4311409.42445  24426446.423    24426461.132
       204.000         145.000
  23296887.751   -10012288.12549  -7521427.15446  23296886.061    23296897.892
       219.000         166.000
  22883436.871    -6593392.49949  -4848381.65146  22883436.527    22883446.228
       223.000         171.000
  21940011.484   -12431795.95149  -9672039.20247  21940011.756    21940020.092
       234.000         190.000
 00  2  4  0 25  0.0000000  0  7G24G 9G 5G 6G10G30G 4
  20235720.786   -24193999.85049 -18262439.73648  20235720.412    20235728.522
       244.000         216.000
  22832215.821   -10127381.74749  -7872168.07146  22832215.786    22832225.351
       227.000         181.000
  20487825.528   -27297065.39649 -21248769.01448  20487824.824    20487832.608
       248.000         217.000
  24413088.583    -6409223.01049  -4366112.26345  24413087.791    24413100.857
       206.000         145.000
  23278168.307   -10110658.50149  -7598079.20146  23278166.691    23278178.175
       218.000         165.000
  22865685.723    -6686674.93049  -4921069.11346  22865685.995    22865695.141
       225.000         172.000
  21956046.762   -12347530.13749  -9606377.55047  21956047.025    21956054.930
       234.000         190.000
 00  2  4  0 25 30.0000000  0  7G24G 9G 5G 6G10G30G 4
  20238741.860   -24178123.92349 -18250068.86048  20238741.511    20238749.462
       244.000         216.000
  22847876.312   -10045085.60549  -7808041.25846  22847876.794    22847885.968
       227.000         181.000
  20480859.622   -27333671.23849 -21277293.00648  20480858.966    20480866.623
       248.000         217.000
  24399736.850    -6479386.27149  -4420784.76945  24399736.204    24399749.420
       206.000         146.000
  23259474.136   -10208896.51849  -7674628.13846  23259472.532    23259484.297
       219.000         165.000
  22847957.756    -6779835.60049  -4993661.69046  22847958.158    22847967.099
       224.000         173.000
  21972129.633   -12263014.34249  -9540521.10847  21972129.631    21972137.988
       235.000         190.000
 00  2  4  0 26  0.0000000  0  7G24G 9G 5G 6G10G30G 4
  20241855.414   -24161762.12049 -18237319.37848  20241855.335    20241863.244
       244.000         216.000
  22863577.399    -9962575.88549  -7743748.02746  22863577.884    22863587.009
       227.000         181.000
  20473969.532   -27369878.68749 -21305506.55948  20473968.926    20473976.452
       248.000         217.000
  24386393.177    -6549506.90749  -4475424.05745  24386392.442    24386405.597
       205.000         147.000
  23240805.724   -10306998.80049  -7751071.29146  23240804.036    23240815.753
       219.000         165.000
  22830253.119    -6872873.51149  -5066158.62146  22830253.195    22830262.478
       225.000         173.000
  21988262.434   -12178236.09649  -9474460.15947  21988262.513    21988270.453
       235.000         189.000
 00  2  4  0 26 30.0000000  0  7G24G 9G 5G 6G10G30G 4
  20245062.602   -24144908.18449 -18224186.41848  20245062.515    20245070.267
       244.000         216.000
  22879319.057    -9879852.93049  -7679288.64346  22879319.537    22879328.569
       227.000         181.000
  20467158.604   -27405670.28349 -21333396.07348  20467158.061    20467165.453
       248.000         218.000
  24373059.052    -6619577.18149  -4530024.09745  24373058.273    24373071.624
       206.000         148.000
  23222158.656   -10404988.92549  -7827427.05946  23222157.725    23222168.906
       218.000         165.000
  22812574.291    -6965775.89249  -5138549.93246  22812574.014    22812583.258
       226.000         174.000
  22004444.369   -12093199.61049  -9408197.98747  22004445.040    22004452.630
       234.000         189.000
 00  2  4  0 27  0.0000000  0  7G24G 9G 5G 6G10G30G 4
  20248363.199   -24127563.29649 -18210670.89448  20248362.840    20248370.806
       245.000         216.000
  22895101.456    -9796916.05149  -7614662.55446  22895101.301    22895111.163
       228.000         180.000
  20460433.093   -27441012.83549 -21360935.68048  20460432.307    20460439.939
       248.000         218.000
  24359732.711    -6689607.04049  -4584592.61445  24359732.378    24359744.558
       206.000         149.000
  23203533.017   -10502866.67149  -7903695.25946  23203531.469    23203542.885
       218.000         165.000
  22794927.358    -7058510.37549  -5210810.42646  22794927.090    22794936.455
       227.000         174.000
  22020673.792   -12007913.64749  -9341741.41347  22020673.825    22020682.021
       235.000         189.000
 00  2  4  0 27 30.0000000  0  7G24G 9G 5G 6G10G30G 4
  20251756.764   -24109729.86449 -18196774.69248  20251756.371    20251764.346
       245.000         216.000
  22910924.513    -9713765.43949  -7549869.92546  22910924.497    22910934.935
       227.000         180.000
  20453796.275   -27475889.40849 -21388112.19448  20453795.562    20453803.083
       247.000         218.000
  24346414.612    -6759593.18149  -4639127.05345  24346413.589    24346427.034
       207.000         150.000
  23184933.114   -10600609.12449  -7979858.03346  23184931.446    23184943.921
       218.000         165.000
  22777319.153    -7151041.47449  -5282912.44546  22777318.630    22777328.333
       226.000         174.000
  22036948.364   -11922390.23149  -9275099.82247  22036948.298    22036956.501
       234.000         188.000
 00  2  4  0 28  0.0000000  0  7G24G 9G 5G 6G10G30G 4
  20255239.182   -24091429.60349 -18182514.72848  20255238.940    20255246.850
       245.000         216.000
  22926789.903    -9630392.77649  -7484904.28046  22926790.054    22926799.459
       227.000         180.000
  20447249.738   -27510291.38949 -21414918.89248  20447249.024    20447256.691
       248.000         218.000
  24333103.614    -6829542.00649  -4693632.41345  24333102.534    24333116.073
       208.000         152.000
  23166358.323   -10698219.44849  -8055917.85746  23166356.725    23166367.506
       219.000         164.000
  22759750.792    -7243363.37549  -5354851.45546  22759750.373    22759759.581
       226.000         174.000
  22053264.025   -11836651.23149  -9208290.24147  22053264.623    22053272.668
       235.000         188.000
 00  2  4  0 28 30.0000000  0  7G24G 9G 5G 6G10G30G 4
  20258809.965   -24072664.94549 -18167892.89348  20258809.438    20258817.524
       246.000         216.000
  22942698.291    -9546793.66949  -7419762.17146  22942697.671    22942707.587
       228.000         180.000
  20440794.235   -27544215.09549 -21441352.90848  20440793.623    20440801.216
       248.000         218.000
  24319799.636    -6899454.32949  -4748109.31745  24319798.884    24319811.413
       209.000         153.000
  23147809.649   -10795692.84349  -8131870.98646  23147808.476    23147819.352
       220.000         165.000
  22742223.824    -7335467.80349  -5426620.99346  22742223.726    22742232.272
       227.000         175.000
  22069619.188   -11750704.40349  -9141318.71347  22069619.290    22069627.616
       235.000         188.000
 00  2  4  0 29  0.0000000  0  7G24G 9G 5G 6G10G30G 4
  20262470.314   -24053429.41249 -18152904.13948  20262469.964    20262478.041
       245.000         216.000
  22958651.123    -9462961.18649  -7354438.20546  22958651.127    22958660.663
       226.000         179.000
  20434426.782   -27577676.12749 -21467426.40448  20434426.151    20434433.836
       247.000         218.000
  24306502.264    -6969332.25449  -4802559.40945  24306502.039    24306514.149
       211.000         155.000
  23129290.138   -10893012.71549  -8207704.47846  23129288.527    23129299.570
       219.000         165.000
  22724735.843    -7427367.24449  -5498230.81246  22724736.053    22724744.900
       227.000         175.000
  22086012.997   -11664554.52149  -9074188.96346  22086013.351    22086021.331
       234.000         187.000
 00  2  4  0 29 30.0000000  0  7G24G 9G 5G 6G10G30G 4
  20266221.114   -24033718.63949 -18137545.06648  20266220.787    20266228.816
       246.000         216.000
  22974649.237    -9378890.67249  -7288928.76546  22974648.922    22974658.762
       228.000         178.000
  20428143.975   -27610692.30949 -21493153.25948  20428143.281    20428150.771
       249.000         218.000
  24293214.059    -7039161.82249  -4856971.80645  24293213.168    24293226.132
       212.000         155.000
  23110798.089   -10990188.87549  -8283425.99646  23110797.088    23110808.209
       223.000         166.000
  22707283.456    -7519079.73949  -5569694.95346  22707283.545    22707292.225
       229.000         176.000
  22102445.898   -11578199.09649  -9006899.04146  22102446.145    22102454.468
       235.000         187.000
 00  2  4  0 30  0.0000000  0  7G24G 9G 5G 6G10G30G 4
  20270061.707   -24013536.06949 -18121818.36448  20270061.458    20270069.403
       247.000         216.000
  22990692.467    -9294583.32649  -7223234.79646  22990692.555    22990702.156
       228.000         178.000
  20421944.660   -27643269.70249 -21518538.20448  20421943.872    20421951.506
       249.000         218.000
  24279931.912    -7108959.06049  -4911359.01545  24279931.313    24279943.595
       214.000         156.000
  23092332.379   -11087226.27049  -8359039.37946  23092330.802    23092342.035
       222.000         167.000
  22689865.118    -7610613.11649  -5641019.52746  22689864.464    22689874.141
       228.000         176.000
  22118919.781   -11491628.08549  -8939441.13746  22118919.950    22118928.517
       235.000         187.000
 00  2  4  0 30 30.0000000  0  7G24G 9G 5G 6G10G30G 4
  20273992.478   -23992879.79749 -18105722.54648  20273992.067    20274000.174
       244.000         216.000
  23006778.217    -9210052.42349  -7157366.61546  23006778.039    23006788.573
       226.000         178.000
  20415829.201   -27675406.60749 -21543579.91548  20415828.616    20415836.176
       247.000         218.000
  24266655.845    -7178724.24149  -4965721.23245  24266654.675    24266667.319
       212.000         156.000
  23073893.251   -11184123.79549  -8434543.76746  23073892.577    23073901.846
       220.000         167.000
  22672481.919    -7701961.65949  -5712200.07746  22672481.837    22672491.707
       227.000         176.000
  22135437.269   -11404828.19049  -8871804.88246  22135437.765    22135445.301
       233.000         186.000
 00  2  4  0 31  0.0000000  0  7G24G 9G 5G 6G10G30G 4
  20278011.723   -23971758.39549 -18089264.28648  20278011.445    20278019.538
       246.000         216.000
  23022902.882    -9125316.92449  -7091339.00346  23022902.646    23022912.739
       226.000         177.000
  20409799.516   -27707092.65949 -21568270.30648  20409798.830    20409806.470
       248.000         218.000
  24253386.607    -7248453.67049  -5020055.59445  24253385.261    24253398.223
       213.000         157.000
  23055480.813   -11280880.91749  -8509938.75146  23055479.833    23055490.821
       221.000         168.000
  22655135.121    -7793119.09849  -5783231.71046  22655134.797    22655143.938
       227.000         177.000
  22151997.762   -11317802.45949  -8803992.64146  22151997.731    22152005.635
       234.000         186.000
 00  2  4  0 31 30.0000000  0  7G24G 9G 5G 6G10G30G 4
  20282117.237   -23950183.66649 -18072452.78248  20282116.833    20282124.907
       247.000         216.000
  23039062.262    -9040398.87449  -7025169.15746  23039062.389    23039072.094
       227.000         177.000
  20403856.597   -27738322.64349 -21592605.32148  20403855.745    20403863.322
       249.000         218.000
  24240122.711    -7318154.74449  -5074367.84745  24240122.352    24240134.254
       216.000         157.000
  23037096.254   -11377491.43549  -8585219.49246  23037094.761    23037106.294
       223.000         168.000
  22637829.134    -7884062.19749  -5854096.33446  22637828.947    22637837.582
       229.000         177.000
  22168602.115   -11230546.33449  -8736000.87846  22168602.336    22168611.177
       235.000         186.000
 00  2  4  0 32  0.0000000  0  7G24G 9G 5G 6G10G30G 4
  20286307.614   -23928162.92249 -18055293.73948  20286307.272    20286315.351
       245.000         217.000
  23055252.875    -8955316.60249  -6958871.33546  23055252.921    23055263.865
       226.000         177.000
  20398002.548   -27769085.77849 -21616576.55848  20398001.937    20398009.378
       247.000         218.000
  24226861.243    -7387843.49549  -5128670.49945  24226860.613    24226872.667
       216.000         158.000
  23018743.043   -11473937.43749  -8660372.04246  23018742.306    23018753.190
       221.000         169.000
  22620566.713    -7974776.44749  -5924782.61546  22620566.538    22620575.537
       227.000         178.000
  22185249.332   -11143064.71049  -8667833.40446  22185248.732    22185257.272
       233.000         185.000
 00  2  4  0 32 30.0000000  0  7G24G 9G 5G 6G10G30G 4
  20290582.826   -23905696.42849 -18037787.35648  20290582.552    20290590.550
       245.000         217.000
  23071473.193    -8870078.65149  -6892452.21146  23071473.671    23071482.502
       226.000         176.000
  20392237.907   -27799379.09949 -21640181.70948  20392237.318    20392244.854
       248.000         218.000
  24213603.219    -7457514.22949  -5182959.11545  24213602.232    24213614.249
       214.000         158.000
  23000423.383   -11570207.11849  -8735387.19946  23000422.559    23000433.040
       222.000         169.000
  22603349.762    -8065251.72049  -5995282.68046  22603349.217    22603358.275
       229.000         178.000
  22201937.686   -11055366.69849  -8599497.31046  22201938.028    22201945.815
       232.000         185.000
 00  2  4  0 33  0.0000000  0  7G24G 9G 5G 6G10G30G 4
  20294943.508   -23882781.00249 -18019931.15848  20294943.423    20294951.227
       245.000         217.000
  23087723.342    -8784684.04249  -6825911.01746  23087724.161    23087732.225
       225.000         175.000
  20386561.872   -27829206.76949 -21663424.01448  20386561.227    20386568.566
       247.000         219.000
  24200348.845    -7527165.47149  -5237232.57145  24200348.108    24200360.182
       215.000         157.000
  22982139.158   -11666290.94549  -8810257.54146  22982138.247    22982148.722
       222.000         170.000
  22586178.358    -8155487.41749  -6065596.07046  22586178.094    22586187.111
       229.000         178.000
  22218667.214   -10967452.18349  -8530992.51546  22218667.497    22218675.933
       232.000         184.000
 00  2  4  0 33 30.0000000  0  7G24G 9G 5G 6G10G30G 4
  20299393.474   -23859396.22449 -18001709.23548  20299393.123    20299401.085
       245.000         217.000
  23104013.308    -8699079.94749  -6759206.58146  23104012.905    23104023.179
       225.000         175.000
  20380978.932   -27858545.01449 -21686284.95048  20380978.312    20380985.648
       247.000         219.000
  24187105.435    -7596758.97849  -5291461.02445  24187104.206    24187116.694
       215.000         156.000
  22963898.985   -11762143.00949  -8884947.27146  22963897.225    22963908.285
       222.000         170.000
  22569059.074    -8245449.14849  -6135695.97346  22569059.106    22569067.783
       228.000         179.000
  22235445.999   -10879279.20449  -8462286.32346  22235446.521    22235454.102
       232.000         184.000
 00  2  4  0 34  0.0000000  0  7G24G 9G 5G 6G10G30G 4
  20303920.430   -23835606.77749 -17983171.98348  20303920.288    20303928.074
       245.000         217.000
  23120332.313    -8613323.03049  -6692383.06146  23120331.807    23120342.038
       224.000         174.000
  20375475.670   -27887464.75449 -21708819.77748  20375475.142    20375482.649
       248.000         219.000
  24173861.734    -7666354.02349  -5345690.71045  24173860.724    24173872.321
       214.000         156.000
  22945690.472   -11857828.64249  -8959507.32246  22945689.450    22945700.075
       220.000         170.000
  22551977.113    -8335214.68149  -6205643.00446  22551976.751    22551985.948
       228.000         179.000
  22252258.503   -10790928.94049  -8393441.98946  22252258.612    22252266.801
       231.000         184.000
 00  2  4  0 34 30.0000000  0  7G24G 9G 5G 6G10G30G 4
  20308523.231   -23811418.92449 -17964324.28548  20308523.062    20308530.912
       245.000         217.000
  23136681.116    -8527409.78749  -6625437.72946  23136680.839    23136690.299
       223.000         174.000
  20370051.027   -27915971.50449 -21731032.79348  20370050.458    20370057.918
       248.000         219.000
  24160618.196    -7735948.14349  -5399919.68545  24160617.273    24160629.295
       213.000         156.000
  22927511.440   -11953359.09649  -9033946.45046  22927509.465    22927520.757
       221.000         170.000
  22534929.138    -8424801.86349  -6275451.04746  22534928.484    22534938.310
       228.000         179.000
  22269102.697   -10702412.21249  -8324467.93146  22269103.111    22269110.656
       231.000         184.000
 00  2  4  0 35  0.0000000  0  7G24G 9G 5G 6G10G30G 4
  20313202.198   -23786830.67349 -17945164.58248  20313201.743    20313209.781
       247.000         217.000
  23153060.170    -8441337.33749  -6558368.33046  23153060.330    23153070.815
       225.000         173.000
  20364706.236   -27944058.46949 -21752918.69648  20364705.398    20364713.037
       249.000         219.000
  24147375.935    -7805535.79849  -5454143.63545  24147374.391    24147387.329
       215.000         156.000
  22909362.732   -12048730.17849  -9108261.39446  22909361.529    22909371.823
       223.000         171.000
  22517916.489    -8514203.51849  -6345114.51746  22517915.981    22517924.870
       230.000         180.000
  22285977.650   -10613733.90049  -8255367.96346  22285977.169    22285986.018
       233.000         183.000
 00  2  4  0 35 30.0000000  0  7G24G 9G 5G 6G10G30G 4
  20317958.831   -23761834.35549 -17925686.92248  20317958.550    20317966.446
       247.000         217.000
  23169468.450    -8355111.63049  -6491179.52746  23169468.691    23169478.260
       224.000         172.000
  20359444.356   -27971709.58349 -21774464.98848  20359443.531    20359451.046
       249.000         219.000
  24134136.402    -7875108.93749  -5508356.29045  24134135.106    24134146.954
       215.000         156.000
  22891246.920   -12143929.08049  -9182442.16846  22891245.760    22891256.616
       224.000         171.000
  22500942.168    -8603403.64049  -6414620.96746  22500941.612    22500951.004
       229.000         179.000
  22302881.969   -10524900.96349  -8186147.51446  22302882.196    22302890.370
       231.000         183.000
 00  2  4  0 36  0.0000000  0  7G24G 9G 5G 6G10G30G 4
  20322799.790   -23736394.92749 -17905863.97148  20322799.389    20322807.197
       245.000         217.000
  23185904.846    -8268738.01849  -6423875.46646  23185904.482    23185914.486
       221.000         172.000
  20354270.612   -27998897.72449 -21795650.51648  20354269.982    20354277.269
       248.000         219.000
  24120899.675    -7944667.72049  -5562557.77045  24120898.939    24120910.298
       216.000         157.000
  22873164.881   -12238950.08749  -9256484.32146  22873163.568    22873174.342
       222.000         172.000
  22484008.456    -8692390.31549  -6483961.09346  22484007.925    22484016.719
       227.000         179.000
  22319815.650   -10435913.96449  -8116807.01246  22319816.273    22319824.101
       231.000         183.000
 00  2  4  0 36 30.0000000  0  7G24G 9G 5G 6G10G30G 4
  20327726.853   -23710502.84149 -17885688.30148  20327726.418    20327734.373
       247.000         217.000
  23202371.491    -8182205.18849  -6356447.34346  23202371.932    23202381.598
       224.000         172.000
  20349190.364   -28025594.59649 -21816453.23848  20349189.429    20349196.946
       249.000         219.000
  24107668.309    -8014198.19849  -5616737.20145  24107667.599    24107678.560
       216.000         157.000
  22855120.202   -12333774.81149  -9330373.52846  22855118.551    22855129.214
       222.000         172.000
  22467120.190    -8781137.85349  -6553114.87746  22467119.777    22467128.421
       229.000         180.000
  22336783.410   -10346748.17749  -8047327.19846  22336783.447    22336791.248
       231.000         183.000
 00  2  4  0 37  0.0000000  0  7G24G 9G 5G 6G10G30G 4
  20332741.365   -23684151.48549 -17865154.75348  20332740.806    20332748.710
       247.000         217.000
  23218868.202    -8095514.66649  -6288896.33346  23218867.532    23218877.037
       223.000         171.000
  20344204.162   -28051796.99349 -21836870.65148  20344203.371    20344210.889
       249.000         219.000
  24094445.445    -8083684.07749  -5670881.88345  24094445.373    24094456.811
       217.000         158.000
  22837114.260   -12428395.92549  -9404104.08246  22837112.626    22837123.761
       223.000         172.000
  22450280.458    -8869630.90749  -6622070.36946  22450279.925    22450288.324
       229.000         180.000
  22353786.869   -10257394.80549  -7977701.21246  22353786.715    22353795.909
       230.000         182.000
 00  2  4  0 37 30.0000000  0  7G24G 9G 5G 6G10G30G 4
  20337844.879   -23657332.16449 -17844256.57048  20337844.743    20337852.590
       245.000         217.000
  23235395.394    -8008663.83049  -6221220.42946  23235395.750    23235405.736
       222.000         171.000
  20339312.100   -28077504.87749 -21856902.73848  20339311.538    20339318.846
       248.000         220.000
  24081231.051    -8153125.40349  -5724991.85545  24081230.611    24081241.953
       217.000         158.000
  22819146.442   -12522816.70249  -9477678.53246  22819145.015    22819155.469
       223.000         172.000
  22433487.637    -8957876.97649  -6690833.40446  22433488.339    22433496.025
       229.000         181.000
  22370827.652   -10167844.98249  -7907922.15446  22370827.698    22370835.430
       230.000         182.000
 00  2  4  0 38  0.0000000  0  7G24G 9G 5G 6G10G30G 4
  20343036.638   -23630049.24049 -17822997.13148  20343036.249    20343044.026
       247.000         217.000
  23251955.931    -7921637.80049  -6153407.98946  23251956.046    23251965.680
       222.000         171.000
  20334512.991   -28102724.24949 -21876554.16448  20334512.280    20334519.759
       249.000         220.000
  24068025.925    -8222518.39549  -5779064.14245  24068024.813    24068036.154
       218.000         158.000
  22801216.770   -12617037.09849  -9551096.85346  22801215.507    22801225.811
       224.000         172.000
  22416739.923    -9045886.42849  -6759412.06846  22416740.044    22416748.573
       231.000         181.000
  22387908.351   -10078085.34849  -7837979.60346  22387908.254    22387917.003
       231.000         182.000
 00  2  4  0 38 30.0000000  0  7G24G 9G 5G 6G10G30G 4
  20348312.085   -23602326.36949 -17801394.88148  20348311.727    20348319.475
       245.000         217.000
  23268549.196    -7834440.28749  -6085461.93146  23268549.408    23268559.239
       222.000         171.000
  20329803.688   -28127471.78849 -21895837.93248  20329803.140    20329810.394
       248.000         220.000
  24054832.101    -8291851.72149  -5833089.94545  24054831.607    24054842.272
       218.000         158.000
  22783325.772   -12711054.05449  -9624356.65746  22783324.643    22783335.331
       223.000         173.000
  22400035.693    -9133667.33149  -6827812.64846  22400035.758    22400043.955
       230.000         182.000
  22405028.775    -9988117.03349  -7767874.44646  22405028.502    22405036.809
       230.000         182.000
 00  2  4  0 39  0.0000000  0  7G24G 9G 5G 6G10G30G 4
  20353667.447   -23574183.65749 -17779465.47948  20353667.189    20353675.001
       246.000         217.000
  23285170.980    -7747092.57749  -6017398.83146  23285171.042    23285180.807
       223.000         171.000
  20325180.921   -28151764.46649 -21914767.25848  20325180.191    20325187.487
       249.000         220.000
  24041646.369    -8361142.82949  -5887082.84645  24041645.505    24041656.332
       218.000         158.000
  22765471.633   -12804877.63349  -9697465.77546  22765470.503    22765480.340
       224.000         174.000
  22383371.344    -9221238.68249  -6896049.93646  22383371.075    22383379.511
       231.000         182.000
  22422186.505    -9897952.52749  -7697616.41146  22422187.183    22422194.997
       230.000         181.000
 00  2  4  0 39 30.0000000  0  7G24G 9G 5G 6G10G30G 4
  20359098.941   -23545640.99149 -17757224.42948  20359098.529    20359106.410
       245.000         217.000
  23301819.403    -7659604.55449  -5949226.41246  23301820.106    23301829.436
       222.000         170.000
  20320643.735   -28175607.41949 -21933346.15248  20320643.012    20320650.438
       248.000         220.000
  24028463.464    -8430418.71349  -5941063.87545  24028462.851    24028473.396
       217.000         158.000
  22747655.080   -12898503.70549  -9770421.00246  22747654.047    22747664.219
       224.000         174.000
  22366746.970    -9308600.05549  -6964123.62146  22366746.803    22366755.169
       230.000         182.000
  22439379.584    -9807602.32049  -7627213.67146  22439379.561    22439387.705
       229.000         181.000
 00  2  4  0 40  0.0000000  0  7G24G 9G 5G 6G10G30G 4
  20364603.386   -23516714.89149 -17734684.59748  20364603.139    20364610.934
       245.000         217.000
  23318492.455    -7571987.41649  -5880953.37146  23318492.314    23318502.717
       222.000         170.000
  20316191.762   -28199002.55749 -21951576.10148  20316191.154    20316198.370
       248.000         220.000
  24015281.026    -8499691.90249  -5995042.79745  24015280.287    24015290.902
       217.000         158.000
  22729878.052   -12991922.13349  -9843214.44446  22729876.864    22729887.208
       223.000         175.000
  22350162.626    -9395750.68049  -7032033.07146  22350162.405    22350171.102
       230.000         183.000
  22456605.147    -9717081.27049  -7556677.81046  22456604.796    22456613.387
       228.000         180.000
 00  2  4  0 40 30.0000000  0  7G24G 9G 5G 6G10G30G 4
  20370179.503   -23487412.19049 -17711851.31248  20370179.398    20370187.012
       246.000         217.000
  23335187.697    -7484253.51649  -5812589.34846  23335187.246    23335197.011
       221.000         170.000
  20311827.046   -28221939.28649 -21969448.84648  20311826.415    20311833.867
       249.000         220.000
  24002096.805    -8568974.56949  -6049029.10445  24002095.565    24002107.751
       216.000         158.000
  22712140.368   -13085133.54749  -9915846.58446  22712138.774    22712148.933
       224.000         174.000
  22333620.943    -9482677.25449  -7099767.94046  22333621.176    22333629.407
       231.000         183.000
  22473858.751    -9626412.95049  -7486027.19146  22473858.541    22473867.262
       229.000         180.000
 00  2  4  0 41  0.0000000  0  7G24G 9G 5G 6G10G30G 4
  20375829.963   -23457718.83649 -17688713.62348  20375829.707    20375837.630
       247.000         217.000
  23351906.253    -7396397.29849  -5744130.01846  23351906.102    23351916.397
       223.000         169.000
  20307553.470   -28244396.92349 -21986948.27548  20307552.964    20307560.106
       250.000         220.000
  23988909.736    -8638272.16149  -6103027.03145  23988908.774    23988920.857
       216.000         157.000
  22694443.188   -13178132.03449  -9988312.81246  22694441.755    22694452.472
       226.000         175.000
  22317126.171    -9569357.37249  -7167310.77246  22317125.965    22317134.289
       233.000         183.000
  22491139.185    -9535603.61949  -7415266.68646  22491139.388    22491147.730
       229.000         180.000
 00  2  4  0 41 30.0000000  0  7G24G 9G 5G 6G10G30G 4
  20381559.834   -23427608.18949 -17665250.77048  20381559.550    20381567.233
       245.000         217.000
  23368650.997    -7308403.37749  -5675563.37946  23368651.279    23368661.073
       220.000         170.000
  20303373.741   -28266361.53749 -22004063.52948  20303373.167    20303380.518
       248.000         220.000
  23975723.429    -8707566.30149  -6157022.28145  23975722.073    23975734.027
       215.000         157.000
  22676787.992   -13270910.24949 -10060607.40546  22676786.587    22676796.633
       224.000         175.000
  22300681.281    -9655775.44449  -7234649.41246  22300680.790    22300689.818
       232.000         184.000
  22508445.538    -9444658.30049  -7344400.21646  22508445.597    22508453.748
       227.000         179.000
 00  2  4  0 42  0.0000000  0  7G24G 9G 5G 6G10G30G 4
  20387372.390   -23397062.72149 -17641449.09648  20387372.166    20387379.983
       245.000         217.000
  23385422.633    -7220267.97149  -5606886.49746  23385422.509    23385432.510
       220.000         171.000
  20299291.488   -28287813.80249 -22020779.55448  20299290.803    20299298.057
       248.000         220.000
  23962543.224    -8776827.86149  -6210992.13545  23962542.777    23962552.970
       213.000         155.000
  22659175.790   -13363462.70349 -10132726.07946  22659174.770    22659185.262
       226.000         176.000
  22284287.490    -9741925.11549  -7301778.91846  22284287.209    22284295.448
       231.000         184.000
  22525780.699    -9353561.34949  -7273415.60246  22525781.126    22525789.455
       227.000         179.000
 00  2  4  0 42 30.0000000  0  7G24G 9G 5G 6G10G30G 4
  20393268.828   -23366076.69949 -17617304.13348  20393268.514    20393276.437
       246.000         216.000
  23402222.294    -7131985.42249  -5538094.97646  23402222.069    23402231.839
       222.000         171.000
  20295307.818   -28308747.97549 -22037091.86848  20295307.161    20295314.615
       248.000         220.000
  23949374.622    -8846028.57249  -6264914.59645  23949374.033    23949384.826
       211.000         154.000
  22641607.177   -13455785.82949 -10204666.04946  22641605.373    22641615.739
       226.000         177.000
  22267947.763    -9827790.53949  -7368686.92346  22267947.321    22267956.477
       232.000         184.000
  22543145.420    -9262308.86549  -7202309.78346  22543145.375    22543154.333
       229.000         179.000
 00  2  4  0 43  0.0000000  0  7G24G 9G 5G 6G10G30G 4
  20399251.611   -23334636.99149 -17592805.64748  20399251.472    20399259.154
       245.000         216.000
  23419046.680    -7043572.50749  -5469201.85746  23419047.051    23419056.764
       222.000         171.000
  20291419.708   -28329179.98649 -22053012.89448  20291419.123    20291426.345
       248.000         220.000
  23936219.389    -8915158.70249  -6318782.05045  23936219.050    23936229.546
       210.000         153.000
  22624085.996   -13547859.91249 -10276411.96446  22624085.082    22624095.041
       226.000         177.000
  22251659.938    -9913382.89449  -7435382.15246  22251659.926    22251668.490
       231.000         184.000
  22560541.149    -9170893.81049  -7131077.28946  22560541.432    22560549.637
       228.000         178.000
 00  2  4  0 43 30.0000000  0  7G24G 9G 5G 6G10G30G 4
  20405318.395   -23302755.85749 -17567963.19348  20405317.982    20405325.899
       246.000         216.000
  23435892.950    -6955044.86549  -5400219.35446  23435892.899    23435903.081
       222.000         171.000
  20287624.295   -28349124.94649 -22068554.39648  20287623.630    20287630.916
       249.000         220.000
  23923077.587    -8984218.33249  -6372594.58745  23923076.329    23923087.494
       211.000         152.000
  22606612.203   -13639685.02549 -10347963.85546  22606610.569    22606620.433
       226.000         177.000
  22235422.238    -9998711.98349  -7501872.24046  22235422.447    22235430.691
       232.000         184.000
  22577968.934    -9079310.66649  -7059713.80946  22577968.997    22577977.148
       228.000         178.000
 00  2  4  0 44  0.0000000  0  7G24G 9G 5G 6G10G30G 4
  20411465.793   -23270450.84649 -17542790.44148  20411465.586    20411473.255
       246.000         216.000
  23452759.419    -6866411.31749  -5331154.30846  23452759.582    23452769.810
       221.000         171.000
  20283920.425   -28368588.86249 -22083721.05748  20283919.785    20283926.996
       248.000         220.000
  23909945.556    -9053226.98349  -6426367.39145  23909944.550    23909954.727
       210.000         151.000
  22589187.408   -13731252.15549 -10419314.73146  22589185.792    22589195.710
       224.000         177.000
  22219234.862   -10083776.85649  -7568156.43946  22219234.854    22219242.928
       232.000         185.000
  22595425.614    -8987575.36149  -6988231.76846  22595425.402    22595434.323
       227.000         178.000
 00  2  4  0 44 30.0000000  0  7G24G 9G 5G 6G10G30G 4
  20417692.375   -23237729.85149 -17517293.54448  20417691.976    20417699.859
       245.000         216.000
  23469645.958    -6777672.61249  -5262007.32446  23469645.632    23469655.585
       221.000         171.000
  20280306.949   -28387577.66149 -22098517.49748  20280306.146    20280313.510
       248.000         220.000
  23896819.128    -9122206.09949  -6480117.19945  23896819.066    23896829.680
       213.000         152.000
  22571811.580   -13822561.75549 -10490464.92646  22571809.791    22571820.443
       224.000         177.000
  22203098.190   -10168575.28049  -7634233.01946  22203098.555    22203105.472
       232.000         185.000
  22612907.257    -8895709.00849  -6916647.61246  22612907.050    22612915.648
       228.000         178.000
 00  2  4  0 45  0.0000000  0  7G24G 9G 5G 6G10G30G 4
  20423998.246   -23204592.32949 -17491472.08348  20423997.691    20424005.557
       247.000         216.000
  23486553.751    -6688821.95649  -5192773.11446  23486553.357    23486562.762
       221.000         171.000
  20276786.570   -28406077.16949 -22112932.67848  20276785.623    20276793.028
       250.000         220.000
  23883693.596    -9191180.84649  -6533863.59745  23883693.253    23883704.216
       214.000         153.000
  22554483.759   -13913619.30649 -10561418.71746  22554482.147    22554492.688
       225.000         178.000
  22187014.385   -10253095.80349  -7700093.05846  22187013.640    22187022.012
       234.000         185.000
  22630414.939    -8803705.66949  -6844956.70846  22630415.319    22630423.671
       228.000         178.000
 00  2  4  0 45 30.0000000  0  7G24G 9G 5G 6G10G30G 4
  20430380.781   -23171051.74449 -17465336.53848  20430380.302    20430388.313
       245.000         216.000
  23503487.732    -6599833.13349  -5123431.24046  23503486.955    23503498.115
       220.000         170.000
  20273364.213   -28424061.62749 -22126946.51348  20273363.403    20273370.591
       248.000         220.000
  23870567.234    -9260159.61949  -6587613.13245  23870566.571    23870577.187
       215.000         154.000
  22537201.376   -14004438.34849 -10632186.64846  22537200.131    22537209.841
       226.000         178.000
  22170988.421   -10337312.34349  -7765716.21946  22170988.384    22170996.119
       233.000         186.000
  22647947.934    -8711569.01549  -6773161.92546  22647947.572    22647956.092
       227.000         177.000
 00  2  4  0 46  0.0000000  0  7G24G 9G 5G 6G10G30G 4
  20436841.465   -23137100.62449 -17438881.10548  20436841.099    20436848.892
       245.000         216.000
  23520449.831    -6510696.66349  -5053974.32546  23520449.662    23520459.827
       221.000         169.000
  20270042.525   -28441517.08249 -22140548.15148  20270041.912    20270049.127
       248.000         220.000
  23857442.324    -9329130.52849  -6641356.53245  23857442.406    23857452.487
       216.000         155.000
  22519968.078   -14094999.63649 -10702753.76146  22519967.521    22519976.080
       226.000         178.000
  22155020.910   -10421221.70449  -7831100.04446  22155020.898    22155028.757
       233.000         186.000
  22665506.933    -8619295.94049  -6701260.85746  22665506.986    22665515.229
       227.000         177.000
 00  2  4  0 46 30.0000000  0  7G24G 9G 5G 6G10G30G 4
  20443379.398   -23102743.41449 -17412109.23648  20443379.273    20443387.022
       245.000         216.000
  23537437.391    -6421426.69549  -4984413.37246  23537437.761    23537446.999
       221.000         169.000
  20266820.998   -28458446.26749 -22153739.70748  20266820.342    20266827.594
       248.000         220.000
  23844320.803    -9398084.39949  -6695086.66045  23844320.400    23844330.644
       215.000         156.000
  22502784.033   -14185301.80349 -10773118.95646  22502782.938    22502792.822
       226.000         179.000
  22139110.761   -10504829.64049  -7896248.97846  22139110.763    22139118.308
       233.000         187.000
  22683095.984    -8526865.00549  -6629236.75946  22683096.289    22683104.462
       227.000         177.000
 00  2  4  0 47  0.0000000  0  7G24G 9G 5G 6G10G30G 4
  20449993.514   -23067986.06549 -17385025.56448  20449993.444    20450001.154
       245.000         216.000
  23554447.994    -6332035.74849  -4914758.16246  23554448.734    23554458.375
       220.000         168.000
  20263698.452   -28474855.34249 -22166525.97948  20263697.824    20263705.076
       248.000         220.000
  23831204.080    -9467012.77349  -6748796.91945  23831203.821    23831214.470
       217.000         157.000
  22485650.611   -14275338.27149 -10843277.12146  22485649.409    22485659.539
       226.000         180.000
  22123254.990   -10588151.99949  -7961175.38346  22123254.979    22123262.801
       233.000         187.000
  22700715.935    -8434271.72149  -6557086.16146  22700715.602    22700724.352
       226.000         176.000
 00  2  4  0 47 30.0000000  0  7G24G 9G 5G 6G10G30G 4
  20456682.784   -23032833.90349 -17357634.24448  20456682.503    20456690.411
       245.000         216.000
  23571476.532    -6242550.63049  -4845029.54946  23571477.126    23571486.613
       222.000         169.000
  20260671.389   -28490762.49149 -22178921.13548  20260670.759    20260677.934
       248.000         220.000
  23818095.588    -9535897.78749  -6802473.38545  23818095.096    23818105.267
       216.000         158.000
  22468569.599   -14365099.18949 -10913220.57246  22468568.374    22468578.444
       227.000         180.000
  22107448.855   -10671213.37849  -8025898.42947  22107448.752    22107456.923
       233.000         188.000
  22718366.327    -8341518.21549  -6484810.70946  22718366.842    22718374.633
       225.000         176.000
 00  2  4  0 48  0.0000000  0  7G24G 9G 5G 6G10G30G 4
  20463445.742   -22997294.22649 -17329940.96648  20463445.282    20463453.186
       245.000         216.000
  23588518.542    -6152994.62749  -4775245.72846  23588518.049    23588528.949
       221.000         168.000
  20257736.602   -28506184.81449 -22190938.50548  20257735.881    20257743.186
       248.000         220.000
  23804994.756    -9604742.49049  -6856118.43345  23804994.106    23805004.434
       216.000         158.000
  22451541.771   -14454580.55149 -10982946.20546  22451540.702    22451549.830
       227.000         180.000
  22091687.380   -10754039.88649  -8090438.45647  22091687.583    22091695.378
       234.000         188.000
  22736047.388    -8248603.32049  -6412409.51246  22736047.942    22736056.171
       226.000         175.000
 00  2  4  0 48 30.0000000  0  7G24G 9G 5G 6G10G30G 4
  20470281.563   -22961371.54149 -17301949.24048  20470280.999    20470288.933
       246.000         216.000
  23605572.472    -6063375.85549  -4705412.97846  23605572.582    23605582.657
       223.000         168.000
  20254893.014   -28521127.91149 -22202582.45248  20254892.200    20254899.400
       249.000         220.000
  23791897.797    -9673566.49749  -6909747.36445  23791896.893    23791907.664
       216.000         158.000
  22434564.258   -14543797.27849 -11052465.63146  22434563.035    22434572.559
       228.000         180.000
  22075972.357   -10836622.53849  -8154788.46147  22075971.773    22075980.173
       235.000         188.000
  22753755.562    -8155546.05649  -6339897.36346  22753755.753    22753763.384
       226.000         175.000
 00  2  4  0 49  0.0000000  0  7G24G 9G 5G 6G10G30G 4
  20477191.301   -22925060.43649 -17273654.85648  20477190.826    20477198.659
       247.000         216.000
  23622640.599    -5973682.28049  -4635521.95446  23622640.546    23622650.541
       221.000         167.000
  20252143.015   -28535579.13149 -22213843.11848  20252142.234    20252149.531
       250.000         220.000
  23778805.762    -9742364.91549  -6963356.35145  23778805.136    23778815.217
       216.000         158.000
  22417636.441   -14632752.80049 -11121781.52146  22417635.584    22417644.611
       229.000         181.000
  22060307.260   -10918942.85649  -8218934.05847  22060306.957    22060314.831
       235.000         189.000
  22771487.030    -8062366.87849  -6267290.22446  22771487.367    22771495.720
       227.000         175.000
 00  2  4  0 49 30.0000000  0  7G24G 9G 5G 6G10G30G 4
  20484174.638   -22888362.65949 -17245059.17048  20484174.401    20484182.210
       246.000         216.000
  23639723.631    -5883910.58749  -4565570.06346  23639724.160    23639734.426
       219.000         167.000
  20249487.961   -28549531.44149 -22224715.03048  20249487.152    20249494.433
       249.000         220.000
  23765718.316    -9811139.08449  -7016946.45645  23765718.146    23765727.904
       217.000         159.000
  22400758.766   -14721445.41149 -11190892.54946  22400757.478    22400767.447
       228.000         181.000
  22044697.638   -11000971.42149  -8282852.31447  22044697.543    22044705.045
       235.000         189.000
  22789241.255    -7969067.91249  -6194589.73746  22789241.406    22789249.511
       226.000         175.000
 00  2  4  0 50  0.0000000  0  7G24G 9G 5G 6G10G30G 4
  20491231.130   -22851280.49349 -17216163.95748  20491230.736    20491238.605
       246.000         216.000
  23656824.212    -5794047.06349  -4495546.61846  23656824.501    23656834.810
       222.000         166.000
  20246931.342   -28562966.51949 -22235183.89548  20246930.462    20246937.765
       249.000         220.000
  23752633.608    -9879899.32449  -7070525.70245  23752633.014    23752643.240
       217.000         161.000
  22383931.863   -14809871.20949 -11259795.67446  22383930.607    22383940.134
       229.000         181.000
  22029148.077   -11082684.53549  -8346524.75447  22029148.028    22029155.822
       234.000         189.000
  22807015.848    -7875661.82849  -6121805.78246  22807015.891    22807024.200
       226.000         174.000
 00  2  4  0 50 30.0000000  0  7G24G 9G 5G 6G10G30G 4
  20498363.207   -22813800.95149 -17186959.11148  20498362.859    20498370.781
       245.000         216.000
  23673942.591    -5704090.03749  -4425450.30846  23673942.651    23673952.678
       216.000         165.000
  20244473.927   -28575880.08249 -22245246.39248  20244473.393    20244480.436
       248.000         220.000
  23739554.593    -9948629.35849  -7124081.43745  23739554.059    23739564.910
       218.000         162.000
  22367156.777   -14898024.46849 -11328486.42746  22367155.840    22367165.325
       228.000         181.000
  22013662.921   -11164059.18449  -8409933.46847  22013662.549    22013670.443
       233.000         189.000
  22824811.194    -7782146.71749  -6048936.87846  22824811.332    22824819.645
       225.000         173.000
 00  2  4  0 51  0.0000000  0  7G24G 9G 5G 6G10G30G 4
  20505569.743   -22775930.34849 -17157449.54048  20505569.360    20505577.141
       247.000         215.000
  23691077.047    -5614048.02149  -4355287.77546  23691077.348    23691087.287
       220.000         165.000
  20242115.640   -28588272.87749 -22254903.08748  20242115.075    20242122.254
       250.000         220.000
  23726484.099   -10017314.66349  -7177602.30446  23726483.108    23726494.012
       220.000         164.000
  22350433.125   -14985907.38549 -11396966.51646  22350432.518    22350441.261
       229.000         181.000
  21998240.925   -11245101.72749  -8473083.38947  21998240.775    21998248.300
       235.000         190.000
  22842629.897    -7688508.64649  -5975972.15546  22842630.096    22842637.867
       226.000         173.000
 00  2  4  0 51 30.0000000  0  7G24G 9G 5G 6G10G30G 4
  20512849.066   -22737677.08549 -17127641.79648  20512848.680    20512856.377
       245.000         215.000
  23708226.091    -5523929.45249  -4285065.59646  23708226.436    23708236.721
       217.000         164.000
  20239856.174   -28600146.45149 -22264155.19948  20239855.570    20239862.728
       248.000         220.000
  23713421.559   -10085958.55649  -7231090.89846  23713421.150    23713431.116
       220.000         165.000
  22333762.964   -15073509.25249 -11465227.60346  22333762.018    22333771.339
       228.000         182.000
  21982879.898   -11325823.89449  -8535983.67147  21982879.679    21982887.449
       234.000         190.000
  22860474.131    -7594736.72149  -5902903.12246  22860473.773    22860483.195
       224.000         172.000
 00  2  4  0 52  0.0000000  0  7G24G 9G 5G 6G10G30G 4
  20520201.196   -22699041.09749 -17097535.82548  20520200.851    20520208.736
       245.000         215.000
  23725388.786    -5433739.07849  -4214787.46346  23725388.895    23725398.916
       218.000         164.000
  20237694.624   -28611505.31649 -22273006.23948  20237694.066    20237701.208
       248.000         220.000
  23700364.963   -10154570.74649  -7284554.81046  23700363.420    23700374.471
       221.000         166.000
  22317147.856   -15160821.59149 -11533263.08546  22317146.591    22317156.068
       229.000         182.000
  21967576.794   -11406241.96149  -8598646.98747  21967576.443    21967584.449
       234.000         190.000
  22878341.838    -7500841.44849  -5829737.98846  22878341.674    22878349.494
       224.000         172.000
 00  2  4  0 52 30.0000000  0  7G24G 9G 5G 6G10G30G 4
  20527624.897   -22660029.04649 -17067136.81948  20527624.551    20527632.361
       245.000         215.000
  23742564.993    -5343478.04749  -4144454.26846  23742564.994    23742575.751
       217.000         164.000
  20235628.545   -28622362.48749 -22281466.34848  20235627.986    20235635.095
       248.000         220.000
  23687314.984   -10223148.25149  -7337991.71146  23687314.174    23687324.480
       220.000         167.000
  22300588.458   -15247841.37949 -11601070.60946  22300587.225    22300596.913
       229.000         182.000
  21952329.885   -11486364.38249  -8661079.93147  21952329.658    21952337.467
       234.000         190.000
  22896233.576    -7406819.71749  -5756474.31546  22896233.617    22896242.638
       224.000         171.000
 00  2  4  0 53  0.0000000  0  7G24G 9G 5G 6G10G30G 4
  20535115.629   -22620665.03049 -17036463.55648  20535115.435    20535123.225
       244.000         215.000
  23759754.452    -5253147.26349  -4074066.72046  23759754.224    23759764.989
       219.000         164.000
  20233658.552   -28632714.79349 -22289533.05948  20233657.930    20233665.012
       248.000         220.000
  23674267.388   -10291713.29949  -7391418.89046  23674266.936    23674276.353
       220.000         166.000
  22284086.011   -15334561.82949 -11668644.87546  22284084.669    22284094.314
       229.000         183.000
  21937138.734   -11566193.94249  -8723284.68147  21937138.785    21937146.399
       233.000         191.000
  22914147.673    -7312680.61849  -5683119.18246  22914148.075    22914156.155
       224.000         171.000
 00  2  4  0 53 30.0000000  0  7G24G 9G 5G 6G10G30G 4
  20542672.285   -22580954.57749 -17005520.34248  20542672.334    20542679.974
       245.000         215.000
  23776958.379    -5162740.34349  -4003619.84046  23776958.324    23776968.411
       219.000         164.000
  20231783.936   -28642565.81649 -22297209.15948  20231783.238    20231790.464
       248.000         221.000
  23661219.169   -10360281.25849  -7444848.34846  23661218.859    23661228.413
       219.000         165.000
  22267643.410   -15420968.04749 -11735974.28846  22267642.192    22267651.954
       230.000         183.000
  21922002.757   -11645733.63349  -8785263.55747  21922002.503    21922010.297
       234.000         191.000
  22932081.097    -7218439.98049  -5609684.92446  22932081.121    22932089.697
       223.000         170.000
 00  2  4  0 54  0.0000000  0  7G24G 9G 5G 6G10G30G 4
  20550294.725   -22540898.43549 -16974307.75748  20550294.497    20550302.307
       245.000         215.000
  23794175.732    -5072262.39449  -3933117.63546  23794175.645    23794186.111
       221.000         163.000
  20230001.865   -28651930.66749 -22304506.42248  20230001.272    20230008.334
       249.000         220.000
  23648170.823   -10428850.34349  -7498278.67646  23648169.373    23648180.292
       219.000         165.000
  22251259.607   -15507065.14549 -11803062.82346  22251258.654    22251267.857
       230.000         183.000
  21906924.201   -11724971.60949  -8847007.33447  21906924.112    21906931.889
       234.000         192.000
  22950033.039    -7124101.98049  -5536174.80346  22950033.562    22950041.232
       224.000         169.000
 00  2  4  0 54 30.0000000  0  7G24G 9G 5G 6G10G30G 4
  20557982.112   -22500500.81049 -16942829.08448  20557981.895    20557989.799
       246.000         215.000
  23811404.339    -4981725.79649  -3862569.71645  23811404.118    23811414.401
       218.000         162.000
  20228311.414   -28660813.90349 -22311428.40148  20228310.712    20228317.944
       249.000         220.000
  23635123.765   -10497412.54149  -7551703.63646  23635123.425    23635133.081
       220.000         165.000
  22234930.229   -15592876.40049 -11869928.63246  22234929.289    22234938.603
       230.000         184.000
  21891902.778   -11803909.53549  -8908517.31247  21891902.441    21891909.980
       236.000         192.000
  22968001.329    -7029677.99849  -5462597.69246  22968001.533    22968009.413
       224.000         169.000
 00  2  4  0 55  0.0000000  0  7G24G 9G 5G 6G10G30G 4
  20565736.179   -22459752.89949 -16911077.45848  20565735.937    20565743.856
       247.000         215.000
  23828641.145    -4891146.07449  -3791988.18145  23828640.775    23828651.686
       219.000         161.000
  20226715.223   -28669201.73549 -22317964.34948  20226714.557    20226721.836
       248.000         220.000
  23622078.049   -10565967.74349  -7605123.14046  23622077.476    23622087.264
       220.000         165.000
  22218656.615   -15678394.20049 -11936565.77246  22218655.595    22218664.974
       230.000         185.000
  21876940.236   -11882537.81249  -8969786.00647  21876940.219    21876947.758
       235.000         192.000
  22985985.020    -6935172.98749  -5388957.42846  22985985.034    22985993.420
       223.000         169.000
 00  2  4  0 55 30.0000000  0  7G24G 9G 5G 6G10G30G 4
  20573560.792   -22418634.31849 -16879036.99648  20573560.550    20573568.298
       247.000         215.000
  23845884.129    -4800533.63749  -3721381.17045  23845884.088    23845895.098
       217.000         160.000
  20225215.771   -28677081.31749 -22324104.25848  20225215.145    20225222.443
       248.000         220.000
  23609036.576   -10634500.55349  -7658525.19846  23609036.354    23609045.948
       220.000         165.000
  22202441.904   -15763602.64649 -12002961.86746  22202440.510    22202450.257
       231.000         185.000
  21862036.639   -11960856.19649  -9030813.23247  21862036.277    21862043.936
       235.000         192.000
  23003983.393    -6840590.82649  -5315257.05046  23003982.894    23003991.575
       223.000         169.000
 00  2  4  0 56  0.0000000  0  7G24G 9G 5G 6G10G30G 4
  20581457.005   -22377139.54649 -16846703.39548  20581456.814    20581464.551
       249.000         215.000
  23863131.808    -4709896.56349  -3650754.95945  23863130.998    23863143.217
       215.000         159.000
  20223816.716   -28684433.51249 -22329833.21348  20223816.163    20223823.213
       250.000         220.000
  23596002.764   -10702993.09649  -7711895.88246  23596002.308    23596012.455
       223.000         165.000
  22186288.175   -15848490.75049 -12069108.33246  22186286.973    22186296.612
       233.000         185.000
  21847195.074   -12038848.55949  -9091586.41747  21847194.752    21847202.197
       237.000         192.000
  23021997.972    -6745923.59949  -5241490.39146  23021998.082    23022006.468
       224.000         168.000
 00  2  4  0 56 30.0000000  0  7G24G 9G 5G 6G10G30G 4
  20589427.137   -22335256.33749 -16814067.12348  20589426.796    20589434.634
       247.000         215.000
  23880385.732    -4619226.86749  -3580103.33545  23880385.853    23880396.718
       214.000         160.000
  20222523.771   -28691227.89249 -22335127.51448  20222523.009    20222530.323
       248.000         220.000
  23582976.027   -10771448.51149  -7765237.62446  23582974.946    23582985.100
       219.000         166.000
  22170200.035   -15933034.00049 -12134986.09046  22170199.031    22170208.377
       231.000         185.000
  21832416.469   -12116510.08749  -9152101.81647  21832416.243    21832423.996
       235.000         193.000
  23040029.680    -6651166.48949  -5167653.70046  23040030.089    23040037.872
       223.000         168.000
 00  2  4  0 57  0.0000000  0  7G24G 9G 5G 6G10G30G 4
  20597470.411   -22292988.46649 -16781131.10848  20597470.138    20597477.922
       246.000         215.000
  23897646.846    -4528519.60549  -3509422.43345  23897646.883    23897657.158
       216.000         159.000
  20221338.680   -28697455.39249 -22339980.08848  20221338.139    20221345.308
       248.000         221.000
  23569955.464   -10839871.40149  -7818554.01146  23569955.080    23569964.020
       219.000         166.000
  22154183.715   -16017199.85049 -12200569.78546  22154182.678    22154192.388
       231.000         186.000
  21817703.392   -12193827.26849  -9212348.89647  21817703.598    21817710.866
       236.000         193.000
  23058082.896    -6556296.19249  -5093728.79946  23058083.111    23058090.800
       223.000         168.000
 00  2  4  0 57 30.0000000  0  7G24G 9G 5G 6G10G30G 4
  20605584.919   -22250346.44249 -16747903.53848  20605584.621    20605592.361
       246.000         215.000
  23914917.317    -4437763.48649  -3438703.44845  23914916.908    23914927.754
       215.000         159.000
  20220259.143   -28703128.53049 -22344400.68848  20220258.496    20220265.543
       248.000         221.000
  23556942.701   -10908253.42149  -7871838.56546  23556942.738    23556952.453
       220.000         167.000
  22138237.362   -16100998.23049 -12265867.11346  22138236.178    22138245.550
       231.000         186.000
  21803057.518   -12270791.76249  -9272321.15347  21803057.747    21803065.277
       237.000         194.000
  23076158.512    -6461308.41349  -5019712.34846  23076158.288    23076167.492
       222.000         168.000
 00  2  4  0 58  0.0000000  0  7G24G 9G 5G 6G10G30G 4
  20613767.752   -22207345.08949 -16714395.97148  20613767.246    20613775.275
       248.000         215.000
  23932197.448    -4346955.78549  -3367944.28345  23932196.465    23932208.468
       217.000         158.000
  20219280.921   -28708268.93349 -22348406.17248  20219280.034    20219287.255
       250.000         221.000
  23543937.506   -10976596.04949  -7925092.41846  23543937.411    23543946.705
       221.000         167.000
  22122354.577   -16184462.30449 -12330903.95946  22122352.994    22122362.808
       233.000         186.000
  21788479.957   -12347397.43749  -9332013.81047  21788479.679    21788487.308
       238.000         194.000
  23094254.566    -6366212.82849  -4945611.89346  23094254.181    23094263.057
       223.000         167.000
 00  2  4  0 58 30.0000000  0  7G24G 9G 5G 6G10G30G 4
  20622018.102   -22163989.20149 -16680612.14948  20622017.894    20622025.460
       246.000         215.000
  23949485.972    -4256104.03149  -3297150.79045  23949485.406    23949497.154
       213.000         158.000
  20218400.887   -28712893.26449 -22352009.52748  20218400.173    20218407.223
       248.000         221.000
  23530937.982   -11044908.72049  -7978322.92046  23530937.091    23530946.976
       220.000         168.000
  22106532.766   -16267606.16249 -12395691.28446  22106531.777    22106540.760
       232.000         186.000
  21773971.463   -12423639.64449  -9391423.25247  21773971.343    21773978.564
       236.000         194.000
  23112370.849    -6271011.05949  -4871428.70346  23112371.358    23112378.553
       220.000         167.000
 00  2  4  0 59  0.0000000  0  7G24G 9G 5G 6G10G30G 4
  20630333.237   -22120292.90149 -16646563.06948  20630332.938    20630340.597
       248.000         215.000
  23966779.562    -4165225.62149  -3226336.52745  23966779.714    23966790.284
       216.000         157.000
  20217613.813   -28717029.39749 -22355232.46548  20217613.278    20217620.467
       250.000         221.000
  23517945.207   -11113185.23349  -8031525.24646  23517944.926    23517954.884
       221.000         168.000
  22090769.699   -16350441.33349 -12460238.07146  22090768.689    22090777.727
       233.000         187.000
  21759529.621   -12499531.72649  -9450559.86947  21759529.681    21759536.923
       238.000         194.000
  23130504.164    -6175719.69349  -4797175.69746  23130504.485    23130513.155
       222.000         167.000
 00  2  4  0 59 30.0000000  0  7G24G 9G 5G 6G10G30G 4
  20638713.595   -22076253.73249 -16612246.81848  20638713.336    20638721.300
       247.000         214.000
  23984076.357    -4074330.94449  -3155509.58445  23984075.940    23984086.870
       218.000         157.000
  20216917.048   -28720690.71749 -22358085.42148  20216916.410    20216923.406
       248.000         220.000
  23504959.308   -11181425.99149  -8084699.70946  23504958.846    23504968.591
       220.000         169.000
  22075063.112   -16432979.73249 -12524553.60846  22075062.232    22075071.501
       231.000         187.000
  21745151.309   -12575090.03949  -9509436.40347  21745151.155    21745158.413
       237.000         194.000
  23148650.706    -6080358.95549  -4722868.64046  23148651.552    23148659.255
       221.000         167.000
 00  2  4  1  0  0.0000000  0  7G24G 9G 5G 6G10G30G 4
  20647160.390   -22031865.65349 -16577658.68648  20647159.989    20647167.783
       247.000         214.000
  24001374.834    -3983427.23849  -3084675.59445  24001374.714    24001385.623
       218.000         158.000
  20216311.329   -28723873.68549 -22360565.63448  20216310.679    20216317.591
       248.000         220.000
  23491977.792   -11249643.82849  -8137856.31346  23491977.023    23491986.599
       220.000         168.000
  22059414.906   -16515211.24549 -12588630.00346  22059414.025    22059423.155
       231.000         187.000
  21730832.639   -12650334.92849  -9568068.71247  21730832.588    21730839.867
       237.000         195.000
  23166809.091    -5984936.09249  -4648513.17246  23166808.602    23166818.185
       221.000         167.000
 00  2  4  1  0 30.0000000  0  7G24G 9G 5G 6G10G30G 4
  20655674.263   -21987124.80349 -16542795.67048  20655673.765    20655681.619
       247.000         214.000
  24018674.657    -3892516.73949  -3013836.31245  24018674.717    24018685.289
       217.000         159.000
  20215798.508   -28726568.53849 -22362665.49748  20215798.034    20215804.917
       248.000         220.000
  23478997.586   -11317854.51849  -8191007.35846  23478996.939    23479006.655
       219.000         168.000
  22043831.029   -16597104.55949 -12652442.86747  22043829.914    22043839.024
       231.000         188.000
  21716571.615   -12725276.67049  -9626464.79047  21716571.101    21716579.083
       237.000         195.000
  23184980.384    -5889445.45049  -4574104.88746  23184981.092    23184987.575
       220.000         167.000
 00  2  4  1  1  0.0000000  0  7G24G 9G 5G 6G10G30G 4
  20664255.084   -21942032.15749 -16507658.53248  20664254.874    20664262.653
       246.000         214.000
  24035978.087    -3801586.94149  -2942981.99745  24035977.839    24035988.855
       216.000         159.000
  20215382.708   -28728753.47349 -22364368.02848  20215382.102    20215389.004
       248.000         220.000
  23466018.588   -11386059.16149  -8244153.68946  23466017.574    23466027.914
       218.000         167.000
  22028313.796   -16678647.77249 -12715982.92547  22028312.896    22028321.384
       232.000         188.000
  21702368.160   -12799916.06949  -9684625.28547  21702367.983    21702375.593
       237.000         195.000
  23203162.376    -5793898.38349  -4499652.62246  23203162.515    23203170.949
       220.000         167.000
 00  2  4  1  1 30.0000000  0  7G24G 9G 5G 6G10G30G 4
  20672903.370   -21896584.96149 -16472245.11448  20672902.927    20672910.991
       248.000         214.000
  24053287.185    -3710626.80749  -2872104.03145  24053286.956    24053298.159
       218.000         158.000
  20215069.964   -28730397.00749 -22365648.68348  20215069.119    20215076.391
       249.000         220.000
  23453040.149   -11454260.88849  -8297297.74446  23453039.499    23453049.223
       221.000         166.000
  22012863.001   -16759841.95349 -12779251.00547  22012861.803    22012870.935
       232.000         189.000
  21688226.761   -12874229.47849  -9742531.75247  21688226.533    21688234.087
       238.000         196.000
  23221357.305    -5698283.55149  -4425147.55846  23221357.818    23221365.800
       223.000         167.000
 00  2  4  1  2  0.0000000  0  7G24G 9G 5G 6G10G30G 4
  20681620.239   -21850777.66649 -16436551.10648  20681619.872    20681627.491
       246.000         214.000
  24070604.191    -3619625.96049  -2801194.35845  24070604.018    24070615.316
       217.000         157.000
  20214865.614   -28731470.61449 -22366485.24448  20214864.900    20214872.119
       248.000         220.000
  23440063.627   -11522452.49949  -8350433.92446  23440063.102    23440072.543
       220.000         166.000
  21997481.522   -16840671.55849 -12842235.00747  21997480.261    21997489.545
       232.000         189.000
  21674153.971   -12948182.05649  -9800157.06147  21674154.185    21674161.152
       237.000         196.000
  23239566.507    -5602593.79249  -4350584.12346  23239566.223    23239575.026
       220.000         167.000
 00  2  4  1  2 30.0000000  0  7G24G 9G 5G 6G10G30G 4
  20690404.124   -21804617.76449 -16400582.34148  20690403.821    20690411.535
       246.000         214.000
  24087926.844    -3528595.26949  -2730261.42645  24087926.685    24087936.815
       215.000         157.000
  20214772.257   -28731961.17949 -22366867.48748  20214771.605    20214778.689
       248.000         220.000
  23427092.284   -11590616.61349  -8403548.67746  23427091.682    23427100.477
       217.000         165.000
  21982172.160   -16921122.17249 -12904923.69447  21982171.180    21982180.285
       232.000         189.000
  21660156.253   -13021740.43849  -9857475.20147  21660156.066    21660163.299
       237.000         196.000
  23257791.806    -5506818.99049  -4275954.41646  23257791.596    23257800.880
       221.000         167.000
 00  2  4  1  3  0.0000000  0  7G24G 9G 5G 6G10G30G 4
  20699254.171   -21758110.51949 -16364342.91748  20699254.055    20699261.669
       246.000         214.000
  24105255.011    -3437535.25849  -2659305.64045  24105255.169    24105265.848
       214.000         157.000
  20214788.952   -28731873.31949 -22366799.01148  20214788.273    20214795.332
       248.000         220.000
  23414130.446   -11658730.61149  -8456624.37246  23414130.215    23414139.094
       218.000         165.000
  21966934.113   -17001198.02549 -12967320.36047  21966932.969    21966942.115
       232.000         189.000
  21646236.247   -13094890.26849  -9914474.99347  21646236.133    21646243.687
       238.000         197.000
  23276035.063    -5410950.15449  -4201251.43646  23276035.286    23276043.710
       221.000         167.000
 00  2  4  1  3 30.0000000  0  7G24G 9G 5G 6G10G30G 4
  20708168.571   -21711264.94449 -16327839.86548  20708168.443    20708175.951
       247.000         214.000
  24122583.971    -3346471.14149  -2588346.65845  24122583.353    24122594.683
       216.000         158.000
  20214910.558   -28731234.26249 -22366301.02948  20214909.869    20214916.877
       248.000         220.000
  23401178.745   -11726791.70949  -8509658.86946  23401178.341    23401187.689
       219.000         165.000
  21951767.087   -17080900.77149 -13029426.29347  21951765.779    21951774.830
       233.000         190.000
  21632394.288   -13167629.99849  -9971155.22647  21632393.995    21632401.623
       239.000         197.000
  23294296.698    -5314984.70149  -4126473.16146  23294297.803    23294305.677
       221.000         167.000
 00  2  4  1  4  0.0000000  0  7G24G 9G 5G 6G10G30G 4
  20717142.873   -21664104.75749 -16291091.65848  20717142.431    20717149.996
       246.000         214.000
  24139910.331    -3255420.60149  -2517398.26145  24139910.188    24139921.223
       216.000         159.000
  20215132.011   -28730070.38849 -22365394.09848  20215131.416    20215138.541
       248.000         220.000
  23388236.218   -11794804.49049  -8562655.71246  23388235.132    23388245.010
       218.000         166.000
  21936671.605   -17160227.79749 -13091239.45847  21936670.389    21936679.237
       232.000         190.000
  21618630.220   -13239960.40449 -10027516.50647  21618630.494    21618637.429
       238.000         197.000
  23312573.265    -5218940.57349  -4051633.58246  23312573.121    23312581.951
       221.000         166.000
 00  2  4  1  4 30.0000000  0  7G24G 9G 5G 6G10G30G 4
  20726173.354   -21616649.03949 -16254113.16848  20726173.079    20726180.747
       247.000         214.000
  24157232.630    -3164392.14649  -2446467.07745  24157232.826    24157244.021
       217.000         160.000
  20215450.106   -28728398.72649 -22364091.49048  20215449.526    20215456.624
       249.000         220.000
  23375300.885   -11862779.81849  -8615623.36646  23375300.346    23375309.223
       219.000         166.000
  21921645.595   -17239189.63949 -13152768.06447  21921644.701    21921653.584
       233.000         190.000
  21604940.075   -13311902.20049 -10083574.97447  21604940.141    21604946.992
       239.000         197.000
  23330862.738    -5122828.69949  -3976741.22146  23330863.100    23330871.187
       220.000         166.000
 00  2  4  1  5  0.0000000  0  7G24G 9G 5G 6G10G30G 4
  20735259.958   -21568898.57449 -16216905.00248  20735259.608    20735267.277
       246.000         214.000
  24174551.122    -3073383.13149  -2375551.02445  24174551.087    24174562.223
       217.000         161.000
  20215863.377   -28726226.89949 -22362399.14048  20215862.819    20215869.857
       248.000         220.000
  23362369.377   -11930734.86749  -8668575.21646  23362369.068    23362377.735
       220.000         167.000
  21906686.406   -17317800.25949 -13214022.99847  21906685.177    21906694.124
       233.000         191.000
  21591321.270   -13383469.41449 -10139341.56447  21591321.349    21591328.340
       238.000         198.000
  23349161.346    -5026668.77849  -3901811.42246  23349161.382    23349170.305
       221.000         166.000
 00  2  4  1  5 30.0000000  0  7G24G 9G 5G 6G10G30G 4
  20744404.264   -21520844.86949 -16179460.54148  20744403.908    20744411.670
       247.000         213.000
  24191865.218    -2982397.07949  -2304652.87445  24191864.551    24191876.064
       217.000         161.000
  20216374.371   -28723541.66649 -22360306.73048  20216373.786    20216380.705
       248.000         221.000
  23349440.510   -11998675.89149  -8721516.13246  23349440.009    23349449.118
       220.000         167.000
  21891794.774   -17396055.87649 -13275001.29947  21891793.707    21891802.523
       233.000         191.000
  21577773.757   -13454661.61949 -10194815.93047  21577773.338    21577780.863
       239.000         198.000
  23367466.687    -4930473.74349  -3826854.24746  23367466.889    23367475.438
       220.000         166.000
 00  2  4  1  6  0.0000000  0  7G24G 9G 5G 6G10G30G 4
  20753608.590   -21472475.79049 -16141770.34048  20753608.106    20753615.749
       246.000         213.000
  24209180.081    -2891407.37849  -2233751.89445  24209180.143    24209191.124
       217.000         161.000
  20216988.125   -28720316.43449 -22357793.55048  20216987.611    20216994.569
       248.000         220.000
  23336516.186   -12066593.18249  -8774438.56246  23336515.267    23336525.546
       220.000         168.000
  21876972.974   -17473944.57049 -13335693.69547  21876971.878    21876980.488
       233.000         191.000
  21564297.654   -13525478.59049 -10249997.92347  21564297.727    21564305.079
       238.000         198.000
  23385778.102    -4834246.73249  -3751872.17046  23385777.673    23385786.695
       220.000         165.000
 00  2  4  1  6 30.0000000  0  7G24G 9G 5G 6G10G30G 4
  20762876.933   -21423770.13649 -16103817.87448  20762876.610    20762884.510
       247.000         213.000
  24226499.033    -2800396.15249  -2162834.13545  24226498.884    24226510.504
       215.000         160.000
  20217706.756   -28716539.79349 -22354850.69648  20217706.153    20217713.243
       248.000         220.000
  23323598.697   -12134474.34949  -8827332.83046  23323597.719    23323606.718
       219.000         168.000
  21862222.218   -17551460.16049 -13396095.35847  21862221.249    21862229.982
       233.000         191.000
  21550891.116   -13595930.22649 -10304895.23347  21550890.889    21550898.091
       238.000         199.000
  23404097.350    -4737978.37649  -3676857.85446  23404097.001    23404105.514
       221.000         164.000
 00  2  4  1  7  0.0000000  0  7G24G 9G 5G 6G10G30G 4
  20772211.106   -21374718.88949 -16065596.10948  20772210.858    20772218.451
       247.000         213.000
  24243821.062    -2709368.78549  -2091903.79145  24243820.832    24243831.992
       214.000         160.000
  20218528.338   -28712222.38149 -22351486.45848  20218527.435    20218534.615
       248.000         220.000
  23310690.980   -12202304.15949  -8880187.08046  23310690.365    23310699.919
       221.000         168.000
  21847545.472   -17628586.58049 -13456193.77447  21847544.160    21847553.108
       233.000         192.000
  21537554.958   -13666011.99649 -10359504.33847  21537555.041    21537561.934
       240.000         199.000
  23422425.373    -4641664.04649  -3601807.72946  23422425.232    23422433.879
       219.000         164.000
 00  2  4  1  7 30.0000000  0  7G24G 9G 5G 6G10G30G 4
  20781607.710   -21325339.39849 -16027118.57848  20781607.373    20781614.946
       248.000         213.000
  24261144.645    -2618332.91149  -2020966.82845  24261144.489    24261156.015
       213.000         159.000
  20219449.930   -28707379.28749 -22347712.60548  20219449.207    20219456.267
       249.000         220.000
  23297792.873   -12270083.85749  -8933002.28046  23297793.263    23297801.050
       223.000         169.000
  21832944.074   -17705316.94449 -13515983.57347  21832942.678    21832951.723
       235.000         192.000
  21524287.017   -13735735.33349 -10413834.14747  21524286.616    21524293.945
       241.000         199.000
  23440762.380    -4545302.67149  -3526720.94046  23440762.758    23440770.984
       219.000         163.000
 00  2  4  1  8  0.0000000  0  7G24G 9G 5G 6G10G30G 4
  20791062.475   -21275654.21149 -15988402.82948  20791061.957    20791069.697
       247.000         213.000
  24278467.366    -2527301.17749  -1950033.08545  24278467.427    24278478.447
       213.000         158.000
  20220469.149   -28702023.17849 -22343538.99048  20220468.381    20220475.602
       249.000         220.000
  23284903.675   -12337816.78349  -8985781.03446  23284902.667    23284912.029
       222.000         169.000
  21818417.908   -17781652.16149 -13575465.46147  21818416.864    21818425.233
       235.000         192.000
  21511084.286   -13805115.73549 -10467896.72347  21511084.026    21511091.108
       240.000         199.000
  23459106.770    -4448901.92849  -3451603.47845  23459106.399    23459115.697
       219.000         162.000
 00  2  4  1  8 30.0000000  0  7G24G 9G 5G 6G10G30G 4
  20800572.474   -21225678.56149 -15949460.75648  20800572.303    20800579.803
       247.000         213.000
  24295783.829    -2436302.63549  -1879125.20145  24295784.039    24295794.873
       212.000         156.000
  20221582.633   -28696171.59549 -22338979.30348  20221582.080    20221589.001
       249.000         220.000
  23272019.657   -12405521.69049  -9038537.95346  23272018.757    23272028.539
       222.000         169.000
  21803967.421   -17857589.58049 -13634637.38747  21803966.688    21803975.242
       234.000         193.000
  21497946.432   -13874155.26749 -10521693.70147  21497946.251    21497953.540
       239.000         199.000
  23477459.950    -4352455.50949  -3376450.42445  23477460.502    23477468.507
       218.000         160.000
 00  2  4  1  9  0.0000000  0  7G24G 9G 5G 6G10G30G 4
  20810135.309   -21175425.62849 -15910302.61348  20810134.993    20810142.698
       247.000         213.000
  24313087.442    -2345372.04149  -1808270.26845  24313087.820    24313098.522
       208.000         155.000
  20222791.940   -28689816.70949 -22334027.42748  20222791.383    20222798.439
       249.000         220.000
  23259137.059   -12473219.59449  -9091289.42546  23259135.805    23259145.563
       222.000         169.000
  21789590.802   -17933138.85449 -13693506.85447  21789589.391    21789598.321
       235.000         193.000
  21484873.768   -13942852.35949 -10575223.82847  21484873.562    21484880.748
       239.000         200.000
  23495820.933    -4255967.97449  -3301265.32845  23495820.962    23495829.235
       217.000         160.000
 00  2  4  1  9 30.0000000  0  7G24G 9G 5G 6G10G30G 4
  20819751.434   -21124892.60649 -15870926.22448  20819751.286    20819758.734
       246.000         213.000
  24330380.075    -2254498.76349  -1737460.01345  24330379.938    24330390.426
       207.000         154.000
  20224105.914   -28682911.59249 -22328646.80148  20224105.313    20224112.235
       248.000         220.000
  23246255.082   -12540914.17449  -9144038.30346  23246254.863    23246262.796
       222.000         169.000
  21775288.393   -18008298.24949 -13752072.52847  21775287.552    21775295.928
       234.000         193.000
  21471868.447   -14011195.44549 -10628478.11647  21471868.565    21471875.235
       239.000         200.000
  23514190.003    -4159437.80549  -3226047.02145  23514190.085    23514198.552
       218.000         158.000
 00  2  4  1 10  0.0000000  0  7G24G 9G 5G 6G10G30G 4
  20829425.457   -21074055.42449 -15831312.82047  20829425.259    20829432.661
       246.000         212.000
  24347664.641    -2163667.75549  -1666682.69945  24347664.443    24347676.919
       208.000         152.000
  20225531.853   -28675418.18249 -22322807.76248  20225531.336    20225538.331
       248.000         220.000
  23233376.744   -12608589.61549  -9196772.26846  23233376.378    23233385.080
       221.000         169.000
  21761063.023   -18083052.58849 -13810322.56847  21761062.040    21761070.702
       234.000         194.000
  21458937.387   -14079148.34549 -10681428.36247  21458937.467    21458944.521
       239.000         200.000
  23532568.638    -4062857.70849  -3150789.78845  23532568.202    23532576.531
       217.000         158.000
 00  2  4  1 10 30.0000000  0  7G24G 9G 5G 6G10G30G 4
  20839162.193   -21022888.32049 -15791442.33947  20839161.828    20839169.573
       246.000         212.000
  24364943.321    -2072867.75249  -1595929.54045  24364943.641    24364955.431
       208.000         151.000
  20227073.314   -28667317.68149 -22316495.66448  20227072.569    20227079.630
       248.000         220.000
  23220503.724   -12676237.31949  -9249484.62646  23220502.750    23220512.159
       224.000         170.000
  21746916.179   -18157394.46449 -13868251.21447  21746915.224    21746923.581
       235.000         194.000
  21446090.365   -14146659.55649 -10734034.42947  21446090.490    21446096.954
       239.000         201.000
  23550959.465    -3966212.99949  -3075482.21745  23550959.090    23550967.503
       215.000         156.000
 00  2  4  1 11  0.0000000  0  7G24G 9G 5G 6G10G30G 4
  20848964.926   -20971374.66149 -15751301.80847  20848964.532    20848972.402
       246.000         212.000
  24382220.705    -1982074.93549  -1525181.97145  24382220.410    24382231.500
       209.000         151.000
  20228732.113   -28658600.60149 -22309703.11848  20228731.531    20228738.559
       248.000         220.000
  23207642.593   -12743822.73049  -9302148.43946  23207641.624    23207650.624
       222.000         170.000
  21732851.168   -18231306.32649 -13925844.78747  21732850.161    21732858.748
       235.000         194.000
  21433329.925   -14213715.94849 -10786286.09547  21433330.154    21433336.665
       240.000         201.000
  23569361.538    -3869509.23649  -3000128.63845  23569362.420    23569369.795
       215.000         156.000
 00  2  4  1 11 30.0000000  0  7G24G 9G 5G 6G10G30G 4
  20858832.300   -20919521.34449 -15710896.61247  20858832.111    20858839.808
       246.000         212.000
  24399501.390    -1891265.41549  -1454421.37745  24399501.946    24399512.342
       209.000         151.000
  20230502.671   -28649296.06749 -22302452.81548  20230502.045    20230509.018
       248.000         220.000
  23194794.975   -12811336.84749  -9354756.69946  23194794.498    23194803.153
       223.000         171.000
  21718871.443   -18304770.06049 -13983089.17847  21718870.209    21718878.716
       235.000         194.000
  21420656.597   -14280314.56749 -10838181.05647  21420656.548    21420663.510
       239.000         201.000
  23587772.634    -3772757.90349  -2924737.97445  23587773.005    23587781.111
       215.000         156.000
 00  2  4  1 12  0.0000000  0  7G24G 9G 5G 6G10G30G 4
  20868761.942   -20867340.75249 -15670236.39647  20868761.657    20868769.315
       246.000         212.000
  24416781.696    -1800457.47849  -1383662.03145  24416781.534    24416792.730
       211.000         151.000
  20232374.554   -28639459.19149 -22294787.69648  20232373.949    20232380.805
       248.000         220.000
  23181958.419   -12878792.96049  -9407319.76046  23181957.655    23181966.554
       223.000         172.000
  21704975.319   -18377794.25249 -14039991.06147  21704974.229    21704982.727
       235.000         195.000
  21408069.614   -14346459.18049 -10889722.24147  21408069.792    21408076.486
       240.000         201.000
  23606191.088    -3675968.44249  -2849317.61545  23606190.364    23606198.761
       215.000         155.000
 00  2  4  1 12 30.0000000  0  7G24G 9G 5G 6G10G30G 4
  20878749.006   -20814857.97749 -15629340.70947  20878748.673    20878756.301
       247.000         212.000
  24434057.530    -1709671.92849  -1312920.12445  24434057.554    24434068.707
       210.000         151.000
  20234339.251   -28629134.57549 -22286742.52348  20234338.729    20234345.734
       249.000         220.000
  23169128.444   -12946214.05149  -9459855.53446  23169127.617    23169137.035
       224.000         172.000
  21691159.209   -18450397.99949 -14096565.32247  21691158.234    21691166.761
       237.000         195.000
  21395563.623   -14412178.47149 -10940932.00947  21395563.560    21395570.527
       241.000         201.000
  23624615.159    -3579149.15349  -2773873.99745  23624615.159    23624623.311
       216.000         154.000
 00  2  4  1 13  0.0000000  0  7G24G 9G 5G 6G10G30G 4
  20888787.259   -20762106.64449 -15588235.75747  20888787.014    20888794.656
       246.000         212.000
  24451325.605    -1618927.94949  -1242210.60345  24451325.390    24451337.159
       210.000         151.000
  20236392.540   -28618344.61349 -22278334.74148  20236391.708    20236398.767
       248.000         220.000
  23156299.301   -13013631.10049  -9512388.15446  23156298.538    23156307.819
       223.000         173.000
  21677422.586   -18522584.18549 -14152814.22347  21677421.563    21677430.036
       235.000         195.000
  21383128.818   -14477523.57149 -10991850.19747  21383128.828    21383135.622
       240.000         201.000
  23643043.334    -3482307.82549  -2698413.21545  23643044.001    23643051.568
       214.000         153.000
 00  2  4  1 13 30.0000000  0  7G24G 9G 5G 6G10G30G 4
  20898873.374   -20709103.91249 -15546934.90947  20898872.901    20898880.728
       247.000         211.000
  24468580.028    -1528255.63249  -1171556.92745  24468580.694    24468591.073
       211.000         150.000
  20238534.793   -28607086.71749 -22269562.33848  20238534.114    20238541.066
       250.000         220.000
  23143463.855   -13081081.25749  -9564946.58046  23143463.074    23143472.119
       224.000         173.000
  21663759.882   -18594381.94449 -14208760.44847  21663758.582    21663767.059
       237.000         195.000
  21370765.631   -14542492.26949 -11042475.08647  21370765.477    21370772.344
       241.000         202.000
  23661475.465    -3385446.08049  -2622936.51145  23661474.642    23661482.770
       216.000         153.000
 00  2  4  1 14  0.0000000  0  7G24G 9G 5G 6G10G30G 4
  20909008.582   -20655842.80449 -15505432.72947  20909008.105    20909016.004
       245.000         211.000
  24485817.745    -1437671.01649  -1100971.60045  24485817.052    24485828.651
       211.000         150.000
  20240769.612   -28595342.63849 -22260411.09248  20240768.947    20240775.948
       248.000         220.000
  23130623.126   -13148558.93749  -9617526.44846  23130622.333    23130631.220
       222.000         173.000
  21650170.474   -18665794.24949 -14264406.32547  21650169.559    21650177.928
       236.000         196.000
  21358476.874   -14607069.70849 -11092795.09947  21358476.924    21358483.543
       241.000         202.000
  23679913.553    -3288553.25149  -2547435.58845  23679912.927    23679921.418
       216.000         153.000
 00  2  4  1 14 30.0000000  0  7G24G 9G 5G 6G10G30G 4
  20919191.859   -20602329.09549 -15463733.71747  20919191.485    20919199.296
       247.000         211.000
  24503037.165    -1347182.37549  -1030461.04745  24503037.280    24503048.564
       211.000         149.000
  20243101.859   -28583086.68449 -22250860.98348  20243101.243    20243108.103
       250.000         220.000
  23117780.042   -13216049.27349  -9670116.17246  23117779.734    23117787.830
       224.000         173.000
  21636656.930   -18736808.34449 -14319741.90547  21636655.725    21636664.278
       238.000         196.000
  21346264.101   -14671248.09949 -11142804.16447  21346264.189    21346271.222
       242.000         202.000
  23698357.852    -3191627.69949  -2471909.15545  23698358.198    23698367.036
       218.000         153.000
 00  2  4  1 15  0.0000000  0  7G24G 9G 5G 6G10G30G 4
  20929424.448   -20548556.47649 -15421832.95547  20929424.331    20929431.850
       243.000         211.000
  24520238.422    -1256789.20749   -960024.88145  24520238.322    24520249.654
       211.000         149.000
  20245537.661   -28570286.16049 -22240886.53148  20245537.026    20245543.949
       248.000         220.000
  23104939.657   -13283525.58149  -9722694.97146  23104939.323    23104947.402
       223.000         174.000
  21623223.123   -18807403.13749 -14374750.75847  21623222.265    21623230.554
       236.000         196.000
  21334130.362   -14735011.10949 -11192489.55647  21334130.449    21334137.349
       240.000         203.000
  23716806.431    -3094679.88249  -2396365.39345  23716806.227    23716815.137
       217.000         153.000
 00  2  4  1 15 30.0000000  0  7G24G 9G 5G 6G10G30G 4
  20939710.071   -20494505.23149 -15379715.08047  20939709.581    20939717.246
       243.000         211.000
  24537425.786    -1166469.03649   -889645.59145  24537426.023    24537437.304
       214.000         149.000
  20248080.489   -28556923.38749 -22230473.96548  20248079.776    20248086.778
       248.000         220.000
  23092107.664   -13350957.70449  -9775239.36446  23092106.977    23092116.197
       222.000         174.000
  21609870.031   -18877573.79449 -14429429.11247  21609868.879    21609877.420
       236.000         196.000
  21322082.107   -14798324.70749 -11241824.75147  21322082.120    21322088.920
       241.000         203.000
  23735256.497    -2997724.15449  -2320815.45545  23735257.523    23735265.090
       217.000         154.000
 00  2  4  1 16  0.0000000  0  7G24G 9G 5G 6G10G30G 4
  20950049.576   -20440170.46149 -15337376.28147  20950049.513    20950057.024
       243.000         211.000
  24554602.300    -1076207.07949   -819311.65345  24554602.662    24554613.345
       214.000         150.000
  20250730.873   -28542995.47749 -22219621.03148  20250730.301    20250737.344
       248.000         220.000
  23079287.780   -13418325.93349  -9827733.95246  23079287.612    23079295.945
       225.000         174.000
  21596602.216   -18947296.37449 -14483758.31747  21596601.324    21596609.371
       236.000         197.000
  21310118.353   -14861194.29049 -11290813.96147  21310118.332    21310125.278
       241.000         203.000
  23753708.221    -2900759.99749  -2245258.93745  23753708.310    23753716.057
       217.000         155.000
 00  2  4  1 16 30.0000000  0  7G24G 9G 5G 6G10G30G 4
  20960444.185   -20385546.42749 -15294812.07747  20960443.737    20960451.420
       243.000         210.000
  24571770.387     -985988.60149   -749011.60245  24571769.888    24571781.783
       214.000         149.000
  20253492.561   -28528482.74249 -22208312.38848  20253491.899    20253498.804
       248.000         220.000
  23066480.393   -13485628.97249  -9880177.76146  23066479.878    23066488.378
       224.000         174.000
  21583420.984   -19016563.93749 -14537732.95447  21583420.229    21583428.368
       236.000         197.000
  21298236.966   -14923631.18949 -11339466.01647  21298236.957    21298243.672
       241.000         203.000
  23772160.211    -2803794.06849  -2169701.03545  23772160.386    23772168.126
       216.000         155.000
 00  2  4  1 17  0.0000000  0  7G24G 9G 5G 6G10G30G 4
  20970898.153   -20330610.29149 -15252004.68247  20970897.710    20970905.477
       243.000         210.000
  24588934.484     -895791.07749   -678727.89545  24588933.935    24588946.333
       212.000         150.000
  20256365.683   -28513384.45749 -22196547.47848  20256365.050    20256372.129
       248.000         220.000
  23053685.559   -13552865.85849  -9932570.02546  23053684.167    23053694.192
       225.000         174.000
  21570326.633   -19085374.76449 -14591351.69747  21570325.325    21570334.191
       236.000         197.000
  21286437.291   -14985638.89349 -11387783.64147  21286437.456    21286443.930
       241.000         204.000
  23790612.047    -2706829.03349  -2094143.84045  23790611.922    23790620.120
       217.000         154.000
 00  2  4  1 17 30.0000000  0  7G24G 9G 5G 6G10G30G 4
  20981412.068   -20275359.04349 -15208951.74047  20981411.731    20981419.476
       243.000         210.000
  24606095.826     -805607.84649   -608455.30645  24606095.285    24606106.515
       213.000         149.000
  20259347.828   -28497713.07449 -22184335.99348  20259347.296    20259354.330
       248.000         220.000
  23040902.139   -13620042.23849  -9984915.13546  23040901.286    23040910.180
       223.000         174.000
  21557318.507   -19153732.74949 -14644617.57947  21557317.270    21557325.618
       236.000         197.000
  21274719.941   -15047213.53249 -11435763.80447  21274720.008    21274726.548
       241.000         204.000
  23809067.484    -2609845.00349  -2018571.84345  23809067.116    23809076.115
       217.000         155.000
 00  2  4  1 18  0.0000000  0  7G24G 9G 5G 6G10G30G 4
  20991982.200   -20219812.33849 -15165668.57847  20991982.083    20991989.560
       243.000         210.000
  24623249.435     -715465.47649   -538214.56845  24623249.649    24623260.886
       216.000         148.000
  20262435.827   -28481485.39849 -22171691.03648  20262435.038    20262441.928
       248.000         220.000
  23028128.942   -13687165.09349 -10037218.54746  23028128.269    23028136.948
       225.000         175.000
  21544398.128   -19221629.26849 -14697523.87647  21544397.204    21544405.465
       237.000         198.000
  21263083.254   -15108364.38649 -11483413.75047  21263083.084    21263089.944
       241.000         204.000
  23827527.313    -2512838.06549  -1942981.99245  23827527.196    23827535.019
       216.000         156.000
 00  2  4  1 18 30.0000000  0  7G24G 9G 5G 6G10G30G 4
  21002604.878   -20163990.02349 -15122170.65247  21002604.719    21002612.296
       244.000         210.000
  24640392.853     -625376.56849   -468015.46745  24640393.191    24640403.897
       213.000         148.000
  20265625.418   -28464724.02949 -22158630.21248  20265624.860    20265631.695
       249.000         220.000
  23015364.812   -13754240.46249 -10089484.95346  23015364.964    23015372.554
       227.000         175.000
  21531564.296   -19289071.39949 -14750076.10447  21531563.359    21531571.394
       238.000         198.000
  21251529.336   -15169080.43049 -11530724.87747  21251529.472    21251536.035
       242.000         204.000
  23845989.028    -2415821.17649  -1867384.38945  23845988.835    23845997.728
       218.000         157.000
 00  2  4  1 19  0.0000000  0  7G24G 9G 5G 6G10G30G 4
  21013275.054   -20107917.78149 -15078477.98347  21013274.633    21013282.395
       243.000         209.000
  24657520.428     -535371.30549   -397881.54445  24657520.034    24657531.726
       215.000         148.000
  20268911.083   -28447457.61549 -22145175.85648  20268910.435    20268917.387
       249.000         220.000
  23002606.901   -13821283.09149 -10141725.84946  23002606.007    23002614.901
       225.000         175.000
  21518816.393   -19356061.69249 -14802276.25347  21518815.014    21518823.708
       238.000         198.000
  21240059.999   -15229351.86249 -11577689.56347  21240060.072    21240066.575
       242.000         204.000
  23864453.648    -2318788.78149  -1791774.70345  23864453.263    23864462.455
       218.000         157.000
 00  2  4  1 19 30.0000000  0  7G24G 9G 5G 6G10G30G 4
  21023987.052   -20051625.93149 -15034614.18547  21023986.727    21023994.457
       245.000         209.000
  24674624.920     -445486.55849   -327841.51745  24674624.543    24674636.720
       214.000         148.000
  20272291.868   -28429691.38249 -22131332.02348  20272291.285    20272298.222
       250.000         220.000
  22989852.319   -13888308.38449 -10193953.23246  22989851.247    22989860.105
       227.000         176.000
  21506153.337   -19422605.98349 -14854128.86347  21506152.291    21506160.496
       239.000         198.000
  21228676.248   -15289173.58149 -11624303.81847  21228676.023    21228682.606
       243.000         204.000
  23882920.827    -2221742.96249  -1716154.55345  23882921.198    23882928.917
       218.000         156.000
 00  2  4  1 20  0.0000000  0  7G24G 9G 5G 6G10G30G 4
  21034740.692   -19995115.12149 -14990579.77847  21034740.162    21034747.821
       243.000         209.000
  24691705.666     -355726.60049   -257898.74345  24691705.428    24691717.111
       214.000         148.000
  20275769.996   -28411413.61749 -22117089.60048  20275769.237    20275776.305
       248.000         220.000
  22977099.937   -13955322.23349 -10246171.70946  22977100.085    22977108.344
       226.000         177.000
  21493576.422   -19488697.84549 -14905628.93747  21493575.307    21493583.680
       238.000         199.000
  21217377.379   -15348548.96049 -11670570.28247  21217377.295    21217383.983
       242.000         204.000
  23901387.835    -2124698.09349  -1640535.14045  23901387.844    23901396.281
       217.000         156.000
 00  2  4  1 20 30.0000000  0  7G24G 9G 5G 6G10G30G 4
  21045539.804   -19938365.12349 -14946358.98447  21045539.676    21045547.104
       242.000         209.000
  24708764.249     -266083.23649   -188046.83445  24708764.548    24708775.278
       212.000         147.000
  20279348.231   -28392609.79949 -22102437.26848  20279347.590    20279354.668
       248.000         220.000
  22964350.935   -14022318.08849 -10298376.16446  22964350.871    22964358.977
       225.000         177.000
  21481084.932   -19554340.73349 -14956779.16447  21481083.885    21481092.044
       237.000         199.000
  21206164.187   -15407474.55249 -11716486.26347  21206164.278    21206170.837
       241.000         205.000
  23919855.459    -2027650.02249  -1564913.24445  23919855.898    23919863.752
       217.000         156.000
 00  2  4  1 21  0.0000000  0  7G24G 9G 5G 6G10G30G 4
  21056388.213   -19881356.30549 -14901936.51647  21056387.906    21056395.674
       242.000         209.000
  24725801.579     -176552.45849   -118282.65245  24725800.974    24725813.029
       211.000         144.000
  20283031.300   -28373255.11149 -22087355.68248  20283030.660    20283037.572
       248.000         220.000
  22951605.911   -14089293.66349 -10350564.81346  22951605.734    22951615.022
       225.000         177.000
  21468680.595   -19619525.44649 -15007572.37047  21468679.822    21468687.714
       238.000         199.000
  21195035.710   -15465954.73349 -11762055.17147  21195035.922    21195042.331
       242.000         205.000
  23938324.914    -1930592.62949  -1489284.06945  23938325.782    23938332.716
       215.000         156.000
 00  2  4  1 21 30.0000000  0  7G24G 9G 5G 6G10G30G 4
  21067289.889   -19824067.48749 -14857295.86347  21067289.529    21067297.023
       243.000         209.000
  24742822.818      -87105.30149    -48583.62445  24742822.291    24742833.122
       211.000         143.000
  20286821.753   -28353336.15449 -22071834.40848  20286821.026    20286828.016
       249.000         220.000
  22938868.085   -14156231.41149 -10402723.99146  22938867.433    22938876.418
       226.000         178.000
  21456367.021   -19684233.49149 -15057994.14547  21456365.877    21456374.052
       238.000         199.000
  21183991.946   -15523989.90849 -11807277.32747  21183991.838    21183998.492
       243.000         205.000
  23956795.084    -1833531.21049  -1413651.77145  23956795.336    23956803.673
       217.000         156.000
 00  2  4  1 22  0.0000000  0  7G24G 9G 5G 6G10G30G 4
  21078246.425   -19766490.23349 -14812430.45447  21078245.954    21078253.469
       243.000         209.000
  24759832.369        2280.38549     21067.52645  24759830.476    24759842.884
       213.000         144.000
  20290717.529   -28332863.48949 -22055881.67348  20290716.979    20290723.828
       248.000         220.000
  22926137.489   -14223130.98849 -10454853.43746  22926137.106    22926145.582
       226.000         178.000
  21444146.028   -19748454.85049 -15108036.68547  21444144.897    21444153.278
       237.000         199.000
  21173031.707   -15581585.91949 -11852157.26747  21173031.755    21173037.944
       242.000         205.000
  23975264.980    -1736471.08349  -1338020.47745  23975264.949    23975273.988
       214.000         156.000
 00  2  4  1 22 30.0000000  0  7G24G 9G 5G 6G10G30G 4
  21089257.571   -19708626.14849 -14767341.53647  21089257.361    21089264.734
       243.000         208.000
  24776826.319       91583.94349     90654.66345  24776825.531    24776837.175
       211.000         145.000
  20294715.779   -28311852.69849 -22039509.62148  20294715.191    20294722.150
       249.000         220.000
  22913414.210   -14289991.72949 -10506952.62546  22913413.194    22913421.540
       227.000         178.000
  21432017.833   -19812188.69449 -15157699.34547  21432016.704    21432024.665
       239.000         200.000
  21162156.242   -15638736.67349 -11896690.26347  21162156.214    21162163.019
       243.000         206.000
  23993734.891    -1639410.78249  -1262389.04045  23993734.833    23993742.635
       213.000         155.000
 00  2  4  1 23  0.0000000  0  7G24G 9G 5G 6G10G30G 4
  21100319.474   -19650495.77549 -14722045.12547  21100319.133    21100326.718
       242.000         208.000
  24793804.073      180802.79649    160175.81245  24793804.396    24793817.252
       210.000         145.000
  20298815.272   -28290309.76549 -22022722.91748  20298814.703    20298821.575
       248.000         220.000
  22900697.126   -14356819.87649 -10559026.42546  22900696.778    22900705.365
       226.000         178.000
  21419982.651   -19875433.73049 -15206981.11847  21419981.505    21419989.668
       238.000         200.000
  21151366.795   -15695435.44349 -11940871.06547  21151366.953    21151373.185
       242.000         206.000
  24012204.518    -1542351.98049  -1186758.78145  24012203.637    24012213.045
       213.000         153.000
 00  2  4  1 23 30.0000000  0  7G24G 9G 5G 6G10G30G 4
  21111429.032   -19592114.63149 -14676553.30647  21111428.602    21111436.118
       242.000         208.000
  24810764.887      269932.31749    229627.33845  24810764.255    24810777.487
       210.000         145.000
  20303013.256   -28268249.02449 -22005532.72148  20303012.577    20303019.577
       248.000         220.000
  22887986.320   -14423615.21749 -10611074.66746  22887985.877    22887994.351
       226.000         178.000
  21408038.553   -19938200.12749 -15255889.92647  21408037.444    21408045.776
       238.000         200.000
  21140662.627   -15751685.93649 -11984702.56447  21140662.594    21140669.251
       242.000         206.000
  24030672.438    -1445302.36549  -1111135.68645  24030672.831    24030680.581
       211.000         152.000
 00  2  4  1 24  0.0000000  0  7G24G 9G 5G 6G10G30G 4
  21122584.230   -19533493.61449 -14630874.57147  21122583.670    21122591.335
       245.000         208.000
  24827702.933      358941.87549    298985.36745  24827702.679    24827714.746
       211.000         144.000
  20307311.177   -28245663.37449 -21987933.50048  20307310.342    20307317.420
       249.000         220.000
  22875282.321   -14490374.94149 -10663095.14246  22875281.722    22875289.802
       227.000         178.000
  21396182.550   -20000503.64649 -15304438.04947  21396181.252    21396189.397
       240.000         200.000
  21130044.989   -15807481.85349 -12028179.84047  21130044.724    21130051.368
       244.000         206.000
  24049138.062    -1348264.79949  -1035521.96145  24049137.529    24049146.989
       211.000         152.000
 00  2  4  1 24 30.0000000  0  7G24G 9G 5G 6G10G30G 4
  21133782.793   -19474644.74149 -14585018.28747  21133782.387    21133789.820
       243.000         208.000
  24844618.184      447831.97449    368250.33945  24844617.419    24844629.541
       209.000         145.000
  20311712.897   -28222532.14249 -21969909.15448  20311712.134    20311719.083
       248.000         220.000
  22862590.157   -14557072.21849 -10715066.96446  22862589.708    22862597.944
       226.000         179.000
  21384414.241   -20062346.18749 -15352626.97147  21384413.049    21384420.975
       238.000         200.000
  21119516.016   -15862811.76449 -12071294.00047  21119515.803    21119522.536
       242.000         206.000
  24067601.267    -1251239.47449   -959917.78745  24067600.727    24067609.278
       208.000         150.000
 00  2  4  1 25  0.0000000  0  7G24G 9G 5G 6G10G30G 4
  21145022.544   -19415579.41349 -14538993.34447  21145022.356    21145029.829
       242.000         208.000
  24861514.534      536623.12749    437438.20545  24861514.771    24861525.071
       210.000         145.000
  20316220.012   -28198847.07149 -21951453.25548  20316219.394    20316226.319
       248.000         220.000
  22849910.748   -14623702.41549 -10766986.52846  22849910.046    22849918.981
       226.000         179.000
  21372734.191   -20123725.14049 -15400454.66547  21372733.105    21372741.154
       237.000         201.000
  21109074.911   -15917680.03049 -12114048.44447  21109074.812    21109081.577
       242.000         206.000
  24086061.775    -1154228.49149   -884324.78145  24086061.017    24086070.583
       209.000         149.000
 00  2  4  1 25 30.0000000  0  7G24G 9G 5G 6G10G30G 4
  21156304.958   -19356289.84349 -14492793.65847  21156304.655    21156312.118
       242.000         208.000
  24878390.438      625306.98049    506542.43745  24878390.539    24878401.793
       205.000         144.000
  20320832.494   -28174608.27749 -21932565.87448  20320832.001    20320838.716
       248.000         220.000
  22837243.310   -14690270.13249 -10818857.39546  22837242.916    22837250.899
       227.000         179.000
  21361143.201   -20184635.92449 -15447917.54947  21361142.139    21361150.179
       238.000         201.000
  21098720.698   -15972091.56549 -12156446.98947  21098720.760    21098727.104
       242.000         206.000
  24104518.301    -1057237.78949   -808747.59145  24104518.309    24104527.133
       207.000         148.000
 00  2  4  1 26  0.0000000  0  7G24G 9G 5G 6G10G30G 4
  21167630.840   -19296771.91349 -14446416.03447  21167630.634    21167637.995
       243.000         208.000
  24895245.090      713879.00049    575559.53745  24895245.620    24895256.849
       205.000         143.000
  20325549.537   -28149819.75249 -21913250.13248  20325548.935    20325555.826
       248.000         220.000
  22824588.255   -14756772.88749 -10870677.65446  22824587.807    22824596.347
       227.000         179.000
  21349642.891   -20245070.08849 -15495009.04347  21349641.801    21349649.876
       238.000         201.000
  21088454.849   -16026038.60649 -12198483.59147  21088454.996    21088461.024
       242.000         206.000
  24122970.955     -960268.21149   -733186.85745  24122971.344    24122979.265
       207.000         147.000
 00  2  4  1 26 30.0000000  0  7G24G 9G 5G 6G10G30G 4
  21179000.921   -19237021.61449 -14399857.34847  21179000.713    21179008.094
       243.000         207.000
  24912080.692      802350.38249    644498.22245  24912081.155    24912091.202
       204.000         144.000
  20330369.299   -28124491.90949 -21893514.14448  20330368.729    20330375.610
       248.000         220.000
  22811943.186   -14823222.70449 -10922456.65946  22811943.100    22811950.615
       226.000         180.000
  21338233.717   -20305025.55949 -15541727.52747  21338232.539    21338240.685
       239.000         201.000
  21078277.623   -16079520.03249 -12240157.37847  21078277.552    21078283.945
       242.000         207.000
  24141420.347     -863316.04949   -657639.68145  24141420.662    24141429.035
       208.000         146.000
 00  2  4  1 27  0.0000000  0  7G24G 9G 5G 6G10G30G 4
  21190418.142   -19177023.68649 -14353105.70147  21190417.949    21190425.251
       242.000         207.000
  24928893.425      890701.02649    713342.81745  24928893.606    24928904.862
       206.000         146.000
  20335289.226   -28098637.67849 -21873367.98348  20335288.653    20335295.612
       248.000         220.000
  22799302.987   -14889647.17849 -10974215.89646  22799302.651    22799310.668
       226.000         180.000
  21326916.473   -20364497.68449 -15588069.38447  21326915.194    21326923.116
       238.000         201.000
  21068190.315   -16132528.78049 -12281462.84347  21068190.285    21068196.825
       242.000         207.000
  24159866.694     -766379.99249   -582105.05745  24159867.012    24159874.021
       210.000         145.000
 00  2  4  1 27 30.0000000  0  7G24G 9G 5G 6G10G30G 4
  21201884.149   -19116769.47449 -14306154.35347  21201883.871    21201891.209
       245.000         207.000
  24945681.685      978923.94749    782087.88745  24945681.564    24945693.147
       202.000         144.000
  20340310.863   -28072248.67249 -21852805.11248  20340310.146    20340317.150
       250.000         220.000
  22786667.990   -14956044.01049 -11025953.60046  22786667.358    22786675.557
       228.000         179.000
  21315691.606   -20423484.22049 -15634032.85447  21315690.425    21315698.372
       240.000         201.000
  21058196.745   -16185045.11049 -12322384.60447  21058196.734    21058203.122
       245.000         207.000
  24178309.863     -669460.39549   -506583.27145  24178309.794    24178318.582
       210.000         144.000
 00  2  4  1 28  0.0000000  0  7G24G 9G 5G 6G10G30G 4
  21213398.167   -19056262.99049 -14259006.43547  21213397.880    21213405.321
       243.000         207.000
  24962446.895     1067026.22749    850738.95445  24962446.648    24962458.439
       203.000         143.000
  20345435.421   -28045318.85149 -21831820.83948  20345434.829    20345441.776
       248.000         220.000
  22774039.545   -15022406.37749 -11077664.44746  22774038.931    22774047.074
       226.000         179.000
  21304561.484   -20481973.06649 -15679608.52647  21304560.510    21304568.176
       239.000         201.000
  21048299.728   -16237054.08249 -12362911.02747  21048299.625    21048306.166
       243.000         207.000
  24196751.911     -572547.08649   -431066.38845  24196751.947    24196760.595
       212.000         145.000
 00  2  4  1 28 30.0000000  0  7G24G 9G 5G 6G10G30G 4
  21224958.026   -18995515.56749 -14211670.75847  21224957.398    21224965.238
       243.000         207.000
  24979188.793     1155005.04949    919293.79745  24979188.737    24979201.425
       197.000         142.000
  20350664.748   -28017838.55949 -21810407.61548  20350663.899    20350670.912
       248.000         220.000
  22761416.533   -15088740.33149 -11129353.13646  22761416.199    22761424.008
       228.000         180.000
  21293527.839   -20539954.94049 -15724789.14547  21293526.618    21293534.645
       240.000         202.000
  21038500.163   -16288550.96649 -12403038.41047  21038500.010    21038506.395
       244.000         207.000
  24215192.313     -475642.01749   -355555.90845  24215192.091    24215200.128
       208.000         145.000
 00  2  4  1 29  0.0000000  0  6G24G 5G 6G10G30G 4
  21236563.669   -18934527.55249 -14164147.62147  21236563.203    21236570.743
       242.000         207.000
  20356000.718   -27989797.71849 -21788557.60648  20356000.024    20356006.915
       248.000         219.000
  22748800.316   -15155038.69349 -11181014.09946  22748800.063    22748808.247
       228.000         180.000
  21282595.926   -20597402.36849 -15769553.31647  21282594.686    21282602.451
       239.000         202.000
  21028799.002   -16339530.91249 -12442762.99847  21028799.055    21028805.421
       243.000         207.000
  24233629.795     -378752.54049   -280057.58045  24233630.077    24233637.869
       209.000         146.000
 00  2  4  1 29 30.0000000  0  6G24G 5G 6G10G30G 4
  21248213.970   -18873304.71249 -14116441.49547  21248213.558    21248220.846
       243.000         206.000
  20361442.902   -27961198.63649 -21766272.60048  20361442.277    20361449.090
       249.000         219.000
  22736192.544   -15221292.75149 -11232640.53046  22736192.082    22736199.966
       228.000         181.000
  21271766.265   -20654312.41049 -15813898.74147  21271765.493    21271773.249
       240.000         202.000
  21019194.570   -16390002.24649 -12482091.26147  21019194.604    21019200.876
       244.000         208.000
  24252064.362     -281878.16449   -204571.03145  24252064.315    24252072.631
       208.000         145.000
 00  2  4  1 30  0.0000000  0  6G24G 5G 6G10G30G 4
  21259906.771   -18811858.49949 -14068561.30747  21259906.153    21259913.667
       242.000         206.000
  20366986.761   -27932065.47149 -21743571.42148  20366985.949    20366992.982
       248.000         219.000
  22723593.253   -15287502.17149 -11284232.15746  22723592.494    22723600.656
       228.000         181.000
  21261039.774   -20710680.45249 -15857821.81847  21261038.649    21261046.579
       240.000         203.000
  21009681.190   -16439995.27749 -12521046.80647  21009680.901    21009687.367
       244.000         208.000
  24270494.198     -185028.58949   -129103.79445  24270493.457    24270502.340
       211.000         144.000
 00  2  4  1 30 30.0000000  0  6G24G 5G 6G10G30G 4
  21271638.877   -18750205.42549 -14020519.93747  21271638.471    21271645.977
       242.000         206.000
  20372629.249   -27902413.91149 -21720466.30748  20372628.493    20372635.560
       248.000         219.000
  22711001.132   -15353673.85349 -11335794.39446  22711000.402    22711008.705
       229.000         182.000
  21250413.483   -20766521.89649 -15901334.56747  21250412.386    21250420.220
       240.000         203.000
  21000254.751   -16489531.25449 -12559646.21547  21000254.706    21000260.988
       244.000         208.000
  24288915.159      -88225.38549    -53672.68745  24288914.744    24288923.562
       209.000         143.000
 00  2  4  1 31  0.0000000  0  6G24G 5G 6G10G30G 4
  21283411.095   -18688341.94649 -13972314.61547  21283410.631    21283418.207
       243.000         206.000
  20378368.027   -27872256.44249 -21696966.97748  20378367.270    20378374.194
       249.000         219.000
  22698417.570   -15419800.56349 -11387321.58546  22698416.763    22698425.072
       229.000         182.000
  21239883.195   -20821858.73249 -15944454.12047  21239882.146    21239890.124
       241.000         203.000
  20990913.033   -16538622.13049 -12597898.79247  20990913.233    20990919.292
       245.000         208.000
  24307328.558        8538.13249     21727.50145  24307328.357    24307336.798
       213.000         143.000
 00  2  4  1 31 30.0000000  0  6G24G 5G 6G10G30G 4
  21295222.178   -18626274.19449 -13923950.11747  21295221.885    21295229.117
       241.000         205.000
  20384200.909   -27841604.40249 -21673082.27248  20384200.302    20384207.282
       247.000         219.000
  22685844.683   -15485870.85549 -11438804.80546  22685844.517    22685852.074
       228.000         182.000
  21229445.254   -20876709.95249 -15987195.26347  21229444.272    21229451.998
       239.000         203.000
  20981656.432   -16587265.77749 -12635802.87747  20981656.781    20981662.736
       245.000         208.000
  24325736.883      105274.28049     97106.36645  24325737.113    24325745.401
       212.000         144.000
 00  2  4  1 32  0.0000000  0  6G24G 5G 6G10G30G 4
  21307068.218   -18564022.69249 -13875442.43647  21307067.914    21307075.335
       242.000         205.000
  20390128.946   -27810452.48049 -21648808.04648  20390128.398    20390135.339
       248.000         219.000
  22673282.074   -15551887.51349 -11490246.24446  22673281.114    22673289.003
       229.000         182.000
  21219100.052   -20931074.28249 -16029557.00547  21219098.854    21219106.997
       240.000         203.000
  20972486.794   -16635452.56849 -12673350.96747  20972486.730    20972492.829
       245.000         209.000
  24344138.057      201973.16749    172456.19445  24344137.624    24344146.357
       211.000         143.000
 00  2  4  1 32 30.0000000  0  6G24G 5G 6G10G30G 4
  21318949.211   -18501587.62649 -13826791.71147  21318949.169    21318956.573
       241.000         205.000
  20396156.687   -27778776.46449 -21624125.43248  20396156.205    20396163.035
       247.000         219.000
  22660729.287   -15617852.31749 -11541647.27246  22660728.954    22660736.949
       228.000         182.000
  21208846.535   -20984956.59349 -16071543.14547  21208845.772    21208853.403
       239.000         203.000
  20963409.874   -16683151.74249 -12710519.09747  20963409.883    20963416.302
       245.000         209.000
  24362533.560      298642.31549    247782.86145  24362534.628    24362542.044
       211.000         143.000
 00  2  4  1 33  0.0000000  0  6G24G 5G 6G10G30G 4
  21330866.698   -18438960.97249 -13777991.70247  21330866.368    21330873.849
       241.000         205.000
  20402284.555   -27746574.44549 -21599032.94548  20402284.023    20402290.854
       247.000         219.000
  22648185.262   -15683771.16249 -11593012.48846  22648184.498    22648192.678
       228.000         182.000
  21198687.952   -21038340.11649 -16113140.62647  21198686.735    21198694.767
       239.000         204.000
  20954430.732   -16730337.15349 -12747286.89947  20954430.680    20954436.906
       245.000         209.000
  24380924.262      395286.31049    323089.91945  24380923.748    24380932.120
       211.000         143.000
 00  2  4  1 33 30.0000000  0  6G24G 5G 6G10G30G 4
  21342819.722   -18376147.18449 -13729045.86447  21342819.154    21342826.700
       241.000         204.000
  20408513.671   -27713840.15849 -21573525.70148  20408512.751    20408519.883
       248.000         219.000
  22635646.438   -15749662.57549 -11644356.33246  22635645.139    22635653.359
       229.000         182.000
  21188630.020   -21091194.54749 -16154325.81847  21188628.907    21188636.707
       240.000         204.000
  20945551.782   -16776996.11949 -12783644.47347  20945551.576    20945557.973
       246.000         209.000
  24399307.846      491892.88449    398367.83645  24399308.100    24399315.514
       209.000         143.000
 00  2  4  1 34  0.0000000  0  6G24G 5G 6G10G30G 4
  21354808.898   -18313143.38749 -13679951.98247  21354808.574    21354816.203
       241.000         204.000
  20414848.005   -27680553.07749 -21547587.71848  20414847.185    20414854.226
       247.000         218.000
  22623113.968   -15815520.70749 -11695674.25146  22623113.454    22623121.418
       228.000         182.000
  21178676.167   -21143502.10949 -16195084.89047  21178674.868    21178682.750
       240.000         204.000
  20936774.332   -16823121.63649 -12819586.38147  20936774.073    20936780.405
       244.000         209.000
  24417682.682      588453.22649    473609.74645  24417681.961    24417689.948
       212.000         142.000
 00  2  4  1 34 30.0000000  0  6G24G 5G 6G10G30G 4
  21366839.450   -18249922.43849 -13630688.89347  21366839.155    21366846.647
       241.000         204.000
  20421286.214   -27646719.83249 -21521224.15948  20421285.678    20421292.599
       247.000         218.000
  22610588.018   -15881344.58849 -11746965.47946  22610587.406    22610595.201
       228.000         182.000
  21168827.181   -21195258.64949 -16235414.59947  21168825.997    21168833.905
       240.000         204.000
  20928097.737   -16868717.19649 -12855115.34747  20928097.899    20928104.069
       245.000         209.000
  24436048.750      684967.66849    548815.89145  24436049.405    24436057.020
       212.000         141.000
 00  2  4  1 35  0.0000000  0  6G24G 5G 6G10G30G 4
  21378913.631   -18186472.08549 -13581247.04247  21378913.176    21378920.774
       240.000         203.000
  20427826.019   -27612352.94249 -21494444.76248  20427825.441    20427832.248
       247.000         218.000
  22598066.975   -15947142.50249 -11798236.48146  22598066.514    22598074.012
       228.000         182.000
  21159082.467   -21246467.13349 -16275317.24247  21159081.483    21159089.198
       240.000         204.000
  20919520.039   -16913793.00049 -12890239.30347  20919520.028    20919526.353
       245.000         209.000
  24454406.038      781435.64849    623985.79645  24454405.278    24454414.411
       210.000         141.000
 00  2  4  1 35 30.0000000  0  6G24G 5G 6G10G30G 4
  21391030.270   -18122798.45749 -13531631.21747  21391030.128    21391037.504
       240.000         203.000
  20434468.132   -27577448.45049 -21467246.45448  20434467.612    20434474.565
       247.000         218.000
  22585554.471   -16012895.68249 -11849472.62746  22585553.866    22585561.325
       228.000         183.000
  21149440.468   -21297135.82849 -16314799.27947  21149439.678    21149447.151
       240.000         205.000
  20911038.817   -16958361.96649 -12924968.32647  20911038.929    20911045.172
       244.000         209.000
  24472753.718      877853.71249    699116.81645  24472752.336    24472761.790
       211.000         141.000
 00  2  4  1 36  0.0000000  0  7G24G 5G 6G17G10G30G 4
  21403187.274   -18058912.92049 -13481850.26347  21403186.922    21403194.322
       240.000         203.000
  20441212.618   -27542005.83849 -21439628.82848  20441211.893    20441218.972
       247.000         218.000
  22573052.485   -16078593.57849 -11900665.69846  22573051.921    22573059.908
       229.000         183.000
  25074578.465    -3216986.51749  -2483699.02145  25074577.421    25074588.566
       212.000         145.000
  21139899.188   -21347275.35449 -16353868.97147  21139898.063    21139905.723
       240.000         205.000
  20902654.319   -17002422.64749 -12959301.27847  20902654.393    20902660.530
       244.000         209.000
  24491092.787      974227.41849    774213.27645  24491092.200    24491101.249
       213.000         141.000
 00  2  4  1 36 30.0000000  0  7G24G 5G 6G17G10G30G 4
  21415385.894   -17994808.50349 -13431898.75747  21415385.687    21415393.221
       242.000         203.000
  20448058.271   -27506031.66449 -21411597.00348  20448057.774    20448064.709
       249.000         218.000
  22560560.829   -16144237.26549 -11951816.53046  22560560.079    22560567.603
       230.000         184.000
  25057264.651    -3307970.41649  -2554595.32945  25057263.747    25057273.411
       209.000         144.000
  21130458.344   -21396887.08649 -16392527.39747  21130457.359    21130464.970
       242.000         205.000
  20894367.575   -17045969.61149 -12993233.93847  20894367.590    20894373.826
       247.000         209.000
  24509425.281     1070565.75149    849282.17945  24509425.798    24509433.426
       212.000         141.000
 00  2  4  1 37  0.0000000  0  7G24G 5G 6G17G10G30G 4
  21427621.055   -17930512.41749 -13381797.90247  21427621.027    21427628.361
       240.000         203.000
  20455005.037   -27469526.17049 -21383151.17348  20455004.475    20455011.493
       247.000         218.000
  22548082.099   -16209813.04749 -12002914.45646  22548081.458    22548089.470
       229.000         184.000
  25039972.646    -3398839.76149  -2625402.38845  25039970.729    25039982.834
       204.000         144.000
  21121118.753   -21445966.52849 -16430771.06247  21121117.894    21121125.568
       240.000         205.000
  20886179.908   -17088996.04449 -13026760.99647  20886180.078    20886186.187
       245.000         209.000
  24527753.333     1166880.14249    924332.43145  24527753.849    24527761.216
       210.000         142.000
 00  2  4  1 37 30.0000000  0  7G24G 5G 6G17G10G30G 4
  21439888.461   -17866046.96849 -13331565.07247  21439888.084    21439895.651
       240.000         202.000
  20462052.479   -27432491.57949 -21354293.05248  20462051.786    20462058.874
       247.000         218.000
  22535618.529   -16275309.09149 -12053950.24846  22535617.766    22535625.175
       228.000         184.000
  25022701.268    -3489600.78349  -2696125.00645  25022700.285    25022711.677
       202.000         143.000
  21111883.366   -21494498.73849 -16468588.30247  21111882.398    21111889.963
       240.000         205.000
  20878090.005   -17131508.49649 -13059887.54447  20878089.819    20878095.991
       244.000         209.000
  24546074.092     1263156.41349    999352.96345  24546074.706    24546081.965
       211.000         142.000
 00  2  4  1 38  0.0000000  0  7G24G 5G 6G17G10G30G 4
  21452188.401   -17801410.31249 -13281198.83447  21452187.909    21452195.576
       240.000         202.000
  20469200.308   -27394929.49549 -21325023.89548  20469199.348    20469206.559
       247.000         218.000
  22523168.563   -16340733.61249 -12104930.30646  22523168.555    22523175.365
       229.000         184.000
  25005451.882    -3580246.32549  -2766757.62845  25005451.156    25005461.979
       201.000         143.000
  21102752.924   -21542479.35049 -16505975.72847  21102751.889    21102759.385
       240.000         205.000
  20870098.065   -17173506.21449 -13092613.00247  20870097.802    20870104.419
       245.000         210.000
  24564387.432     1359393.30849   1074342.82745  24564387.948    24564395.332
       212.000         141.000
 00  2  4  1 38 30.0000000  0  7G24G 5G 6G17G10G30G 4
  21464529.922   -17736555.08249 -13230662.28447  21464529.406    21464536.974
       240.000         202.000
  20476455.438   -27356803.54749 -21295315.37248  20476454.805    20476461.728
       247.000         218.000
  22510737.849   -16406057.24749 -12155831.76446  22510737.421    22510744.802
       229.000         185.000
  24988234.904    -3670720.72249  -2837256.85945  24988233.656    24988244.978
       201.000         142.000
  21093735.465   -21589866.00049 -16542900.33847  21093734.461    21093742.077
       240.000         206.000
  20862210.601   -17214954.95749 -13124910.69247  20862210.682    20862216.834
       244.000         210.000
  24582698.734     1455619.86849   1149324.63845  24582698.492    24582705.662
       206.000         139.000
 00  2  4  1 39  0.0000000  0  7G24G 5G 6G17G10G30G 4
  21476902.917   -17671534.38149 -13179996.79247  21476902.530    21476910.158
       239.000         202.000
  20483808.841   -27318161.01549 -21265204.30348  20483808.115    20483815.173
       247.000         217.000
  22498313.853   -16471345.83749 -12206705.90846  22498313.901    22498320.612
       231.000         185.000
  24971044.181    -3761057.83049  -2907649.13445  24971042.687    24971054.477
       199.000         140.000
  21084823.065   -21636700.64749 -16579394.80347  21084822.051    21084829.642
       241.000         206.000
  20854417.410   -17255908.47449 -13156822.48847  20854417.277    20854423.522
       245.000         210.000
  24600997.387     1551780.59949   1224255.12745  24600996.834    24601004.181
       209.000         138.000
 00  2  4  1 39 30.0000000  0  7G24G 5G 6G17G10G30G 4
  21489308.076   -17606344.77649 -13129199.68847  21489308.062    21489315.275
       239.000         202.000
  20491260.216   -27279003.82749 -21234692.21448  20491259.696    20491266.476
       247.000         217.000
  22485891.910   -16536623.27849 -12257571.36546  22485891.401    22485898.833
       231.000         186.000
  24953879.373    -3851257.63249  -2977934.37445  24953877.050    24953889.756
       196.000         139.000
  21076014.004   -21682992.46849 -16615466.29947  21076013.070    21076020.564
       241.000         206.000
  20846716.061   -17296379.05649 -13188357.97847  20846716.449    20846722.195
       245.000         210.000
  24619278.625     1647849.99649   1299114.46545  24619278.598    24619287.922
       209.000         139.000
 00  2  4  1 40  0.0000000  0  6G24G 5G 6G17G10G30
  21501748.760   -17540968.64649 -13078257.23447  21501748.609    21501755.763
       240.000         201.000
  20498811.217   -27239323.10649 -21203772.17148  20498810.689    20498817.596
       247.000         217.000
  22473472.995   -16601884.85749 -12308424.46546  22473472.529    22473480.381
       231.000         186.000
  24936741.973    -3941313.82349  -3048107.74145  24936739.954    24936752.783
       199.000         138.000
  21067308.083   -21728742.15549 -16651115.34747  21067307.037    21067314.736
       241.000         206.000
  20839111.179   -17336342.84749 -13219498.56247  20839111.313    20839117.500
       244.000         210.000
 00  2  4  1 40 30.0000000  0  6G24G 5G 6G17G10G30
  21514227.734   -17475391.30149 -13027157.99147  21514227.350    21514234.859
       239.000         201.000
  20506463.338   -27199110.91449 -21172437.99548  20506462.681    20506469.537
       246.000         217.000
  22461059.859   -16667116.06649 -12359253.90446  22461059.322    22461066.741
       231.000         186.000
  24919632.163    -4031225.50349  -3118168.48945  24919630.499    24919641.404
       200.000         138.000
  21058706.337   -21773944.38949 -16686337.80747  21058705.482    21058712.810
       241.000         206.000
  20831604.749   -17375789.13549 -13250235.89847  20831604.840    20831610.780
       245.000         210.000
 00  2  4  1 41  0.0000000  0  6G24G 5G 6G17G10G30
  21526744.911   -17409612.96349 -12975902.12547  21526744.465    21526752.138
       239.000         201.000
  20514216.506   -27158367.77149 -21140690.09348  20514215.944    20514222.850
       246.000         217.000
  22448658.157   -16732286.77049 -12410036.18546  22448657.508    22448665.293
       231.000         186.000
  24902548.748    -4120998.63449  -3188121.27245  24902548.474    24902558.643
       199.000         139.000
  21050207.483   -21818605.95349 -16721138.96447  21050206.515    21050213.993
       241.000         206.000
  20824198.162   -17414710.89749 -13280564.51347  20824198.228    20824204.351
       245.000         210.000
 00  2  4  1 41 30.0000000  0  6G24G 5G 6G17G10G30
  21539297.747   -17343647.14349 -12924500.17047  21539297.525    21539304.833
       239.000         201.000
  20522068.959   -27117102.89649 -21108535.64448  20522068.378    20522075.271
       247.000         217.000
  22436272.931   -16797371.48649 -12460751.47546  22436272.392    22436279.494
       232.000         186.000
  24885490.335    -4210639.33149  -3257970.86945  24885488.365    24885500.358
       201.000         138.000
  21041811.328   -21862727.81349 -16755519.57647  21041810.378    21041817.588
       242.000         206.000
  20816894.898   -17453089.68249 -13310470.02647  20816895.013    20816901.095
       246.000         210.000
 00  2  4  1 42  0.0000000  0  6G24G 5G 6G17G10G30
  21551885.014   -17277500.43149 -12872957.26747  21551884.671    21551892.138
       239.000         200.000
  20530019.437   -27075322.73049 -21075979.67548  20530018.904    20530025.757
       246.000         217.000
  22423905.413   -16862363.05549 -12511394.18746  22423904.754    22423912.176
       231.000         186.000
  24868457.593    -4300146.16149  -3327716.16245  24868456.886    24868468.030
       204.000         140.000
  21033518.292   -21906307.77449 -16789477.93347  21033517.399    21033524.836
       241.000         207.000
  20809696.785   -17490916.08749 -13339945.11847  20809696.907    20809703.010
       245.000         211.000
 00  2  4  1 42 30.0000000  0  6G24G 5G 6G17G10G30
  21564504.578   -17211184.00949 -12821282.11047  21564504.314    21564511.495
       239.000         200.000
  20538066.774   -27033033.75849 -21043027.22848  20538066.143    20538073.101
       247.000         217.000
  22411553.854   -16927270.63949 -12561971.44546  22411553.574    22411560.793
       232.000         187.000
  24851452.509    -4389507.57749  -3397348.17645  24851451.428    24851462.961
       205.000         142.000
  21025328.633   -21949344.54149 -16823013.01447  21025327.579    21025334.968
       241.000         207.000
  20802601.883   -17528199.79649 -13368997.32447  20802601.928    20802608.168
       245.000         211.000
 00  2  4  1 43  0.0000000  0  6G24G 5G 6G17G10G30
  21577153.200   -17144715.07549 -12769488.11947  21577152.768    21577160.291
       238.000         200.000
  20546207.769   -26990252.62449 -21009691.27948  20546207.127    20546214.051
       247.000         217.000
  22399215.443   -16992109.08149 -12612494.83646  22399215.166    22399222.452
       232.000         187.000
  24834476.338    -4478716.73849  -3466861.56545  24834474.781    24834485.134
       207.000         142.000
  21017244.074   -21991828.81249 -16856117.58847  21017242.955    21017250.553
       242.000         207.000
  20795613.358   -17564924.67049 -13397614.07947  20795613.376    20795619.470
       245.000         211.000
 00  2  4  1 43 30.0000000  0  6G24G 5G 6G17G10G30
  21589829.430   -17078100.83049 -12717580.89547  21589829.222    21589836.219
       238.000         200.000
  20554441.579   -26946983.77449 -20975975.29048  20554440.957    20554447.753
       246.000         217.000
  22386885.828   -17056901.41649 -12662982.30946  22386885.152    22386892.508
       232.000         187.000
  24817530.148    -4567768.59149  -3536252.41145  24817529.162    24817538.463
       208.000         142.000
  21009266.467   -22033751.04049 -16888784.20247  21009265.658    21009272.973
       242.000         207.000
  20788731.155   -17601090.68649 -13425795.35747  20788731.281    20788737.287
       245.000         211.000
 00  2  4  1 44  0.0000000  0  6G24G 5G 6G17G10G30
  21602537.422   -17011319.68949 -12665543.62447  21602536.975    21602544.379
       238.000         200.000
  20562769.294   -26903221.27749 -20941874.64148  20562768.891    20562775.708
       246.000         217.000
  22374563.314   -17121656.32949 -12713440.61046  22374562.783    22374570.419
       232.000         187.000
  24800613.930    -4656663.07449  -3605520.66545  24800612.413    24800624.101
       211.000         143.000
  21001395.243   -22075114.52649 -16921015.43547  21001394.457    21001401.715
       242.000         207.000
  20781950.497   -17636723.29349 -13453560.99347  20781950.605    20781956.559
       245.000         211.000
 00  2  4  1 44 30.0000000  0  6G24G 5G 6G17G10G30
  21615276.751   -16944373.98549 -12613378.12047  21615276.805    21615284.058
       238.000         200.000
  20571189.791   -26858971.32949 -20907394.15948  20571189.342    20571196.091
       246.000         217.000
  22362248.219   -17186372.50849 -12763868.74947  22362248.058    22362254.891
       231.000         188.000
  24783727.054    -4745403.31749  -3674668.75345  24783725.584    24783736.626
       212.000         145.000
  20993630.118   -22115920.29149 -16952812.07547  20993629.263    20993636.531
       242.000         207.000
  20775270.490   -17671826.86449 -13480914.39147  20775270.569    20775276.591
       245.000         211.000
 00  2  4  1 45  0.0000000  0  6G24G 5G 6G17G10G30
  21628046.693   -16877267.60849 -12561087.41947  21628046.375    21628053.986
       238.000         199.000
  20579702.383   -26814237.34949 -20872536.50548  20579701.859    20579708.757
       247.000         217.000
  22349941.361   -17251045.14049 -12814262.93547  22349940.708    22349948.243
       232.000         188.000
  24766867.616    -4833999.58349  -3743704.67045  24766866.545    24766876.858
       214.000         144.000
  20985972.948   -22156158.68049 -16984166.60847  20985972.144    20985979.534
       242.000         208.000
  20768692.389   -17706394.97749 -13507850.55247  20768692.403    20768698.465
       245.000         212.000
 00  2  4  1 45 30.0000000  0  6G24G 5G 6G17G10G30
  21640848.241   -16809994.88249 -12508667.09747  21640847.633    21640855.277
       239.000         199.000
  20588310.848   -26768999.59049 -20837286.30248  20588310.189    20588317.217
       247.000         216.000
  22337645.425   -17315660.08649 -12864612.18147  22337644.900    22337652.218
       232.000         188.000
  24750034.280    -4922458.44049  -3812633.55545  24750033.618    24750043.458
       212.000         143.000
  20978423.396   -22195831.88349 -17015080.73647  20978422.320    20978429.656
       243.000         208.000
  20762212.401   -17740447.23249 -13534384.74447  20762212.449    20762218.451
       246.000         212.000
 00  2  4  1 46  0.0000000  0  6G24G 5G 6G17G10G30
  21653679.459   -16742566.29749 -12456125.32647  21653679.170    21653686.420
       239.000         199.000
  20597015.949   -26723253.85649 -20801640.27548  20597015.203    20597022.246
       248.000         216.000
  22325361.507   -17380212.01749 -12914912.31947  22325360.844    22325368.148
       234.000         189.000
  24733227.684    -5010777.09949  -3881453.21945  24733226.054    24733236.595
       214.000         143.000
  20970982.184   -22234935.35549 -17045550.91747  20970980.992    20970988.272
       244.000         208.000
  20755833.005   -17773970.85249 -13560507.01147  20755832.776    20755839.020
       247.000         212.000
 00  2  4  1 46 30.0000000  0  6G24G 5G 6G17G10G30
  21666536.372   -16675002.88349 -12403478.49847  21666536.309    21666543.164
       239.000         199.000
  20605818.713   -26676994.94449 -20765594.37248  20605818.249    20605825.114
       246.000         216.000
  22313090.935   -17444694.16749 -12965158.08547  22313090.849    22313097.436
       232.000         189.000
  24716448.225    -5098953.63149  -3950162.14245  24716447.090    24716457.719
       212.000         144.000
  20963653.374   -22273448.20249 -17075560.87247  20963652.685    20963659.751
       242.000         208.000
  20749561.033   -17806930.02549 -13586189.45147  20749561.118    20749567.192
       245.000         212.000
 00  2  4  1 47  0.0000000  0  6G24G 5G 6G17G10G30
  21679421.066   -16607293.47249 -12350717.90347  21679420.669    21679427.931
       238.000         198.000
  20614722.910   -26630203.10149 -20729133.19348  20614722.355    20614729.139
       247.000         216.000
  22300835.988   -17509094.16849 -13015339.83547  22300835.753    22300842.906
       233.000         189.000
  24699695.761    -5186987.70849  -4018760.05545  24699694.807    24699705.706
       212.000         143.000
  20956439.264   -22311358.60849 -17105101.39147  20956438.300    20956445.773
       243.000         208.000
  20743398.146   -17839316.40849 -13611425.56347  20743398.404    20743404.374
       246.000         212.000
 00  2  4  1 47 30.0000000  0  6G24G 5G 6G17G10G30
  21692334.224   -16539434.23849 -12297840.56747  21692333.870    21692341.267
       238.000         198.000
  20623730.967   -26582865.45049 -20692246.70948  20623730.339    20623737.070
       246.000         216.000
  22288599.485   -17573397.00649 -13065445.86947  22288599.184    22288606.396
       233.000         189.000
  24682972.070    -5274871.03349  -4087240.49745  24682971.424    24682981.760
       212.000         143.000
  20949338.498   -22348673.10149 -17134177.56847  20949337.505    20949344.759
       243.000         208.000
  20737346.106   -17871120.13149 -13636207.65647  20737346.284    20737352.293
       246.000         212.000
 00  2  4  1 48  0.0000000  0  6G24G 5G 6G17G10G30
  21705275.701   -16471426.29249 -12244847.35247  21705275.550    21705282.936
       237.000         198.000
  20632840.950   -26534992.02949 -20654942.75148  20632840.522    20632847.401
       246.000         216.000
  22276380.858   -17637605.95149 -13115478.74947  22276380.693    22276387.011
       233.000         190.000
  24666279.645    -5362589.44349  -4155592.41445  24666278.860    24666289.770
       215.000         144.000
  20942353.244   -22385380.62849 -17162780.78247  20942352.401    20942359.788
       243.000         208.000
  20731407.125   -17902329.54849 -13660526.65547  20731407.155    20731413.243
       245.000         212.000
 00  2  4  1 48 30.0000000  0  6G24G 5G 6G17G10G30
  21718249.468   -16403248.72449 -12191721.96047  21718249.369    21718256.280
       237.000         198.000
  20642050.726   -26486594.56649 -20617230.43948  20642050.236    20642056.994
       246.000         216.000
  22264180.011   -17701721.37749 -13165438.74547  22264179.889    22264187.340
       233.000         190.000
  24649618.539    -5450144.13349  -4223816.75945  24649617.745    24649627.646
       215.000         146.000
  20935481.790   -22421490.13049 -17190918.00347  20935480.888    20935488.092
       243.000         208.000
  20725575.788   -17932973.06549 -13684404.68847  20725575.862    20725582.030
       245.000         212.000
 00  2  4  1 49  0.0000000  0  6G24G 5G 6G17G10G30
  21731259.317   -16334881.54349 -12138448.81847  21731258.922    21731266.373
       237.000         197.000
  20651362.237   -26437662.32149 -20579101.41448  20651361.580    20651368.703
       246.000         216.000
  22251998.832   -17765733.53349 -13215318.27547  22251998.542    22252005.718
       233.000         190.000
  24632992.002    -5537516.84249  -4291899.26745  24632991.105    24633001.774
       215.000         147.000
  20928724.677   -22456998.90849 -17218587.12447  20928723.866    20928731.213
       243.000         208.000
  20719850.913   -17963057.47649 -13707847.05747  20719851.116    20719857.039
       245.000         212.000
 00  2  4  1 49 30.0000000  0  6G24G 5G 6G17G10G30
  21744300.265   -16266350.73149 -12085048.17347  21744300.014    21744307.483
       237.000         197.000
  20660768.653   -26388231.14749 -20540583.61948  20660767.838    20660774.790
       246.000         216.000
  22239831.800   -17829671.74449 -13265140.18247  22239831.435    22239838.733
       233.000         191.000
  24616399.836    -5624708.93149  -4359841.02645  24616399.901    24616409.978
       212.000         146.000
  20922078.700   -22491923.38449 -17245800.94747  20922077.647    20922085.007
       242.000         209.000
  20714228.087   -17992605.46749 -13730871.43647  20714228.088    20714234.158
       245.000         212.000
 00  2  4  1 50  0.0000000  0  6G24G 5G 6G17G10G30
  21757368.328   -16197677.53949 -12031536.58547  21757368.058    21757375.654
       237.000         197.000
  20670261.480   -26338346.07049 -20501712.13148  20670260.976    20670267.776
       246.000         216.000
  22227669.844   -17893583.07949 -13314941.14147  22227669.545    22227676.876
       233.000         191.000
  24599834.823    -5711758.02749  -4427671.35845  24599834.239    24599843.668
       211.000         146.000
  20915539.159   -22526288.64349 -17272579.01547  20915538.094    20915545.436
       243.000         209.000
  20708698.268   -18021664.80349 -13753515.04547  20708698.506    20708704.362
       245.000         212.000
 00  2  4  1 50 30.0000000  0  6G24G 5G 6G17G10G30
  21770460.710   -16128876.55349 -11977925.41047  21770460.624    21770467.741
       238.000         197.000
  20679838.067   -26288020.82149 -20462497.64948  20679837.366    20679844.337
       247.000         215.000
  22215509.831   -17957483.94749 -13364733.94247  22215509.333    22215516.750
       233.000         191.000
  24583290.646    -5798697.83349  -4495416.51845  24583288.993    24583300.071
       211.000         145.000
  20909100.185   -22560125.41949 -17298945.27647  20909099.212    20909106.512
       243.000         209.000
  20703259.414   -18050245.97449 -13775786.05548  20703259.432    20703265.531
       246.000         213.000
 00  2  4  1 51  0.0000000  0  6G24G 5G 6G17G10G30
  21783575.065   -16059960.24749 -11924224.38447  21783574.595    21783582.008
       237.000         197.000
  20689499.514   -26237249.51649 -20422935.59948  20689498.958    20689505.664
       246.000         215.000
  22203354.074   -18021362.57849 -13414509.41947  22203353.528    22203360.453
       233.000         191.000
  24566768.065    -5885523.78449  -4563072.97845  24566766.531    24566775.978
       212.000         146.000
  20902763.272   -22593425.95249 -17324893.69247  20902762.439    20902769.569
       243.000         209.000
  20697919.455   -18078307.48549 -13797652.14548  20697919.498    20697925.726
       245.000         213.000
 00  2  4  1 51 30.0000000  0  6G24G 5G 6G17G10G30
  21796715.769   -15990905.08949 -11870415.15947  21796715.338    21796723.116
       238.000         196.000
  20699248.922   -26186016.06449 -20383013.42848  20699248.239    20699255.371
       247.000         215.000
  22191205.263   -18085204.41049 -13464256.21447  22191204.889    22191212.159
       234.000         191.000
  24550270.223    -5972220.30449  -4630628.57345  24550268.713    24550279.669
       211.000         146.000
  20896531.181   -22626175.55749 -17350412.80547  20896530.023    20896537.436
       244.000         209.000
  20692684.243   -18105818.69049 -13819089.41748  20692684.313    20692690.336
       246.000         213.000
 00  2  4  1 52  0.0000000  0  6G24G 5G 6G17G10G30
  21809885.240   -15921699.03149 -11816488.35047  21809885.101    21809892.129
       236.000         196.000
  20709092.146   -26134289.44349 -20342706.96748  20709091.594    20709098.502
       246.000         215.000
  22179068.071   -18148985.39149 -13513955.59847  22179068.091    22179075.062
       233.000         191.000
  24533799.369    -6058774.69649  -4698073.41045  24533797.366    24533809.045
       211.000         146.000
  20890406.740   -22658359.46649 -17375491.12047  20890405.863    20890413.102
       243.000         209.000
  20687560.584   -18132743.43849 -13840069.71248  20687560.530    20687566.754
       245.000         213.000
 00  2  4  1 52 30.0000000  0  6G24G 5G 6G17G10G30
  21823082.597   -15852346.29249 -11762447.24247  21823082.384    21823089.943
       237.000         196.000
  20719034.752   -26082040.82549 -20301993.75648  20719034.121    20719041.172
       247.000         215.000
  22166949.391   -18212669.25649 -13563579.31447  22166949.310    22166955.947
       234.000         192.000
  24517363.543    -6145144.75549  -4765374.62745  24517363.582    24517373.109
       213.000         147.000
  20884395.125   -22689950.40749 -17400107.38447  20884394.125    20884401.413
       244.000         209.000
  20682557.161   -18159036.50749 -13860557.79248  20682557.473    20682563.307
       246.000         213.000
 00  2  4  1 53  0.0000000  0  6G24G 5G 6G17G10G30
  21836309.076   -15782840.60849 -11708286.95247  21836308.838    21836316.222
       236.000         195.000
  20729079.907   -26029253.24049 -20260860.57248  20729079.447    20729086.280
       246.000         215.000
  22154852.420   -18276238.84549 -13613113.97647  22154852.325    22154859.007
       233.000         192.000
  24500968.266    -6231302.39549  -4832510.30345  24500967.453    24500977.103
       213.000         146.000
  20878502.546   -22720915.99049 -17424236.35047  20878501.464    20878508.722
       243.000         209.000
  20677674.934   -18184692.82549 -13880549.69948  20677675.053    20677680.763
       245.000         213.000
 00  2  4  1 53 30.0000000  0  6G24G 5G 6G17G10G30
  21849563.397   -15713188.66749 -11654012.70147  21849562.992    21849570.350
       236.000         195.000
  20739228.002   -25975924.70049 -20219305.86248  20739227.422    20739234.264
       245.000         215.000
  22142776.303   -18339699.15749 -13662563.50547  22142775.935    22142782.796
       233.000         192.000
  24484613.455    -6317246.64049  -4899479.68845  24484612.725    24484622.618
       207.000         147.000
  20872729.819   -22751251.66249 -17447874.48047  20872728.870    20872736.213
       243.000         209.000
  20672908.569   -18209740.18849 -13900067.09848  20672908.593    20672914.685
       245.000         213.000
 00  2  4  1 54  0.0000000  0  6G24G 5G 6G17G10G30
  21862839.591   -15643421.75049 -11599648.86047  21862839.631    21862846.584
       236.000         195.000
  20749476.284   -25922069.37849 -20177340.67948  20749475.737    20749482.553
       245.000         215.000
  22130719.967   -18403055.45549 -13711931.98347  22130719.662    22130726.988
       233.000         192.000
  24468299.143    -6402978.20649  -4966283.31745  24468297.450    24468308.250
       212.000         147.000
  20867076.837   -22780958.16049 -17471022.35147  20867075.714    20867082.960
       243.000         209.000
  20668254.276   -18234198.60849 -13919125.58048  20668254.345    20668260.342
       246.000         213.000
 00  2  4  1 54 30.0000000  0  6G24G 5G 6G17G10G30
  21876137.540   -15573540.36249 -11545195.81647  21876137.135    21876144.696
       237.000         195.000
  20759819.978   -25867713.02349 -20134985.07948  20759819.176    20759826.175
       248.000         214.000
  22118680.980   -18466320.45649 -13761229.32347  22118680.266    22118687.607
       235.000         193.000
  24452021.186    -6488518.86649  -5032938.16645  24452020.488    24452030.467
       209.000         149.000
  20861540.663   -22810050.65349 -17493691.77247  20861539.387    20861546.760
       244.000         209.000
  20663706.248   -18258098.59949 -13937748.92448  20663706.194    20663712.197
       247.000         213.000
 00  2  4  1 55  0.0000000  0  6G24G 5G 6G17G10G30
  21889458.342   -15503539.02549 -11490649.30647  21889457.934    21889465.390
       237.000         194.000
  20770253.510   -25812884.19649 -20092261.32048  20770252.973    20770259.782
       248.000         214.000
  22106656.063   -18529511.46549 -13810469.00647  22106655.471    22106662.826
       235.000         193.000
  24435772.791    -6573903.79949  -5099471.66445  24435771.138    24435781.343
       211.000         150.000
  20856117.716   -22838548.16349 -17515897.56547  20856116.681    20856123.748
       244.000         210.000
  20659260.595   -18281460.52249 -13955952.99148  20659260.751    20659266.256
       247.000         213.000
 00  2  4  1 55 30.0000000  0  6G24G 5G 6G17G10G30
  21902799.635   -15433430.31449 -11436019.12947  21902799.238    21902806.717
       235.000         194.000
  20780773.352   -25757602.17449 -20049184.42648  20780772.750    20780779.629
       246.000         214.000
  22094644.859   -18592630.64549 -13859652.72747  22094644.796    22094651.721
       234.000         193.000
  24419553.366    -6659137.14149  -5165887.02845  24419552.995    24419562.399
       211.000         151.000
  20850805.014   -22866466.31349 -17537651.92147  20850803.939    20850811.243
       243.000         210.000
  20654917.949   -18304281.10849 -13973735.24348  20654918.078    20654923.900
       245.000         213.000
 00  2  4  1 56  0.0000000  0  6G24G 5G 6G17G10G30
  21916161.562   -15363212.83849 -11381304.19747  21916161.317    21916168.298
       235.000         194.000
  20791378.611   -25701871.14249 -20005757.65248  20791378.058    20791384.959
       246.000         214.000
  22082647.034   -18655679.38049 -13908781.55947  22082646.622    22082653.363
       234.000         193.000
  24403361.138    -6744227.40749  -5232190.88745  24403359.826    24403370.725
       211.000         152.000
  20845602.275   -22893806.72649 -17558956.09247  20845601.340    20845608.366
       243.000         210.000
  20650680.925   -18326546.94249 -13991085.22148  20650681.021    20650686.860
       245.000         214.000
 00  2  4  1 56 30.0000000  0  6G24G 5G 6G17G10G30
  21929548.779   -15292862.42749 -11326485.66747  21929548.489    21929556.000
       236.000         194.000
  20802069.443   -25645690.49949 -19961980.52848  20802068.867    20802075.763
       248.000         214.000
  22070664.982   -18718645.33149 -13957845.88047  22070664.697    22070671.689
       235.000         193.000
  24387193.983    -6829185.41649  -5298391.69445  24387192.198    24387203.069
       213.000         152.000
  20840511.576   -22920558.34949 -17579801.46247  20840510.655    20840517.561
       245.000         210.000
  20646552.842   -18348239.93649 -14007988.82548  20646553.119    20646559.046
       247.000         214.000
 00  2  4  1 57  0.0000000  0  6G24G 5G 6G17G10G30
  21942959.884   -15222386.47549 -11271569.33347  21942959.705    21942966.858
       235.000         193.000
  20812850.286   -25589036.84149 -19917834.83148  20812849.404    20812856.601
       246.000         213.000
  22058700.986   -18781516.19349 -14006836.11947  22058700.609    22058707.450
       235.000         194.000
  24371055.943    -6913990.58449  -5364473.40345  24371054.370    24371064.285
       211.000         152.000
  20835537.017   -22946699.57549 -17600171.20347  20835536.198    20835543.380
       244.000         210.000
  20642536.996   -18369343.35249 -14024433.02848  20642537.129    20642542.961
       246.000         214.000
 00  2  4  1 57 30.0000000  0  6G24G 5G 6G17G10G30
  21956395.802   -15151780.04349 -11216551.31647  21956395.654    21956403.031
       234.000         193.000
  20823725.776   -25531885.59249 -19873301.39048  20823725.305    20823732.116
       246.000         213.000
  22046755.524   -18844289.94149 -14055750.68447  22046755.769    22046762.218
       234.000         194.000
  24354950.405    -6998624.32049  -5430421.52845  24354949.130    24354959.277
       210.000         152.000
  20830680.641   -22972219.85449 -17620057.08847  20830679.711    20830686.710
       243.000         210.000
  20638634.595   -18389850.61849 -14040412.69248  20638634.701    20638640.747
       245.000         214.000
 00  2  4  1 58  0.0000000  0  6G24G 5G 6G17G10G30
  21969858.368   -15081033.52649 -11161424.13947  21969857.924    21969865.530
       234.000         193.000
  20834697.463   -25474228.99049 -19828374.17348  20834696.780    20834703.635
       246.000         213.000
  22034826.921   -18906974.97149 -14104596.12047  22034826.457    22034833.653
       234.000         194.000
  24338877.236    -7083088.47049  -5496237.51445  24338876.087    24338886.052
       210.000         153.000
  20825944.065   -22997110.49649 -17639452.34647  20825942.900    20825950.074
       243.000         210.000
  20634846.282   -18409758.10249 -14055924.99648  20634846.313    20634852.077
       245.000         214.000
 00  2  4  1 58 30.0000000  0  6G24G 5G 6G17G10G30
  21983346.692   -15010152.01049 -11106191.76647  21983346.216    21983354.099
       235.000         192.000
  20845765.140   -25416068.01549 -19783053.94048  20845764.577    20845771.495
       246.000         213.000
  22022914.729   -18969573.60549 -14153374.23347  22022914.174    22022921.170
       234.000         194.000
  24322839.702    -7167365.70149  -5561907.85945  24322837.910    24322848.616
       209.000         153.000
  20821326.551   -23021375.47549 -17658360.07347  20821325.586    20821332.876
       243.000         210.000
  20631170.314   -18429075.24249 -14070977.29248  20631170.378    20631176.131
       246.000         214.000
 00  2  4  1 59  0.0000000  0  6G24G 5G 6G17G10G30
  21996857.259   -14939153.56749 -11050868.28547  21996856.843    21996864.187
       235.000         192.000
  20856927.041   -25357411.78749 -19737347.79148  20856926.390    20856933.333
       246.000         213.000
  22011016.778   -19032097.57549 -14202094.16547  22011016.550    22011023.462
       234.000         195.000
  24306839.911    -7251444.40749  -5627423.52545  24306838.886    24306848.356
       211.000         153.000
  20816823.037   -23045041.39449 -17676801.00147  20816822.254    20816829.245
       243.000         210.000
  20627603.555   -18447818.62249 -14085582.49748  20627603.777    20627609.474
       246.000         214.000
 00  2  4  1 59 30.0000000  0  6G24G 5G 6G17G10G30
  22010388.010   -14868048.65049 -10995461.83247  22010387.886    22010395.162
       236.000         192.000
  20868177.103   -25298292.41249 -19691280.74348  20868176.552    20868183.345
       247.000         213.000
  21999130.469   -19094560.54849 -14250766.56747  21999130.289    21999136.933
       237.000         195.000
  24290874.305    -7335343.70549  -5692799.40645  24290873.258    24290882.760
       212.000         154.000
  20812429.563   -23068129.11649 -17694791.38147  20812428.556    20812435.637
       245.000         210.000
  20624142.141   -18466008.49149 -14099756.39348  20624142.313    20624148.246
       248.000         214.000
 00  2  4  2  0  0.0000000  0  6G24G 5G 6G17G10G30
  22023935.254   -14796857.29549 -10939988.03747  22023935.057    22023942.105
       235.000         192.000
  20879510.128   -25238736.92749 -19644873.87647  20879509.456    20879516.281
       245.000         212.000
  21987255.381   -19156964.43549 -14299392.93047  21987255.120    21987261.806
       235.000         195.000
  24274942.229    -7419066.35849  -5758037.65645  24274940.848    24274950.666
       213.000         154.000
  20808144.079   -23090649.33549 -17712339.55947  20808143.082    20808150.176
       243.000         210.000
  20620783.500   -18483658.17949 -14113509.37248  20620783.559    20620789.274
       246.000         214.000
 00  2  4  2  0 30.0000000  0  6G24G 5G 6G17G10G30
  22037496.635   -14725591.73849 -10884456.41647  22037496.499    22037503.396
       234.000         191.000
  20890921.173   -25178771.34849 -19598147.45947  20890920.517    20890927.596
       245.000         212.000
  21975390.543   -19219314.39849 -14347977.27747  21975390.234    21975397.049
       236.000         196.000
  24259040.659    -7502628.79249  -5823151.07345  24259039.886    24259048.549
       213.000         154.000
  20803962.738   -23112622.18849 -17729461.21247  20803961.877    20803969.013
       243.000         210.000
  20617523.387   -18500789.86649 -14126858.71348  20617523.406    20617529.232
       246.000         214.000
 00  2  4  2  1  0.0000000  0  6G24G 5G 6G17G10G30
  22051070.862   -14654258.60749 -10828872.14147  22051070.562    22051077.694
       233.000         191.000
  20902408.353   -25118405.73349 -19551109.31947  20902407.754    20902414.712
       245.000         212.000
  21963533.933   -19281621.18949 -14396527.97547  21963533.592    21963540.518
       236.000         196.000
  24243163.458    -7586063.05049  -5888164.62745  24243162.098    24243172.052
       215.000         155.000
  20799887.290   -23134038.60349 -17746149.27447  20799886.348    20799893.207
       243.000         210.000
  20614361.390   -18517406.20649 -14139806.48248  20614361.584    20614367.327
       246.000         214.000
 00  2  4  2  1 30.0000000  0  6G24G 5G 6G17G10G30
  22064657.945   -14582857.90449 -10773235.21247  22064657.725    22064665.199
       233.000         191.000
  20913973.797   -25057628.94649 -19503750.78647  20913973.208    20913980.179
       245.000         212.000
  21951686.342   -19343880.61949 -14445041.76947  21951686.334    21951693.032
       235.000         196.000
  24227310.213    -7669371.59749  -5953080.22545  24227308.743    24227318.781
       214.000         155.000
  20795924.242   -23154864.36649 -17762377.09147  20795923.422    20795930.404
       243.000         210.000
  20611301.235   -18533487.50449 -14152337.33848  20611301.273    20611307.104
       245.000         214.000
 00  2  4  2  2  0.0000000  0  6G24G 5G 6G17G10G30
  22078260.606   -14511375.51149 -10717534.63147  22078260.358    22078267.684
       233.000         190.000
  20925619.879   -24996428.46749 -19456062.10147  20925619.275    20925626.306
       245.000         212.000
  21939851.753   -19406071.45549 -14493502.09847  21939851.457    21939858.218
       236.000         196.000
  24211485.016    -7752532.84949  -6017881.06245  24211484.258    24211492.781
       216.000         156.000
  20792076.869   -23175082.41249 -17778131.36047  20792076.065    20792082.772
       243.000         210.000
  20608348.597   -18549003.30749 -14164427.53848  20608348.797    20608354.504
       246.000         214.000
 00  2  4  2  2 30.0000000  0  6G24G 5G 6G17G10G30
  22091882.702   -14439790.66149 -10661754.21147  22091881.878    22091889.429
       234.000         190.000
  20937352.193   -24934774.74149 -19408020.23947  20937351.503    20937358.480
       245.000         211.000
  21928033.032   -19468179.19849 -14541897.69147  21928032.739    21928039.524
       236.000         197.000
  24195686.765    -7835552.79049  -6082571.77645  24195685.585    24195695.557
       215.000         157.000
  20788348.498   -23194674.87649 -17793398.16047  20788347.397    20788354.256
       243.000         210.000
  20605508.827   -18563926.48249 -14176055.95648  20605508.713    20605514.610
       246.000         214.000
 00  2  4  2  3  0.0000000  0  6G24G 5G 6G17G10G30
  22105527.563   -14368086.25149 -10605880.63247  22105527.172    22105534.477
       233.000         190.000
  20949178.654   -24872626.25049 -19359592.84547  20949177.956    20949185.028
       245.000         211.000
  21916235.949   -19530173.16949 -14590204.62047  21916235.456    21916242.530
       237.000         197.000
  24179919.652    -7918409.12349  -6147135.00745  24179919.140    24179927.712
       216.000         158.000
  20784743.858   -23213617.15749 -17808158.32947  20784742.782    20784749.773
       244.000         211.000
  20602789.878   -18578214.42349 -14187189.38548  20602789.895    20602795.590
       247.000         214.000
 00  2  4  2  3 30.0000000  0  6G24G 5G 6G17G10G30
  22119199.685   -14296238.87649 -10549895.65047  22119199.477    22119206.742
       234.000         190.000
  20961102.101   -24809968.17949 -19310768.37747  20961101.841    20961108.617
       244.000         211.000
  21904467.405   -19592017.07649 -14638394.62547  21904467.133    21904473.750
       236.000         197.000
  24164190.398    -8001066.54049  -6211543.24245  24164189.929    24164197.841
       217.000         158.000
  20781264.249   -23231902.46949 -17822406.57947  20781263.451    20781270.160
       242.000         211.000
  20600197.082   -18591839.53249 -14197806.32648  20600197.110    20600202.847
       246.000         214.000
 00  2  4  2  4  0.0000000  0  6G24G 5G 6G17G10G30
  22132900.534   -14224240.45749 -10493792.96647  22132900.442    22132907.683
       233.000         190.000
  20973123.117   -24746797.41649 -19261544.40747  20973122.529    20973129.518
       244.000         211.000
  21892728.837   -19653703.65549 -14686462.02147  21892728.699    21892734.995
       236.000         197.000
  24148500.055    -8083519.12249  -6275791.85645  24148498.223    24148507.816
       217.000         157.000
  20777908.447   -23249537.09849 -17836147.79747  20777907.484    20777914.417
       242.000         210.000
  20597729.405   -18604807.17849 -14207910.95648  20597729.668    20597735.326
       246.000         214.000
 00  2  4  2  4 30.0000000  0  6G24G 5G 6G17G10G30
  22146628.627   -14152098.99749 -10437578.82347  22146628.178    22146635.666
       234.000         190.000
  20985243.700   -24683103.19549 -19211912.55147  20985243.258    20985250.119
       244.000         210.000
  21881017.989   -19715244.37849 -14734415.77147  21881017.757    21881024.510
       236.000         197.000
  24132847.743    -8165771.94849  -6339884.81545  24132846.928    24132855.549
       216.000         157.000
  20774676.005   -23266523.37549 -17849383.81047  20774675.032    20774681.995
       242.000         210.000
  20595384.342   -18617130.34049 -14217513.38748  20595384.542    20595390.328
       246.000         214.000
 00  2  4  2  5  0.0000000  0  6G24G 5G 6G17G10G30
  22160379.572   -14079837.23949 -10381270.93947  22160379.209    22160386.400
       233.000         189.000
  20997460.196   -24618905.18249 -19161888.13147  20997459.681    20997466.585
       244.000         210.000
  21869333.710   -19776645.66349 -14782260.86547  21869333.436    21869340.302
       237.000         198.000
  24117237.675    -8247802.73249  -6403804.75345  24117236.135    24117246.084
       217.000         157.000
  20771565.886   -23282866.93149 -17862119.00047  20771564.865    20771571.900
       242.000         210.000
  20593159.688   -18628821.06049 -14226623.01148  20593159.752    20593165.572
       246.000         214.000
 00  2  4  2  5 30.0000000  0  6G24G 5G 6G17G10G30
  22174148.561   -14007480.58549 -10324889.11347  22174147.897    22174155.469
       233.000         189.000
  21009765.596   -24554239.98649 -19111499.66847  21009765.112    21009772.006
       244.000         210.000
  21857671.650   -19837930.04949 -14830014.86947  21857671.119    21857677.580
       237.000         198.000
  24101669.476    -8329613.42749  -6467553.18545  24101668.062    24101676.863
       217.000         158.000
  20768576.440   -23298576.50949 -17874360.18347  20768575.245    20768582.285
       243.000         211.000
  20591048.932   -18639913.01449 -14235266.06148  20591048.704    20591054.590
       246.000         214.000
 00  2  4  2  6  0.0000000  0  6G24G 5G 6G17G10G30
  22187931.044   -13935053.03449 -10268452.04247  22187930.675    22187938.356
       233.000         189.000
  21022157.529   -24489119.86549 -19060756.72747  21022156.974    21022163.716
       244.000         210.000
  21846027.016   -19899122.42649 -14877697.17647  21846026.521    21846033.262
       236.000         198.000
  24086139.393    -8411223.95649  -6531145.65945  24086137.914    24086147.374
       218.000         158.000
  20765704.537   -23313668.17049 -17886119.88047  20765703.533    20765710.693
       242.000         211.000
  20589047.647   -18650429.51149 -14243460.70848  20589047.799    20589053.646
       246.000         215.000
 00  2  4  2  6 30.0000000  0  6G24G 5G 6G17G10G30
  22201724.960   -13862565.50349 -10211968.23747  22201724.546    22201731.563
       233.000         188.000
  21034634.621   -24423552.47449 -19009665.25947  21034633.976    21034640.725
       245.000         210.000
  21834399.427   -19960225.67749 -14925310.03347  21834398.920    21834405.384
       238.000         198.000
  24070644.659    -8492648.50649  -6594593.20945  24070643.770    24070652.149
       220.000         157.000
  20762948.097   -23328153.22849 -17897406.89447  20762946.971    20762953.796
       243.000         211.000
  20587155.098   -18660374.86549 -14251210.30648  20587155.089    20587160.785
       247.000         215.000
 00  2  4  2  7  0.0000000  0  6G24G 5G 6G17G10G30
  22215531.091   -13790013.84249 -10155434.45347  22215530.918    22215538.347
       233.000         188.000
  21047194.535   -24357549.75449 -18958234.56547  21047193.961    21047200.661
       244.000         210.000
  21822790.116   -20021232.68849 -14972847.89647  21822789.637    21822796.339
       237.000         198.000
  24055183.306    -8573898.31149  -6657904.58445  24055182.754    24055191.221
       219.000         157.000
  20760307.924   -23342027.24749 -17908217.77347  20760306.879    20760313.714
       243.000         211.000
  20585370.136   -18669754.77249 -14258519.29248  20585370.185    20585375.863
       247.000         215.000
 00  2  4  2  7 30.0000000  0  6G24G 5G 6G17G10G30
  22229351.882   -13717384.96349 -10098840.50447  22229351.290    22229359.134
       232.000         188.000
  21059836.461   -24291115.80749 -18906467.85547  21059835.879    21059842.715
       243.000         209.000
  21811200.491   -20082136.32949 -15020305.21547  21811200.080    21811206.842
       237.000         199.000
  24039750.629    -8654997.19749  -6721098.37645  24039750.607    24039758.333
       218.000         156.000
  20757784.739   -23355286.31949 -17918549.47847  20757783.855    20757790.555
       242.000         211.000
  20583692.174   -18678572.54749 -14265390.26448  20583692.246    20583697.765
       246.000         215.000
 00  2  4  2  8  0.0000000  0  6G24G 5G 6G17G10G30
  22243189.345   -13644668.63449 -10042178.41346  22243188.841    22243195.947
       232.000         187.000
  21072563.272   -24224236.09249 -18854353.79147  21072562.549    21072569.468
       244.000         209.000
  21799631.704   -20142930.41349 -15067677.16647  21799631.479    21799637.786
       238.000         199.000
  24024346.588    -8735945.10649  -6784174.52045  24024345.382    24024354.736
       218.000         157.000
  20755377.114   -23367938.28549 -17928408.10947  20755376.312    20755382.876
       243.000         211.000
  20582124.103   -18686812.87449 -14271811.27448  20582124.302    20582129.724
       246.000         215.000
 00  2  4  2  8 30.0000000  0  6G24G 5G 6G17G10G30
  22257044.855   -13571857.35649  -9985442.33846  22257044.589    22257051.330
       232.000         187.000
  21085373.705   -24156916.75249 -18801897.16347  21085373.100    21085380.070
       244.000         209.000
  21788084.559   -20203610.69849 -15114960.44847  21788084.133    21788090.502
       237.000         199.000
  24008973.069    -8816732.68049  -6847125.71645  24008972.084    24008980.370
       218.000         157.000
  20753085.561   -23379980.10749 -17937791.30847  20753084.579    20753091.473
       242.000         211.000
  20580667.544   -18694467.11549 -14277775.59748  20580667.670    20580673.408
       246.000         215.000
 00  2  4  2  9  0.0000000  0  6G24G 5G 6G17G10G30
  22270917.942   -13498953.70249  -9928634.27046  22270917.365    22270924.648
       231.000         187.000
  21098264.288   -24089176.48149 -18749112.54147  21098263.756    21098270.592
       243.000         209.000
  21776559.050   -20264177.42249 -15162155.23647  21776558.732    21776565.409
       237.000         199.000
  23993632.115    -8897349.49349  -6909943.87045  23993631.105    23993639.359
       217.000         157.000
  20750911.399   -23391405.39349 -17946694.08347  20750910.394    20750917.478
       242.000         211.000
  20579323.725   -18701528.72449 -14283278.12648  20579323.581    20579329.477
       246.000         215.000
 00  2  4  2  9 30.0000000  0  6G24G 5G 6G17G10G30
  22284807.781   -13425962.03949  -9871757.64146  22284807.349    22284814.450
       232.000         186.000
  21111234.015   -24021020.09249 -18696003.67247  21111233.377    21111240.058
       242.000         209.000
  21765055.046   -20324631.11749 -15209261.95547  21765054.826    21765061.291
       237.000         199.000
  23978328.085    -8977771.88449  -6972610.50845  23978327.449    23978335.665
       220.000         157.000
  20748852.899   -23402222.62149 -17955123.05147  20748852.199    20748858.892
       243.000         211.000
  20578096.070   -18707979.89949 -14288304.99748  20578096.290    20578101.921
       246.000         215.000
 00  2  4  2 10  0.0000000  0  6G24G 5G 6G17G10G30
  22298712.684   -13352891.18649  -9814819.28946  22298712.323    22298719.287
       232.000         186.000
  21124283.807   -23952443.00649 -18642566.98347  21124283.253    21124290.147
       242.000         209.000
  21753570.599   -20384981.86749 -15256288.45247  21753570.167    21753576.550
       237.000         200.000
  23963063.008    -9057989.88349  -7035117.89945  23963061.837    23963070.705
       217.000         157.000
  20746909.524   -23412434.93849 -17963080.65547  20746908.614    20746915.552
       243.000         211.000
  20576984.646   -18713820.35449 -14292855.98248  20576984.810    20576990.377
       246.000         215.000
 00  2  4  2 10 30.0000000  0  6G24G 5G 6G17G10G30
  22312631.583   -13279746.83249  -9757823.67846  22312631.417    22312637.798
       232.000         186.000
  21137411.923   -23883454.15449 -18588809.44147  21137411.285    21137418.230
       242.000         208.000
  21742105.875   -20445229.17049 -15303234.34247  21742105.384    21742112.023
       237.000         200.000
  23947835.508    -9138010.39149  -7097471.38045  23947834.329    23947842.933
       220.000         157.000
  20745084.862   -23422023.51749 -17970552.22647  20745083.867    20745090.639
       242.000         211.000
  20575988.340   -18719056.04649 -14296935.71848  20575988.510    20575994.103
       246.000         215.000
 00  2  4  2 11  0.0000000  0  6G24G 5G 6G17G10G30
  22326563.273   -13206535.18649  -9700775.61846  22326563.192    22326570.271
       232.000         186.000
  21150618.915   -23814050.83349 -18534728.93947  21150618.312    21150625.127
       243.000         208.000
  21730661.670   -20505368.51749 -15350096.11547  21730661.316    21730667.754
       238.000         200.000
  23932646.813    -9217827.04949  -7159666.02145  23932646.723    23932653.446
       218.000         157.000
  20743380.297   -23430980.98849 -17977532.02947  20743379.397    20743386.216
       243.000         211.000
  20575106.296   -18723691.10849 -14300547.43748  20575106.280    20575112.014
       246.000         215.000
 00  2  4  2 11 30.0000000  0  6G24G 5G 6G17G10G30
  22340509.023   -13133249.74349  -9643670.05846  22340509.057    22340516.223
       232.000         185.000
  21163906.772   -23744222.71649 -18480317.42347  21163906.193    21163913.173
       242.000         208.000
  21719236.221   -20565409.49849 -15396881.23947  21719235.686    21719242.215
       238.000         200.000
  23917495.012    -9297449.90349  -7221709.64545  23917494.223    23917502.274
       217.000         157.000
  20741793.211   -23439321.11049 -17984030.77347  20741792.296    20741799.119
       243.000         211.000
  20574337.043   -18727733.24249 -14303697.13148  20574337.223    20574342.963
       246.000         215.000
 00  2  4  2 12  0.0000000  0  6G24G 5G 6G17G10G30
  22354467.652   -13059896.81849  -9586511.91646  22354467.364    22354474.304
       232.000         185.000
  21177275.424   -23673970.03449 -18425575.08147  21177274.778    21177281.741
       242.000         208.000
  21707828.950   -20625354.50049 -15443591.58047  21707828.523    21707835.151
       237.000         200.000
  23902376.774    -9376896.07249  -7283615.59145  23902375.780    23902383.798
       218.000         157.000
  20740323.865   -23447042.54649 -17990047.42947  20740322.803    20740329.419
       243.000         211.000
  20573678.962   -18731191.69649 -14306392.00948  20573679.118    20573684.633
       246.000         215.000
 00  2  4  2 12 30.0000000  0  6G24G 5G 6G17G10G30
  22368440.147   -12986470.73649  -9529296.76746  22368440.061    22368446.818
       232.000         185.000
  21190723.476   -23603299.86349 -18370507.41847  21190723.018    21190729.935
       242.000         208.000
  21696441.097   -20685198.07149 -15490222.87847  21696440.847    21696447.004
       238.000         200.000
  23887292.375    -9456164.22549  -7345382.83745  23887290.583    23887300.392
       218.000         158.000
  20738972.299   -23454144.89749 -17995581.68247  20738971.249    20738977.944
       243.000         211.000
  20573133.306   -18734058.84649 -14308626.13448  20573133.466    20573139.096
       246.000         215.000
 00  2  4  2 13  0.0000000  0  6G24G 5G 6G17G10G30
  22382426.686   -12912971.01949  -9472024.24346  22382426.369    22382433.295
       231.000         185.000
  21204251.702   -23532208.52849 -18315111.57347  21204251.092    21204258.002
       242.000         207.000
  21685073.106   -20744936.87049 -15536772.53747  21685072.567    21685079.115
       238.000         201.000
  23872241.895    -9535254.85149  -7407011.75845  23872240.312    23872249.413
       217.000         158.000
  20737736.005   -23460641.40849 -18000643.85447  20737734.995    20737741.918
       243.000         211.000
  20572699.736   -18736337.12649 -14310401.39848  20572699.846    20572705.548
       246.000         215.000
 00  2  4  2 13 30.0000000  0  6G24G 5G 6G17G10G30
  22396427.035   -12839398.67749  -9414695.12746  22396426.587    22396433.835
       232.000         184.000
  21217860.121   -23460695.86949 -18259387.43047  21217859.482    21217866.445
       242.000         207.000
  21673724.418   -20804574.50649 -15583243.36947  21673724.133    21673730.607
       239.000         201.000
  23857223.108    -9614177.92849  -7468510.12245  23857221.459    23857229.891
       217.000         158.000
  20736614.453   -23466534.91749 -18005236.15547  20736613.501    20736620.125
       244.000         211.000
  20572377.538   -18738030.39949 -14311720.81448  20572377.659    20572383.264
       247.000         215.000
 00  2  4  2 14  0.0000000  0  6G24G 5G 6G17G10G30
  22410437.505   -12765773.01949  -9357324.47046  22410436.847    22410444.035
       231.000         184.000
  21231548.424   -23388763.27949 -18203336.06647  21231547.825    21231554.795
       241.000         207.000
  21662396.403   -20864103.50249 -15629629.54647  21662395.905    21662402.459
       238.000         201.000
  23842237.837    -9692924.96049  -7529871.30845  23842237.053    23842245.620
       219.000         159.000
  20735610.459   -23471810.71349 -18009347.12147  20735609.556    20735616.157
       242.000         211.000
  20572165.088   -18739146.64049 -14312590.59848  20572165.316    20572170.922
       246.000         215.000
 00  2  4  2 14 30.0000000  0  6G24G 5G 6G17G10G30
  22424457.651   -12692096.16649  -9299913.91246  22424457.301    22424464.033
       230.000         184.000
  21245316.526   -23316411.36749 -18146957.95547  21245316.184    21245322.922
       241.000         207.000
  21651089.774   -20923520.20249 -15675928.22047  21651089.683    21651095.859
       239.000         201.000
  23827286.237    -9771495.53349  -7591095.00545  23827285.414    23827293.506
       218.000         159.000
  20734722.451   -23476477.07249 -18012983.20247  20734721.331    20734728.112
       243.000         211.000
  20572061.595   -18739690.38849 -14313014.28248  20572061.828    20572067.453
       246.000         215.000
 00  2  4  2 15  0.0000000  0  6G24G 5G 6G17G10G30
  22438486.282   -12618375.04749  -9242468.86346  22438485.790    22438493.123
       231.000         183.000
  21259163.240   -23243646.52149 -18090258.08147  21259162.788    21259169.685
       241.000         206.000
  21639804.084   -20982826.79249 -15722141.09547  21639803.756    21639809.876
       239.000         202.000
  23812367.577    -9849893.04849  -7652183.85545  23812367.261    23812375.691
       217.000         160.000
  20733950.388   -23480533.98549 -18016144.38847  20733949.306    20733956.171
       243.000         211.000
  20572065.767   -18739668.50149 -14312997.21348  20572065.785    20572071.391
       246.000         215.000
 00  2  4  2 15 30.0000000  0  6G24G 5G 6G17G10G30
  22452523.407   -12544609.37949  -9184989.09546  22452522.732    22452529.566
       230.000         183.000
  21273085.550   -23170484.31449 -18033248.57547  21273085.270    21273092.206
       241.000         206.000
  21628539.017   -21042024.76449 -15768269.32947  21628538.604    21628545.121
       238.000         202.000
  23797482.465    -9928114.33749  -7713135.38345  23797481.307    23797490.158
       218.000         161.000
  20733295.146   -23483977.23449 -18018827.40047  20733293.869    20733300.735
       243.000         211.000
  20572179.380   -18739071.34749 -14312531.88848  20572179.437    20572185.108
       246.000         215.000
 00  2  4  2 16  0.0000000  0  6G24G 5G 6G17G10G30
  22466571.038   -12470788.47749  -9127466.29246  22466570.827    22466577.869
       231.000         183.000
  21287083.632   -23096924.16349 -17975928.97747  21287082.909    21287089.905
       242.000         206.000
  21617297.327   -21101100.07449 -15814301.98247  21617296.807    21617303.262
       240.000         202.000
  23782630.943   -10006159.02249  -7773949.30945  23782629.768    23782637.954
       218.000         162.000
  20732756.481   -23486807.73049 -18021032.94247  20732755.472    20732762.136
       244.000         211.000
  20572406.972   -18737875.28049 -14311599.87548  20572406.919    20572412.737
       247.000         215.000
 00  2  4  2 16 30.0000000  0  6G24G 5G 6G17G10G30
  22480634.075   -12396886.50649  -9069880.31046  22480633.761    22480640.926
       232.000         183.000
  21301157.141   -23022967.31149 -17918300.25847  21301156.366    21301163.403
       242.000         206.000
  21606082.987   -21160031.72949 -15860222.69847  21606082.260    21606088.746
       240.000         202.000
  23767813.377   -10084025.63349  -7834624.47946  23767812.676    23767820.565
       221.000         163.000
  20732336.261   -23489015.93549 -18022753.58347  20732335.223    20732342.094
       244.000         211.000
  20572753.506   -18736054.05449 -14310180.72348  20572753.509    20572759.153
       247.000         215.000
 00  2  4  2 17  0.0000000  0  6G24G 5G 6G17G10G30
  22494715.211   -12322889.87749  -9012220.58546  22494714.773    22494721.817
       231.000         183.000
  21315307.092   -22948608.92749 -17860358.66247  21315306.600    21315313.182
       241.000         206.000
  21594896.349   -21218817.41849 -15906029.67647  21594896.134    21594902.293
       240.000         202.000
  23753031.788   -10161702.94449  -7895152.14746  23753031.169    23753038.905
       219.000         163.000
  20732037.206   -23490587.30049 -18023977.98747  20732036.180    20732042.768
       244.000         211.000
  20573221.204   -18733596.19449 -14308265.49548  20573221.245    20573227.023
       247.000         215.000
 00  2  4  2 17 30.0000000  0  6G24G 5G 6G17G10G30
  22508814.328   -12248798.10749  -8954486.71746  22508814.192    22508821.022
       231.000         182.000
  21329536.922   -22873830.62149 -17802089.86747  21329536.459    21329543.334
       242.000         205.000
  21583738.969   -21277449.86149 -15951717.24247  21583738.669    21583744.708
       240.000         203.000
  23738287.303   -10239185.22949  -7955527.85646  23738285.727    23738294.448
       220.000         164.000
  20731857.556   -23491531.25749 -18024713.51047  20731856.814    20731863.295
       244.000         211.000
  20573812.916   -18730486.80249 -14305842.58748  20573812.946    20573818.681
       247.000         215.000
 00  2  4  2 18  0.0000000  0  6G24G 5G 6G17G10G30
  22522929.931   -12174619.87049  -8896685.46646  22522929.530    22522935.779
       229.000         182.000
  21343849.095   -22798619.81649 -17743484.05247  21343848.641    21343855.186
       241.000         205.000
  21572611.787   -21335923.53449 -15997281.09347  21572611.482    21572617.721
       239.000         203.000
  23723581.921   -10316462.06549  -8015743.46146  23723580.877    23723589.248
       220.000         165.000
  20731796.999   -23491849.31849 -18024961.31347  20731795.956    20731802.715
       243.000         211.000
  20574528.379   -18726726.88849 -14302912.77248  20574528.580    20574534.198
       246.000         215.000
 00  2  4  2 18 30.0000000  0  6G24G 5G 6G17G10G30
  22537059.168   -12100370.50949  -8838828.79146  22537058.869    22537065.804
       231.000         182.000
  21358242.521   -22722981.72749 -17684545.28147  21358241.767    21358248.656
       241.000         205.000
  21561511.153   -21394257.40649 -16042735.99347  21561510.737    21561517.102
       240.000         203.000
  23708919.077   -10393515.80549  -8075785.23846  23708918.537    23708926.588
       222.000         166.000
  20731855.769   -23491540.13149 -18024720.34947  20731854.776    20731861.457
       243.000         211.000
  20575362.902   -18722341.59749 -14299495.64348  20575362.903    20575368.324
       247.000         215.000
 00  2  4  2 19  0.0000000  0  6G24G 5G 6G17G10G30
  22551195.322   -12026084.52349  -8780943.58646  22551195.132    22551202.204
       230.000         181.000
  21372715.168   -22646927.47749 -17625282.24047  21372714.518    21372721.333
       240.000         204.000
  21550431.079   -21452483.38349 -16088106.84147  21550430.617    21550437.101
       239.000         203.000
  23694298.192   -10470348.41549  -8135654.70646  23694297.299    23694305.101
       220.000         167.000
  20732028.908   -23490630.15749 -18024011.25147  20732028.026    20732034.483
       243.000         211.000
  20576310.784   -18717360.41449 -14295614.19648  20576310.906    20576316.429
       246.000         215.000
 00  2  4  2 19 30.0000000  0  6G24G 5G 6G17G10G30
  22565334.196   -11951783.96049  -8723047.01846  22565334.094    22565341.054
       229.000         181.000
  21387262.398   -22570481.35549 -17565713.83747  21387261.827    21387268.592
       240.000         204.000
  21539371.285   -21510602.61749 -16133394.50147  21539370.584    21539377.294
       239.000         203.000
  23679716.826   -10546973.51449  -8195362.48246  23679715.904    23679724.146
       221.000         167.000
  20732315.695   -23489122.94449 -18022836.76447  20732314.777    20732321.277
       243.000         211.000
  20577370.939   -18711788.95649 -14291272.78848  20577371.092    20577376.542
       246.000         215.000
 00  2  4  2 20  0.0000000  0  6G24G 5G 6G17G10G30
  22579475.895   -11877468.84649  -8665139.10946  22579475.454    22579482.645
       229.000         181.000
  21401878.972   -22493670.83749 -17505861.49447  21401878.418    21401885.446
       240.000         204.000
  21528331.085   -21568619.12149 -16178602.11847  21528330.667    21528337.068
       239.000         203.000
  23665174.334   -10623394.95849  -8254911.56446  23665173.421    23665181.808
       221.000         168.000
  20732718.178   -23487007.79149 -18021188.55747  20732717.189    20732723.928
       243.000         211.000
  20578540.267   -18705644.28749 -14286484.72348  20578540.343    20578545.964
       246.000         215.000
 00  2  4  2 20 30.0000000  0  6G24G 5G 6G17G10G30
  22593622.102   -11803129.86749  -8607212.61346  22593621.551    22593628.432
       229.000         181.000
  21416563.250   -22416504.36749 -17445731.78547  21416562.342    21416569.653
       240.000         204.000
  21517311.998   -21626524.54649 -16223723.18147  21517311.735    21517317.896
       239.000         204.000
  23650667.396   -10699628.97249  -8314314.60246  23650666.254    23650674.283
       221.000         168.000
  20733236.600   -23484283.32949 -18019065.56647  20733235.710    20733242.224
       243.000         211.000
  20579818.017   -18698929.61849 -14281252.50148  20579818.118    20579823.689
       246.000         215.000
 00  2  4  2 21  0.0000000  0  6G24G 5G 6G17G10G30
  22607775.558   -11728752.94849  -8549256.54946  22607775.323    22607782.362
       229.000         180.000
  21431314.436   -22338986.35149 -17385328.13847  21431313.810    21431320.955
       240.000         204.000
  21506319.838   -21684288.62949 -16268734.10647  21506319.425    21506325.716
       240.000         204.000
  23636193.480   -10775689.61049  -8373582.54546  23636192.035    23636200.826
       220.000         169.000
  20733872.912   -23480939.48649 -18016459.94247  20733871.839    20733878.379
       243.000         211.000
  20581209.539   -18691616.89849 -14275554.27148  20581209.815    20581215.418
       246.000         215.000
 00  2  4  2 21 30.0000000  0  6G24G 5G 6G17G10G30
  22621944.026   -11654296.97949  -8491238.89146  22621943.634    22621950.882
       229.000         180.000
  21446134.113   -22261108.36749 -17324644.00247  21446133.541    21446140.622
       240.000         203.000
  21495359.341   -21741886.04549 -16313615.16347  21495359.282    21495364.916
       240.000         204.000
  23621752.053   -10851579.19149  -8432717.19846  23621751.362    23621759.316
       222.000         168.000
  20734631.180   -23476954.41949 -18013354.66247  20734630.344    20734636.891
       243.000         211.000
  20582717.868   -18683690.49049 -14269377.84248  20582717.981    20582723.652
       246.000         215.000
 00  2  4  2 22  0.0000000  0  6G24G 5G 6G17G10G30
  22636129.059   -11579754.00849  -8433153.42346  22636128.854    22636135.896
       230.000         180.000
  21461024.561   -22182858.61249 -17263670.17147  21461023.782    21461030.682
       241.000         203.000
  21484432.342   -21799307.68349 -16358359.24247  21484431.907    21484438.174
       241.000         204.000
  23607344.674   -10927290.40249  -8491712.86046  23607343.696    23607351.762
       222.000         169.000
  20735511.848   -23472326.42149 -18009748.38947  20735510.984    20735517.605
       244.000         211.000
  20584341.472   -18675158.26749 -14262729.34248  20584341.597    20584347.113
       247.000         215.000
 00  2  4  2 22 30.0000000  0  6G24G 5G 6G17G10G30
  22650329.122   -11505131.96649  -8375006.36546  22650328.884    22650336.130
       228.000         180.000
  21475987.833   -22104226.12149 -17202398.12047  21475987.293    21475994.161
       240.000         203.000
  21473538.435   -21856555.58549 -16402967.95647  21473537.899    21473544.456
       240.000         204.000
  23592971.384   -11002822.18849  -8550568.72346  23592970.327    23592978.466
       221.000         169.000
  20736513.827   -23467060.89649 -18005645.35547  20736513.041    20736519.520
       242.000         211.000
  20586079.906   -18666022.81549 -14255610.80548  20586080.243    20586085.823
       246.000         215.000
 00  2  4  2 23  0.0000000  0  6G24G 5G 6G17G10G30
  22664542.670   -11430439.14349  -8316804.14346  22664542.374    22664549.176
       227.000         180.000
  21491023.908   -22025210.92149 -17140827.83947  21491023.294    21491030.463
       239.000         203.000
  21462674.391   -21913646.14149 -16447454.06347  21462673.900    21462679.971
       240.000         205.000
  23578633.781   -11078166.52149  -8609278.51846  23578632.782    23578640.862
       221.000         168.000
  20737637.926   -23461153.51049 -18001042.16147  20737636.933    20737643.416
       243.000         211.000
  20587931.028   -18656295.09849 -14248030.76048  20587931.222    20587936.769
       246.000         215.000
 00  2  4  2 23 30.0000000  0  6G24G 5G 6G17G10G30
  22678767.190   -11355688.90049  -8258557.19146  22678767.406    22678774.017
       227.000         179.000
  21506135.101   -21945801.15049 -17078950.09847  21506134.243    21506141.296
       239.000         202.000
  21451837.932   -21970591.96449 -16491827.39047  21451837.602    21451843.778
       240.000         205.000
  23564333.680   -11153313.59649  -8667834.59546  23564333.222    23564341.592
       221.000         168.000
  20738884.389   -23454603.06149 -17995937.88347  20738883.530    20738890.137
       243.000         211.000
  20589891.135   -18645994.63549 -14240004.41948  20589891.385    20589896.986
       246.000         215.000
 00  2  4  2 24  0.0000000  0  6G24G 5G 6G17G10G30
  22692995.461   -11280918.56549  -8200294.57446  22692995.136    22693002.206
       227.000         179.000
  21521320.664   -21866000.31349 -17016767.62847  21521320.110    21521327.193
       239.000         202.000
  21441027.404   -22027401.51449 -16536094.53047  21441027.146    21441033.144
       241.000         205.000
  23550073.151   -11228252.84549  -8726228.74446  23550072.394    23550080.642
       222.000         169.000
  20740251.620   -23447418.04749 -17990339.13947  20740250.793    20740257.394
       243.000         211.000
  20591961.589   -18635114.40249 -14231526.30848  20591961.811    20591967.477
       246.000         215.000
 00  2  4  2 24 30.0000000  0  6G24G 5G 6G17G10G30
  22707227.408   -11206129.08949  -8142017.04046  22707227.184    22707234.553
       226.000         179.000
  21536581.129   -21785806.02749 -16954278.58447  21536580.715    21536587.812
       239.000         202.000
  21430240.481   -22084087.03849 -16580265.03047  21430240.074    21430246.164
       241.000         205.000
  23535853.353   -11302977.90749  -8784455.99746  23535852.878    23535860.323
       221.000         168.000
  20741738.759   -23439602.88349 -17984249.37047  20741737.914    20741744.538
       243.000         211.000
  20594144.368   -18623643.81349 -14222588.17948  20594144.600    20594150.131
       246.000         215.000
 00  2  4  2 25  0.0000000  0  6G24G 5G 6G17G10G30
  22721462.895   -11131321.26049  -8083725.21446  22721461.989    22721469.444
       227.000         179.000
  21551914.174   -21705230.40649 -16891492.39147  21551913.601    21551920.684
       238.000         201.000
  21419478.255   -22140642.59049 -16624334.24747  21419478.004    21419483.963
       241.000         205.000
  23521674.290   -11377488.90949  -8842516.43846  23521673.924    23521682.141
       222.000         169.000
  20743344.232   -23431165.87049 -17977675.03847  20743343.332    20743349.909
       243.000         211.000
  20596442.013   -18611569.49649 -14213179.61148  20596442.060    20596447.754
       246.000         215.000
 00  2  4  2 25 30.0000000  0  6G24G 5G 6G17G10G30
  22735701.658   -11056495.86549  -8025419.68846  22735701.351    22735708.482
       227.000         179.000
  21567317.641   -21624284.66949 -16828417.79947  21567316.817    21567323.972
       238.000         201.000
  21408741.496   -22197064.34049 -16668299.20947  21408741.207    21408747.342
       241.000         205.000
  23507537.592   -11451777.66049  -8900403.70946  23507536.431    23507544.198
       221.000         169.000
  20745063.628   -23422130.36249 -17970634.35447  20745062.822    20745069.143
       243.000         211.000
  20598858.283   -18598872.01449 -14203285.45848  20598858.417    20598863.931
       246.000         215.000
 00  2  4  2 26  0.0000000  0  6G24G 5G 6G17G10G30
  22749944.083   -10981651.24349  -7967099.19346  22749943.742    22749950.708
       226.000         178.000
  21582790.607   -21542973.70749 -16765058.61047  21582790.185    21582797.137
       238.000         201.000
  21398029.097   -22253358.34549 -16712164.62747  21398028.873    21398034.735
       241.000         206.000
  23493441.927   -11525850.86949  -8958123.01346  23493440.729    23493449.318
       222.000         169.000
  20746893.285   -23412515.31749 -17963142.08247  20746892.515    20746898.840
       243.000         211.000
  20601392.951   -18585552.21149 -14192906.38548  20601393.252    20601398.866
       246.000         215.000
 00  2  4  2 26 30.0000000  0  6G24G 5G 6G17G10G30
  22764192.953   -10906772.95549  -7908752.45946  22764192.517    22764199.789
       227.000         178.000
  21598330.263   -21461312.08949 -16701426.18447  21598329.628    21598336.768
       239.000         200.000
  21387340.516   -22309527.09449 -16755932.44147  21387340.222    21387346.228
       242.000         206.000
  23479384.152   -11599724.22949  -9015686.58746  23479383.341    23479391.006
       223.000         168.000
  20748830.327   -23402336.04949 -17955210.15447  20748829.534    20748835.920
       244.000         211.000
  20604041.556   -18571633.66549 -14182060.75448  20604041.709    20604047.350
       247.000         215.000
 00  2  4  2 27  0.0000000  0  6G24G 5G 6G17G10G30
  22778447.297   -10831865.73849  -7850383.18846  22778446.779    22778453.490
       226.000         178.000
  21613933.115   -21379318.64949 -16637535.20647  21613932.536    21613939.534
       238.000         200.000
  21376676.992   -22365564.21449 -16799597.70547  21376676.695    21376682.817
       241.000         206.000
  23465360.891   -11673416.62249  -9073109.15046  23465359.859    23465367.331
       222.000         168.000
  20750873.015   -23391601.59449 -17946845.61747  20750872.050    20750878.650
       243.000         211.000
  20606801.400   -18557130.60649 -14170759.66248  20606801.568    20606807.148
       246.000         215.000
 00  2  4  2 27 30.0000000  0  6G24G 5G 6G17G10G30
  22792706.626   -10756932.35049  -7791993.51946  22792706.588    22792713.627
       226.000         177.000
  21629599.793   -21296989.83949 -16573382.89847  21629599.390    21629606.345
       238.000         200.000
  21366037.075   -22421477.05949 -16843166.12147  21366036.910    21366042.821
       241.000         206.000
  23451368.889   -11746944.88649  -9130403.82946  23451367.796    23451375.643
       222.000         168.000
  20753023.426   -23380301.00049 -17938039.93247  20753022.581    20753029.135
       243.000         211.000
  20609670.050   -18542055.56749 -14159012.87148  20609670.162    20609675.920
       246.000         215.000
 00  2  4  2 28  0.0000000  0  6G24G 5G 6G17G10G30
  22806973.045   -10681961.71949  -7733574.83146  22806973.321    22806979.334
       226.000         177.000
  21645331.525   -21214319.29749 -16508964.30047  21645330.909    21645337.833
       237.000         199.000
  21355423.551   -22477251.37049 -16886626.58447  21355423.358    21355429.210
       241.000         206.000
  23437404.221   -11820329.25249  -9187586.36146  23437403.103    23437411.366
       222.000         168.000
  20755287.348   -23368403.79649 -17928769.35047  20755286.374    20755292.799
       243.000         211.000
  20612644.090   -18526426.86749 -14146834.65448  20612644.373    20612649.937
       246.000         215.000
 00  2  4  2 28 30.0000000  0  6G24G 5G 6G17G10G30
  22821247.761   -10606947.67549  -7675122.31846  22821247.489    22821254.979
       226.000         177.000
  21661126.751   -21131314.79449 -16444285.46847  21661126.134    21661133.144
       239.000         199.000
  21344840.729   -22532864.27649 -16929961.28347  21344840.175    21344846.226
       242.000         206.000
  23423467.605   -11893566.47249  -9244654.23846  23423466.711    23423474.841
       222.000         169.000
  20757668.990   -23355887.96949 -17919016.72847  20757668.075    20757674.784
       244.000         211.000
  20615727.487   -18510223.43849 -14134208.59648  20615727.529    20615733.383
       247.000         215.000
 00  2  4  2 29  0.0000000  0  6G24G 5G 6G17G10G30
  22835530.118   -10531893.36149  -7616638.42046  22835529.932    22835537.064
       225.000         177.000
  21676989.864   -21047953.50049 -16379328.62147  21676989.233    21676996.238
       237.000         199.000
  21334291.360   -22588301.37749 -16973158.98647  21334291.048    21334297.131
       241.000         206.000
  23409561.979   -11966640.61249  -9301595.04446  23409561.408    23409568.877
       221.000         168.000
  20760173.619   -23342726.15349 -17908760.73447  20760172.841    20760179.234
       243.000         211.000
  20618926.532   -18493412.21349 -14121108.93048  20618926.704    20618932.391
       246.000         215.000
 00  2  4  2 29 30.0000000  0  6G24G 5G 6G17G10G30
  22849821.515   -10456791.50149  -7558117.48046  22849821.278    22849828.307
       226.000         176.000
  21692923.419   -20964222.32349 -16314083.55847  21692923.022    21692929.798
       237.000         199.000
  21323777.040   -22643554.47649 -17016213.31647  21323776.846    21323782.873
       241.000         207.000
  23395692.083   -12039526.93149  -9358389.48946  23395690.670    23395699.574
       221.000         168.000
  20762804.501   -23328900.64849 -17897987.58747  20762803.580    20762809.871
       243.000         211.000
  20622243.501   -18475981.40649 -14107526.47748  20622243.578    20622249.313
       246.000         215.000
 00  2  4  2 30  0.0000000  0  6G24G 5G 6G17G10G30
  22864121.761   -10381643.13549  -7499560.28646  22864121.318    22864128.237
       227.000         176.000
  21708926.142   -20880127.66149 -16248555.25547  21708925.434    21708932.345
       238.000         198.000
  21313299.581   -22698613.68949 -17059116.55847  21313299.160    21313305.439
       242.000         207.000
  23381863.112   -12112198.14749  -9415016.32546  23381862.563    23381870.092
       224.000         169.000
  20765560.464   -23314417.71449 -17886702.14847  20765559.392    20765566.009
       244.000         211.000
  20625678.210   -18457931.99449 -14093461.98848  20625678.300    20625684.055
       248.000         215.000
 00  2  4  2 30 30.0000000  0  6G24G 5G 6G17G10G30
  22878426.609   -10306470.70849  -7440984.36046  22878425.765    22878433.626
       226.000         176.000
  21724997.083   -20795674.08549 -16182747.29147  21724996.438    21725003.264
       237.000         198.000
  21302857.506   -22753487.17049 -17101875.08447  21302857.299    21302863.225
       242.000         207.000
  23368079.801   -12184629.51649  -9471456.27046  23368079.395    23368086.586
       221.000         169.000
  20768436.710   -23299302.85349 -17874924.31047  20768435.961    20768442.438
       244.000         211.000
  20629232.244   -18439255.49149 -14078908.86748  20629232.430    20629238.055
       247.000         215.000
 00  2  4  2 31  0.0000000  0  6G24G 5G 6G17G10G30
  22892733.720   -10231286.29649  -7382399.09246  22892732.671    22892740.222
       225.000         176.000
  21741135.057   -20710868.40749 -16116664.94347  21741134.566    21741141.361
       237.000         198.000
  21292446.370   -22808197.89049 -17144506.77847  21292446.166    21292452.204
       241.000         207.000
  23354343.192   -12256815.65049  -9527705.11646  23354342.215    23354349.524
       222.000         169.000
  20771430.449   -23283570.61749 -17862665.39647  20771429.539    20771435.942
       243.000         211.000
  20632898.675   -18419988.08949 -14063895.29848  20632898.801    20632904.346
       246.000         215.000
 00  2  4  2 31 30.0000000  0  6G24G 5G 6G17G10G30
  22907042.109   -10156095.07249  -7323808.50046  22907041.255    22907048.601
       224.000         175.000
  21757334.287   -20625740.91749 -16050331.84347  21757333.461    21757340.589
       237.000         197.000
  21282063.228   -22862761.56549 -17187023.88847  21282062.765    21282068.980
       242.000         207.000
  23340651.344   -12328766.63849  -9583770.75346  23340650.334    23340657.450
       222.000         169.000
  20774538.144   -23267239.51149 -17849939.82847  20774537.127    20774543.593
       243.000         211.000
  20636670.301   -18400168.04549 -14048451.10048  20636670.490    20636676.018
       247.000         215.000
 00  2  4  2 32  0.0000000  0  6G24G 5G 6G17G10G30
  22921350.282   -10080905.02249  -7265218.83646  22921350.379    22921356.977
       226.000         175.000
  21773592.795   -20540301.92349 -15983756.02147  21773592.286    21773599.270
       237.000         197.000
  21271706.326   -22917187.12149 -17229433.38347  21271705.984    21271711.882
       242.000         207.000
  23326999.770   -12400505.92049  -9639671.40646  23326999.075    23327006.580
       223.000         169.000
  20777756.759   -23250325.34449 -17836759.93547  20777755.999    20777762.153
       244.000         211.000
  20640546.543   -18379798.12949 -14032578.43748  20640546.867    20640552.274
       247.000         215.000
 00  2  4  2 32 30.0000000  0  6G24G 5G 6G17G10G30
  22935658.049   -10005716.92149  -7206630.67946  22935658.334    22935664.784
       227.000         175.000
  21789909.797   -20454555.46549 -15916940.60947  21789909.120    21789916.438
       237.000         197.000
  21261375.991   -22971472.97549 -17271734.01147  21261375.466    21261381.617
       243.000         207.000
  23313384.324   -12472055.16849  -9695423.99246  23313384.120    23313391.722
       223.000         169.000
  20781085.105   -23232834.67249 -17823130.81047  20781083.935    20781090.449
       245.000         211.000
  20644529.070   -18358869.82049 -14016270.65848  20644529.250    20644534.966
       248.000         215.000
 00  2  4  2 33  0.0000000  0  6G24G 5G 6G17G10G30
  22949969.759    -9930508.36949  -7148026.59246  22949969.826    22949976.364
       225.000         174.000
  21806285.211   -20368502.05149 -15849886.00647  21806284.413    21806291.547
       237.000         196.000
  21251075.039   -23025604.72749 -17313914.56247  21251074.657    21251080.482
       243.000         208.000
  23299800.803   -12543436.59349  -9751045.80346  23299800.164    23299808.108
       224.000         170.000
  20784526.712   -23214748.75749 -17809037.86247  20784525.732    20784532.092
       245.000         211.000
  20648620.168   -18337370.89349 -13999518.24548  20648620.248    20648625.816
       247.000         215.000
 00  2  4  2 33 30.0000000  0  6G24G 5G 6G17G10G30
  22964288.231    -9855264.01349  -7089394.60146  22964288.124    22964295.247
       225.000         174.000
  21822720.636   -20282133.48649 -15782585.82547  21822720.145    21822726.977
       237.000         196.000
  21240809.825   -23079548.46849 -17355948.60847  21240809.464    21240815.591
       243.000         208.000
  23286247.558   -12614658.73349  -9806543.50346  23286246.097    23286253.885
       224.000         170.000
  20788082.588   -23196062.35749 -17794477.00147  20788081.571    20788088.041
       244.000         211.000
  20652827.634   -18315260.51349 -13982289.37648  20652827.715    20652833.222
       247.000         215.000
 00  2  4  2 34  0.0000000  0  6G24G 5G 6G17G10G30
  22978615.918    -9779971.49949  -7030725.07646  22978615.446    22978622.382
       225.000         173.000
  21839220.149   -20195427.97149 -15715023.09847  21839219.133    21839226.413
       237.000         196.000
  21230585.294   -23133278.79849 -17397816.36547  21230585.042    21230591.116
       243.000         208.000
  23272725.994   -12685715.15549  -9861912.07546  23272724.228    23272732.528
       225.000         171.000
  20791753.648   -23176770.58549 -17779444.42947  20791752.439    20791759.021
       244.000         211.000
  20657157.128   -18292508.90049 -13964560.84748  20657157.168    20657162.764
       247.000         215.000
 00  2  4  2 34 30.0000000  0  6G24G 5G 6G17G10G30
  22992953.156    -9704628.45149  -6972016.18546  22992952.630    22992959.645
       224.000         173.000
  21855785.160   -20108378.26149 -15647192.16347  21855784.525    21855791.569
       236.000         196.000
  21220405.375   -23186774.72249 -17439501.46647  21220404.809    21220410.861
       243.000         208.000
  23259240.095   -12756583.64449  -9917134.21846  23259239.114    23259247.126
       223.000         171.000
  20795542.714   -23156858.79449 -17763928.72347  20795541.636    20795548.007
       244.000         210.000
  20661608.423   -18269117.10449 -13946333.47748  20661608.486    20661614.072
       247.000         215.000
 00  2  4  2 35  0.0000000  0  6G24G 5G 6G17G10G30
  23007300.660    -9629232.19149  -6913265.82946  23007300.098    23007307.489
       224.000         173.000
  21872415.244   -20020986.62449 -15579094.79247  21872414.612    21872421.753
       235.000         195.000
  21210268.808   -23240042.57949 -17481008.86047  21210268.377    21210274.531
       242.000         208.000
  23245793.582   -12827245.23749  -9972195.12546  23245792.942    23245800.044
       223.000         172.000
  20799450.968   -23136320.55349 -17747924.87547  20799450.150    20799456.635
       243.000         210.000
  20666181.410   -18245085.78049 -13927607.77448  20666181.580    20666187.281
       246.000         215.000
 00  2  4  2 35 30.0000000  0  6G24G 5G 6G17G10G30
  23021654.866    -9553799.97949  -6854487.45546  23021653.921    23021661.409
       222.000         172.000
  21889110.237   -19933253.96049 -15510731.68247  21889109.725    21889116.656
       234.000         195.000
  21200172.314   -23293099.92249 -17522352.21047  21200171.966    21200178.189
       242.000         208.000
  23232391.733   -12897671.92449 -10027073.00646  23232390.870    23232398.378
       224.000         172.000
  20803475.393   -23115172.02849 -17731445.47847  20803474.504    20803480.905
       243.000         210.000
  20670871.939   -18220437.01549 -13908400.94248  20670872.163    20670877.747
       246.000         215.000
 00  2  4  2 36  0.0000000  0  6G24G 5G 6G17G10G30
  23036012.469    -9478349.97849  -6795695.20646  23036011.881    23036019.458
       224.000         171.000
  21905866.566   -19845198.66949 -15442117.17547  21905865.815    21905873.254
       236.000         194.000
  21190110.222   -23345976.57049 -17563554.76447  21190109.882    21190115.975
       244.000         209.000
  23219034.436   -12967864.93249 -10081768.79146  23219034.037    23219040.625
       226.000         173.000
  20807613.068   -23093428.27249 -17714502.26547  20807612.300    20807618.456
       245.000         210.000
  20675675.448   -18195194.29549 -13888731.29348  20675675.618    20675681.143
       248.000         215.000
 00  2  4  2 36 30.0000000  0  6G24G 5G 6G17G10G30
  23050371.900    -9402890.51249  -6736895.60246  23050370.980    23050378.280
       223.000         170.000
  21922680.792   -19756839.31049 -15373265.74047  21922680.604    21922687.006
       234.000         194.000
  21180079.807   -23398686.61649 -17604627.49547  21180079.426    21180085.438
       243.000         209.000
  23205721.722   -13037823.44849 -10136281.84746  23205721.034    23205727.858
       224.000         173.000
  20811861.572   -23071102.12949 -17697105.25047  20811860.899    20811867.218
       243.000         210.000
  20680588.702   -18169375.03949 -13868612.39848  20680588.826    20680594.484
       246.000         214.000
 00  2  4  2 37  0.0000000  0  6G24G 5G 6G17G10G30
  23064731.226    -9327431.56949  -6678096.39246  23064730.799    23064737.782
       223.000         170.000
  21939550.734   -19668187.29249 -15304186.25547  21939549.806    21939557.214
       235.000         194.000
  21170076.152   -23451255.97049 -17645590.58647  21170075.772    21170081.764
       244.000         209.000
  23192449.651   -13107568.62549 -10190628.66946  23192449.012    23192457.004
       225.000         174.000
  20816217.444   -23048211.79849 -17679268.59947  20816216.433    20816222.657
       244.000         210.000
  20685608.850   -18142994.07749 -13848055.79948  20685608.881    20685614.582
       246.000         214.000
 00  2  4  2 37 30.0000000  0  6G24G 5G 6G17G10G30
  23079088.089    -9251985.58249  -6619307.28946  23079088.460    23079094.430
       224.000         170.000
  21956476.382   -19579242.36949 -15234878.53247  21956475.758    21956482.378
       236.000         194.000
  21160098.766   -23503687.53549 -17686446.31447  21160098.619    21160104.366
       245.000         209.000
  23179214.093   -13177121.54949 -10244825.68046  23179214.014    23179220.562
       225.000         174.000
  20820678.509   -23024768.70449 -17661001.22747  20820677.585    20820683.828
       244.000         210.000
  20690732.356   -18116069.78849 -13827075.83248  20690732.454    20690738.043
       247.000         214.000
 00  2  4  2 38  0.0000000  0  6G24G 5G 6G17G10G30
  23093442.171    -9176554.39049  -6560529.71746  23093442.373    23093449.271
       222.000         169.000
  21973456.777   -19490010.05749 -15165346.87247  21973456.333    21973463.305
       234.000         193.000
  21150149.008   -23555973.62049 -17727188.68447  21150148.447    21150154.469
       243.000         209.000
  23166010.680   -13246505.48549 -10298891.02446  23166010.105    23166017.173
       224.000         174.000
  20825246.744   -23000762.39349 -17642294.98447  20825245.852    20825252.325
       243.000         210.000
  20695959.927   -18088598.65949 -13805669.76148  20695960.235    20695965.867
       245.000         214.000
 00  2  4  2 38 30.0000000  0  6G24G 5G 6G17G10G30
  23107793.209    -9101139.18549  -6501764.59546  23107793.198    23107799.461
       222.000         169.000
  21990493.320   -19400482.42349 -15095585.10147  21990492.849    21990499.597
       233.000         193.000
  21140227.851   -23608109.32049 -17767813.86847  21140227.475    21140233.567
       243.000         209.000
  23152841.430   -13315710.23849 -10352816.74146  23152841.122    23152848.132
       225.000         175.000
  20829925.932   -22976172.93949 -17623134.34947  20829925.043    20829931.271
       243.000         210.000
  20701289.603   -18060591.06249 -13783845.66348  20701289.795    20701295.359
       245.000         214.000
 00  2  4  2 39  0.0000000  0  6G24G 5G 6G17G10G30
  23122140.997    -9025741.39249  -6443013.04946  23122140.275    23122146.864
       221.000         169.000
  22007586.080   -19310659.41249 -15025593.15947  22007585.576    22007592.669
       234.000         193.000
  21130335.998   -23660091.20149 -17808319.19547  21130335.733    21130341.501
       244.000         210.000
  23139706.712   -13384733.51949 -10406601.04446  23139705.595    23139713.482
       225.000         176.000
  20834720.869   -22950975.37749 -17603499.85647  20834719.864    20834726.378
       242.000         210.000
  20706724.304   -18032031.56249 -13761591.50848  20706724.553    20706730.121
       245.000         214.000
 00  2  4  2 39 30.0000000  0  6G24G 5G 6G17G10G30
  23136488.308    -8950345.66249  -6384263.10946  23136487.563    23136494.914
       222.000         169.000
  22024736.214   -19220534.86649 -14955366.24347  22024735.503    22024742.332
       234.000         192.000
  21120476.799   -23711901.62549 -17848690.91747  21120476.398    21120482.339
       244.000         210.000
  23126609.125   -13453561.65249 -10460233.28846  23126608.412    23126615.871
       226.000         176.000
  20839635.031   -22925151.10249 -17583377.01247  20839634.002    20839640.408
       244.000         210.000
  20712268.683   -18002895.64649 -13738888.19248  20712268.765    20712274.353
       246.000         214.000
 00  2  4  2 40  0.0000000  0  6G24G 5G 6G17G10G30
  23150838.827    -8874933.19349  -6325500.13146  23150837.998    23150844.515
       222.000         168.000
  22041943.915   -19130107.73949 -14884903.55547  22041943.110    22041950.471
       233.000         192.000
  21110655.111   -23763514.78449 -17888908.93747  21110654.718    21110660.612
       244.000         210.000
  23113550.953   -13522182.15049 -10513703.74146  23113549.992    23113557.753
       226.000         177.000
  20844673.681   -22898672.68149 -17562744.45047  20844672.553    20844679.020
       243.000         209.000
  20717927.330   -17973159.36049 -13715717.06348  20717927.257    20717933.051
       245.000         214.000
 00  2  4  2 40 30.0000000  0  6G24G 5G 6G17G10G30
  23165196.072    -8799485.27149  -6266709.53146  23165195.119    23165202.300
       222.000         168.000
  22059210.325   -19039372.12649 -14814200.48447  22059209.567    22059216.489
       233.000         191.000
  21100874.671   -23814911.18249 -17928958.04947  21100874.289    21100880.235
       244.000         210.000
  23100534.338   -13590585.04649 -10567004.63246  23100533.304    23100540.939
       226.000         177.000
  20849836.537   -22871541.71849 -17541603.41147  20849835.399    20849841.945
       244.000         209.000
  20723702.533   -17942810.41549 -13692068.53348  20723702.579    20723708.138
       246.000         214.000
 00  2  4  2 41  0.0000000  0  6G24G 5G 6G17G10G30
  23179561.915    -8723991.98449  -6207883.58646  23179562.163    23179568.915
       222.000         168.000
  22076537.014   -18948319.71349 -14743250.56147  22076536.372    22076543.500
       234.000         191.000
  21091137.958   -23866077.95049 -17968828.23047  21091137.659    21091143.501
       245.000         210.000
  23087557.193   -13658780.08649 -10620143.55946  23087556.487    23087563.629
       227.000         177.000
  20855121.335   -22843769.60549 -17519962.78147  20855120.321    20855126.936
       244.000         210.000
  20729595.621   -17911842.11349 -13667937.39448  20729595.510    20729601.318
       247.000         214.000
 00  2  4  2 41 30.0000000  0  6G24G 5G 6G17G10G30
  23193935.792    -8648456.65749  -6149024.88146  23193935.652    23193942.709
       220.000         168.000
  22093925.078   -18856944.85149 -14672049.38347  22093924.484    22093931.273
       232.000         191.000
  21081447.250   -23917002.88149 -18008509.96647  21081447.168    21081452.992
       244.000         210.000
  23074619.310   -13726769.04649 -10673121.90846  23074618.794    23074626.194
       226.000         177.000
  20860523.582   -22815380.58049 -17497841.44247  20860522.491    20860528.848
       242.000         209.000
  20735603.777   -17880269.13949 -13643335.08748  20735603.800    20735609.617
       245.000         213.000
 00  2  4  2 42  0.0000000  0  7G24G 5G 6G17G10G30G13
  23208314.659    -8572894.92049  -6090145.58546  23208314.358    23208320.745
       222.000         168.000
  22111370.707   -18765267.60049 -14600612.57047  22111369.737    22111377.302
       233.000         190.000
  21071802.829   -23967684.28749 -18048001.93647  21071802.395    21071808.183
       245.000         210.000
  23061720.257   -13794553.57449 -10725940.95146  23061719.324    23061726.780
       227.000         177.000
  20866038.510   -22786399.54649 -17475258.78947  20866037.503    20866043.829
       244.000         209.000
  20741721.534   -17848119.94449 -13618283.76648  20741721.605    20741727.193
       246.000         213.000
  24836850.461    -2327053.11049  -1804054.41445  24836851.625    24836856.150
       207.000         138.000
 00  2  4  2 42 30.0000000  0  7G24G 5G 6G17G10G30G13
  23222695.047    -8497325.81849  -6031260.56146  23222695.043    23222701.889
       220.000         168.000
  22128871.771   -18673298.85349 -14528948.63047  22128871.261    22128878.064
       232.000         190.000
  21062199.902   -24018147.84549 -18087324.16147  21062199.623    21062205.467
       244.000         210.000
  23048860.107   -13862133.57749 -10778600.62946  23048859.906    23048867.376
       225.000         178.000
  20871659.206   -22756862.27749 -17452242.71447  20871658.342    20871664.604
       243.000         209.000
  20747944.342   -17815418.75149 -13592802.32648  20747944.577    20747950.355
       245.000         213.000
  24832826.644    -2348197.63449  -1820530.59545  24832827.181    24832833.372
       209.000         138.000
 00  2  4  2 43  0.0000000  0  7G24G 5G 6G17G10G30G13
  23237072.133    -8421773.52949  -5972388.63646  23237071.920    23237078.494
       221.000         168.000
  22146424.862   -18581056.72649 -14457071.65747  22146424.289    22146431.376
       232.000         189.000
  21052634.897   -24068412.31449 -18126491.25747  21052634.594    21052640.423
       244.000         211.000
  23036037.568   -13929516.30449 -10831106.59446  23036036.913    23036044.191
       226.000         178.000
  20877382.942   -22726783.78649 -17428804.89847  20877382.159    20877388.318
       243.000         209.000
  20754268.226   -17782186.42249 -13566907.00648  20754268.459    20754274.050
       245.000         213.000
  24828884.677    -2368912.51649  -1836671.99945  24828884.131    24828890.661
       209.000         139.000
 00  2  4  2 43 30.0000000  0  7G24G 5G 6G17G10G30G13
  23251444.002    -8346248.68249  -5913538.08846  23251443.820    23251450.544
       221.000         167.000
  22164022.855   -18488578.81049 -14385010.95847  22164022.107    22164028.930
       232.000         189.000
  21043105.062   -24118491.88649 -18165514.26647  21043104.732    21043110.625
       245.000         211.000
  23023252.417   -13996702.51149 -10883459.40846  23023251.155    23023258.958
       228.000         178.000
  20883205.708   -22696184.93249 -17404961.60947  20883204.698    20883210.952
       244.000         209.000
  20760693.351   -17748422.20549 -13540597.22848  20760693.311    20760698.970
       246.000         213.000
  24825020.929    -2389216.97149  -1852493.59245  24825020.676    24825025.992
       209.000         139.000
 00  2  4  2 44  0.0000000  0  7G24G 5G 6G17G10G30G13
  23265812.027    -8270744.05449  -5854703.30546  23265811.974    23265818.851
       220.000         167.000
  22181665.392   -18395866.47149 -14312767.59647  22181664.563    22181671.940
       231.000         188.000
  21033608.386   -24168397.12849 -18204401.44647  21033607.966    21033613.810
       244.000         211.000
  23010505.026   -14063690.42049 -10935657.72046  23010504.909    23010511.850
       227.000         179.000
  20889128.855   -22665058.32649 -17380707.09047  20889127.938    20889134.260
       243.000         209.000
  20767220.941   -17714119.34749 -13513867.74148  20767221.082    20767226.696
       245.000         213.000
  24821235.125    -2409111.10049  -1867995.44745  24821235.706    24821241.489
       209.000         139.000
 00  2  4  2 44 30.0000000  0  7G24G 5G 6G17G10G30G13
  23280176.231    -8195259.49249  -5795884.15946  23280175.660    23280182.443
       221.000         168.000
  22199354.682   -18302908.44349 -14240332.79247  22199354.267    22199361.366
       231.000         188.000
  21024145.779   -24218123.33249 -18243149.10947  21024145.677    21024151.516
       244.000         211.000
  22997795.548   -14130479.01649 -10987700.72146  22997794.608    22997801.802
       226.000         179.000
  20895155.922   -22633385.69149 -17356027.09547  20895155.025    20895161.346
       242.000         209.000
  20773853.868   -17679263.06849 -13486707.01548  20773854.020    20773859.623
       245.000         213.000
  24817524.362    -2428611.22049  -1883190.27445  24817524.455    24817530.029
       208.000         139.000
 00  2  4  2 45  0.0000000  0  7G24G 5G 6G17G10G30G13
  23294539.225    -8119781.29149  -5737069.95046  23294538.597    23294545.973
       221.000         168.000
  22217089.934   -18209709.39049 -14167710.17147  22217089.389    22217096.034
       231.000         188.000
  21014721.363   -24267649.01349 -18281740.52147  21014721.191    21014726.734
       244.000         211.000
  22985124.183   -14197067.12949 -11039587.49846  22985123.520    22985130.798
       226.000         179.000
  20901291.317   -22601144.02949 -17330903.69947  20901290.398    20901296.743
       242.000         209.000
  20780595.282   -17643836.75049 -13459102.09648  20780595.513    20780601.045
       245.000         213.000
  24813889.982    -2447710.42449  -1898072.71345  24813890.011    24813895.418
       209.000         139.000
 00  2  4  2 45 30.0000000  0  7G24G 5G 6G17G10G30G13
  23308901.898    -8044304.70449  -5678257.01446  23308901.743    23308908.877
       220.000         168.000
  22234872.822   -18116259.73349 -14094892.27246  22234872.508    22234879.537
       231.000         187.000
  21005336.617   -24316965.87849 -18320169.21447  21005336.338    21005342.027
       245.000         211.000
  22972491.498   -14263451.96349 -11091315.86746  22972490.596    22972497.952
       226.000         180.000
  20907536.381   -22568325.88149 -17305331.09447  20907535.494    20907541.699
       242.000         209.000
  20787446.263   -17607834.62449 -13431048.49548  20787446.370    20787452.054
       245.000         213.000
  24810335.804    -2466387.14649  -1912625.95045  24810335.552    24810340.008
       207.000         139.000
 00  2  4  2 46  0.0000000  0  7G24G 5G 6G17G10G30G13
  23323263.128    -7968835.92849  -5619450.16746  23323263.181    23323270.011
       220.000         168.000
  22252706.970   -18022540.65949 -14021864.43946  22252706.352    22252713.274
       231.000         187.000
  20995994.540   -24366058.87149 -18358423.46447  20995994.056    20995999.963
       244.000         211.000
  22959897.264   -14329634.91249 -11142886.93746  22959896.764    22959903.337
       227.000         180.000
  20913895.645   -22534907.56849 -17279290.82847  20913894.692    20913901.021
       242.000         209.000
  20794406.077   -17571260.46349 -13402549.15748  20794406.202    20794411.892
       245.000         213.000
  24806864.759    -2484627.16549  -1926838.90045  24806863.686    24806870.062
       207.000         138.000
 00  2  4  2 46 30.0000000  0  7G24G 5G 6G17G10G30G13
  23337624.302    -7893367.85649  -5560643.86346  23337624.379    23337631.366
       221.000         168.000
  22270591.658   -17928556.24549 -13948629.84946  22270590.621    22270597.914
       230.000         187.000
  20986697.699   -24414913.98649 -18396492.35847  20986697.462    20986703.313
       244.000         211.000
  22947341.878   -14395613.61949 -11194298.84446  22947341.096    22947348.367
       227.000         180.000
  20920369.514   -22500887.01749 -17252781.29147  20920368.530    20920374.707
       242.000         208.000
  20801476.149   -17534107.06749 -13373598.46747  20801476.328    20801481.922
       245.000         212.000
  24803480.680    -2502410.49849  -1940695.97445  24803480.558    24803485.166
       208.000         137.000
 00  2  4  2 47  0.0000000  0  7G24G 5G 6G17G10G30G13
  23351987.994    -7817886.29149  -5501827.03546  23351987.765    23351994.867
       220.000         168.000
  22288528.107   -17834299.69649 -13875183.20446  22288527.114    22288535.052
       230.000         187.000
  20977445.384   -24463535.09649 -18434378.90847  20977444.997    20977450.668
       244.000         211.000
  22934825.717   -14461386.09149 -11245550.05446  22934824.701    22934832.234
       226.000         180.000
  20926954.776   -22466280.92649 -17225815.48947  20926954.011    20926960.258
       243.000         208.000
  20808657.452   -17496369.03049 -13344192.20847  20808657.556    20808663.117
       245.000         212.000
  24800188.886    -2519708.21549  -1954174.67445  24800188.956    24800194.268
       207.000         138.000
 00  2  4  2 47 30.0000000  0  7G24G 5G 6G17G10G30G13
  23366352.330    -7742401.12849  -5443007.42346  23366351.931    23366358.776
       221.000         168.000
  22306517.861   -17739762.73749 -13801518.05946  22306517.539    22306524.033
       230.000         186.000
  20968234.245   -24511939.93749 -18472096.93447  20968233.994    20968239.799
       244.000         212.000
  22922347.372   -14526959.94449 -11296646.49546  22922346.320    22922353.319
       227.000         180.000
  20933648.546   -22431104.89349 -17198405.57447  20933647.687    20933653.749
       243.000         208.000
  20815948.432   -17458054.49249 -13314336.72647  20815948.389    20815954.319
       244.000         212.000
  24796990.600    -2536514.95249  -1967270.75545  24796990.681    24796995.948
       208.000         138.000
 00  2  4  2 48  0.0000000  0  7G24G 5G 6G17G10G30G13
  23380718.206    -7666907.90949  -5384181.52246  23380718.196    23380724.684
       220.000         168.000
  22324558.261   -17644959.84249 -13727645.68246  22324558.060    22324564.778
       230.000         186.000
  20959062.616   -24560136.92649 -18509653.00247  20959062.233    20959068.189
       244.000         212.000
  22909906.894   -14592334.97049 -11347588.00846  22909906.042    22909913.574
       227.000         180.000
  20940447.269   -22395377.34549 -17170565.90947  20940446.471    20940452.553
       243.000         208.000
  20823348.782   -17419165.27449 -13284033.44747  20823348.945    20823354.670
       244.000         212.000
  24793883.617    -2552842.11249  -1979993.17445  24793883.602    24793888.513
       208.000         137.000
 00  2  4  2 48 30.0000000  0  7G24G 5G 6G17G10G30G13
  23395086.854    -7591400.11649  -5325344.26046  23395086.439    23395093.143
       221.000         168.000
  22342647.592   -17549899.99749 -13653573.08046  22342646.638    22342653.862
       230.000         185.000
  20949928.222   -24608138.41849 -18547056.72747  20949928.067    20949933.632
       245.000         212.000
  22897502.898   -14657518.32949 -11398380.17846  22897502.369    22897509.274
       227.000         180.000
  20947346.519   -22359121.47849 -17142314.56847  20947345.474    20947351.756
       243.000         208.000
  20830857.147   -17379708.51749 -13253287.92547  20830857.368    20830863.127
       244.000         212.000
  24790865.274    -2568703.75549  -1992352.85345  24790864.691    24790869.974
       208.000         137.000
 00  2  4  2 49  0.0000000  0  7G24G 5G 6G17G10G30G13
  23409455.526    -7515892.12849  -5266506.85646  23409455.581    23409461.675
       221.000         168.000
  22360784.354   -17454590.98349 -13579306.33046  22360783.662    22360790.548
       230.000         185.000
  20940829.509   -24655952.53249 -18584314.44447  20940829.126    20940835.006
       245.000         212.000
  22885135.506   -14722508.84149 -11449022.06346  22885134.041    22885141.917
       227.000         180.000
  20954346.804   -22322334.94449 -17113649.71747  20954345.958    20954352.250
       243.000         208.000
  20838470.326   -17339701.16849 -13222113.37147  20838470.597    20838476.392
       244.000         212.000
  24787932.259    -2584116.66649  -2004362.86045  24787931.462    24787937.346
       209.000         138.000
 00  2  4  2 49 30.0000000  0  7G24G 5G 6G17G10G30G13
  23423821.208    -7440399.94149  -5207681.76446  23423821.456    23423827.869
       221.000         168.000
  22378963.944   -17359056.79949 -13504864.12146  22378963.796    22378969.977
       229.000         184.000
  20931767.124   -24703575.44949 -18621423.18047  20931766.849    20931772.668
       245.000         212.000
  22872806.416   -14787298.26049 -11499507.27346  22872805.736    22872812.651
       227.000         180.000
  20961449.655   -22285009.16349 -17084564.67847  20961448.791    20961454.875
       242.000         208.000
  20846186.005   -17299155.23349 -13190519.14247  20846186.326    20846192.001
       244.000         212.000
  24785083.140    -2599087.97749  -2016028.76345  24785082.804    24785088.262
       207.000         138.000
 00  2  4  2 50  0.0000000  0  7G24G 5G 6G17G10G30G13
  23438182.694    -7364930.00449  -5148874.00346  23438182.264    23438188.938
       220.000         167.000
  22397183.586   -17263312.05249 -13430257.83946  22397182.633    22397189.603
       229.000         184.000
  20922743.276   -24750995.80649 -18658374.07247  20922743.186    20922748.696
       244.000         212.000
  22860516.201   -14851883.25949 -11549833.18646  22860515.504    22860522.866
       226.000         180.000
  20968655.267   -22247143.28849 -17055058.78147  20968654.393    20968660.412
       243.000         208.000
  20854004.187   -17258070.46149 -13158505.04047  20854004.403    20854010.045
       244.000         212.000
  24782316.979    -2613623.67749  -2027355.21745  24782317.219    24782322.099
       210.000         139.000
 00  2  4  2 50 30.0000000  0  7G24G 5G 6G17G10G30G13
  23452537.372    -7289495.67749  -5090093.99546  23452537.016    23452544.109
       220.000         167.000
  22415443.931   -17167353.27749 -13355484.77946  22415443.381    22415450.689
       230.000         184.000
  20913759.992   -24798203.12449 -18695158.96047  20913759.576    20913765.201
       244.000         212.000
  22848265.278   -14916262.03749 -11599998.41246  22848264.576    22848271.910
       226.000         180.000
  20975967.859   -22208715.46149 -17025115.00247  20975967.050    20975973.100
       243.000         208.000
  20861925.161   -17216445.53349 -13126070.03347  20861925.370    20861931.012
       244.000         212.000
  24779635.156    -2627717.17949  -2038337.13445  24779635.275    24779639.998
       209.000         139.000
 00  2  4  2 51  0.0000000  0  7G24G 5G 6G17G10G30G13
  23466884.138    -7214102.72449  -5031346.22446  23466884.454    23466890.404
       219.000         166.000
  22433744.704   -17071182.30549 -13280546.36946  22433744.152    22433751.498
       230.000         183.000
  20904819.545   -24845185.34249 -18731768.44747  20904819.315    20904824.953
       244.000         212.000
  22836056.041   -14980422.02849 -11649993.15646  22836054.868    22836062.118
       227.000         180.000
  20983390.371   -22169709.82349 -16994720.97947  20983389.492    20983395.589
       243.000         208.000
  20869951.086   -17174268.99749 -13093205.20947  20869951.503    20869956.911
       244.000         212.000
  24777040.288    -2641352.67049  -2048962.14945  24777040.332    24777045.511
       211.000         139.000
 00  2  4  2 51 30.0000000  0  7G24G 5G 6G17G10G30G13
  23481224.035    -7138745.67549  -4972626.43046  23481223.767    23481231.124
       219.000         166.000
  22452088.441   -16974785.23849 -13205431.77546  22452087.913    22452095.032
       229.000         183.000
  20895926.227   -24891920.02049 -18768185.04147  20895926.211    20895931.880
       245.000         212.000
  22823887.602   -15044367.49049 -11699820.73446  22823886.772    22823894.287
       228.000         180.000
  20990922.687   -22130126.97449 -16963877.17947  20990921.627    20990927.799
       243.000         208.000
  20878084.876   -17131525.70849 -13059898.75747  20878085.052    20878090.646
       245.000         211.000
  24774535.531    -2654515.99849  -2059219.22845  24774535.476    24774541.248
       209.000         139.000
 00  2  4  2 52  0.0000000  0  7G24G 5G 6G17G10G30G13
  23495560.574    -7063406.59349  -4913920.64246  23495560.862    23495566.924
       219.000         165.000
  22470478.510   -16878144.66949 -13130127.44146  22470478.411    22470484.756
       229.000         183.000
  20887082.656   -24938393.41449 -18804398.04748  20887082.364    20887087.891
       244.000         213.000
  22811758.612   -15108105.51549 -11749486.67946  22811757.439    22811765.336
       228.000         181.000
  20998566.656   -22089957.62349 -16932576.36347  20998565.765    20998572.006
       243.000         207.000
  20886329.201   -17088201.39949 -13026139.56347  20886329.285    20886334.761
       244.000         211.000
  24772122.762    -2667194.15249  -2069098.26745  24772123.526    24772128.162
       207.000         139.000
 00  2  4  2 52 30.0000000  0  7G24G 5G 6G17G10G30G13
  23509896.767    -6988069.48749  -4855216.38746  23509896.427    23509902.763
       219.000         165.000
  22488918.045   -16781244.08149 -13054620.50146  22488917.506    22488924.447
       229.000         183.000
  20878291.100   -24984593.30649 -18840397.92848  20878290.620    20878296.365
       244.000         213.000
  22799669.785   -15171632.47549 -11798988.15646  22799668.968    22799676.263
       228.000         181.000
  21006324.017   -22049192.17849 -16900811.06347  21006323.195    21006329.454
       243.000         207.000
  20894683.091   -17044301.60849 -12991931.94047  20894683.362    20894688.988
       244.000         211.000
  24769806.965    -2679362.93449  -2078580.39645  24769807.029    24769811.934
       208.000         138.000
 00  2  4  2 53  0.0000000  0  7G24G 5G 6G17G10G30G13
  23524234.226    -6912725.26449  -4796506.59146  23524234.421    23524240.763
       219.000         164.000
  22507406.525   -16684086.59649 -12978913.38246  22507405.527    22507413.163
       230.000         183.000
  20869551.134   -25030521.96249 -18876186.45848  20869550.921    20869556.550
       244.000         213.000
  22787619.188   -15234958.65649 -11848333.18746  22787618.720    22787625.045
       228.000         181.000
  21014191.158   -22007850.01949 -16868596.37247  21014189.989    21014196.321
       243.000         207.000
  20903144.336   -16999837.48649 -12957284.57747  20903144.644    20903150.173
       244.000         211.000
  24767589.193    -2691017.22249  -2087661.61445  24767589.525    24767593.705
       209.000         138.000
 00  2  4  2 53 30.0000000  0  8G24G26G 5G 6G17G10G30G13
  23538574.126    -6837368.37749  -4737786.92046  23538573.555    23538580.608
       217.000         163.000
  24363934.410    -2945920.30449  -2271222.65845  24363934.329    24363941.146
       212.000         142.000
  22525943.840   -16586672.38649 -12903006.22846  22525943.224    22525949.799
       229.000         182.000
  20860860.714   -25076190.31049 -18911772.14948  20860860.237    20860865.991
       244.000         213.000
  22775605.668   -15298090.16249 -11897526.52046  22775605.257    22775611.686
       228.000         182.000
  21022165.185   -21965946.06649 -16835943.92147  21022164.139    21022170.525
       242.000         207.000
  20911707.561   -16954837.34849 -12922219.54047  20911707.646    20911713.306
       244.000         211.000
  24765466.074    -2702174.03349  -2096355.18345  24765466.784    24765471.139
       208.000         137.000
 00  2  4  2 54  0.0000000  0  8G24G26G 5G 6G17G10G30G13
  23552916.481    -6761998.91649  -4679057.46645  23552915.686    23552923.459
       218.000         162.000
  24347600.480    -3031755.27949  -2338106.99745  24347601.007    24347608.160
       213.000         143.000
  22544528.002   -16489011.94749 -12826907.19746  22544527.658    22544534.316
       229.000         182.000
  20852216.535   -25121615.52449 -18947168.39048  20852216.201    20852221.808
       244.000         213.000
  22763630.266   -15361020.94949 -11946563.45246  22763629.657    22763636.318
       228.000         182.000
  21030244.643   -21923488.28049 -16802859.91347  21030243.815    21030249.858
       242.000         207.000
  20920370.506   -16909313.45149 -12886746.37947  20920370.779    20920376.453
       244.000         211.000
  24763433.195    -2712855.88349  -2104678.67945  24763432.842    24763437.909
       210.000         138.000
 00  2  4  2 54 30.0000000  0  8G24G26G 5G 6G17G10G30G13
  23567258.469    -6686631.32049  -4620329.45645  23567258.387    23567265.060
       218.000         162.000
  24331271.013    -3117566.72349  -2404972.96645  24331269.603    24331277.994
       214.000         141.000
  22563156.918   -16391116.59949 -12750625.11946  22563156.342    22563163.168
       229.000         182.000
  20843616.335   -25166809.93049 -18982384.77748  20843616.055    20843621.755
       244.000         213.000
  22751692.615   -15423753.39949 -11995445.83246  22751692.041    22751698.651
       228.000         182.000
  21038424.945   -21880500.35849 -16769362.80847  21038423.772    21038430.254
       243.000         207.000
  20929128.502   -16863289.80049 -12850883.80247  20929128.826    20929134.372
       244.000         211.000
  24761486.317    -2723086.44849  -2112650.49345  24761486.110    24761491.621
       208.000         138.000
 00  2  4  2 55  0.0000000  0  8G24G26G 5G 6G17G10G30G13
  23581599.083    -6611270.47049  -4561606.69845  23581599.109    23581605.634
       217.000         162.000
  24314942.418    -3203374.28449  -2471835.92845  24314940.987    24314949.296
       212.000         140.000
  22581825.457   -16293012.45349 -12674180.34146  22581824.898    22581831.241
       229.000         181.000
  20835056.768   -25211790.61849 -19017434.63948  20835056.501    20835062.002
       244.000         213.000
  22739792.633   -15486288.15349 -12044174.17446  22739791.990    22739798.430
       230.000         182.000
  21046703.098   -21836998.13149 -16735464.95247  21046702.271    21046708.506
       243.000         207.000
  20937981.108   -16816769.10249 -12814633.91647  20937981.217    20937987.062
       244.000         211.000
  24759618.920    -2732899.96249  -2120297.35145  24759618.223    24759625.601
       209.000         139.000
 00  2  4  2 55 30.0000000  0  8G24G26G 5G 6G17G10G30G13
  23595937.891    -6535919.28449  -4502891.47445  23595937.043    23595945.216
       215.000         161.000
  24298611.057    -3289195.53549  -2538709.54645  24298610.752    24298618.266
       212.000         139.000
  22600530.211   -16194718.34049 -12597587.53846  22600529.669    22600536.385
       228.000         181.000
  20826536.923   -25256562.42349 -19052321.72748  20826536.519    20826542.324
       244.000         213.000
  22727929.936   -15548626.95349 -12092749.81246  22727928.992    22727936.151
       230.000         182.000
  21055081.008   -21792972.01249 -16701158.86647  21055080.091    21055086.088
       243.000         207.000
  20946929.346   -16769745.88049 -12777992.44947  20946929.243    20946934.903
       244.000         211.000
  24757828.238    -2742310.92949  -2127630.51645  24757829.421    24757833.459
       211.000         138.000
 00  2  4  2 56  0.0000000  0  8G24G26G 5G 6G17G10G30G13
  23610276.043    -6460571.62249  -4444179.00345  23610275.846    23610282.527
       219.000         161.000
  24282276.558    -3375033.48349  -2605596.16445  24282276.590    24282284.757
       212.000         141.000
  22619269.674   -16096241.88949 -12520852.65446  22619269.036    22619276.210
       228.000         181.000
  20818059.546   -25301111.22849 -19087035.05048  20818059.198    20818064.640
       244.000         214.000
  22716104.299   -15610770.93749 -12141173.65246  22716103.049    22716110.142
       230.000         183.000
  21063559.770   -21748415.53849 -16666439.51547  21063558.822    21063564.954
       243.000         207.000
  20955977.793   -16722195.70849 -12740940.37147  20955977.998    20955983.747
       245.000         211.000
  24756118.749    -2751295.47549  -2134631.43445  24756118.386    24756123.989
       208.000         137.000
 00  2  4  2 56 30.0000000  0  8G24G26G 5G 6G17G10G30G13
  23624615.205    -6385219.49549  -4385463.04445  23624614.320    23624621.102
       217.000         160.000
  24265937.024    -3460898.03849  -2672503.49745  24265936.012    24265944.385
       210.000         141.000
  22638042.951   -15997587.67149 -12443979.25446  22638042.519    22638049.012
       227.000         180.000
  20809626.372   -25345427.73349 -19121567.36548  20809626.066    20809631.632
       244.000         214.000
  22704314.898   -15672724.45249 -12189449.07546  22704313.980    22704321.145
       230.000         183.000
  21072139.024   -21703331.30649 -16631308.92847  21072138.072    21072144.118
       243.000         207.000
  20965127.909   -16674111.57349 -12703472.22147  20965128.024    20965133.724
       245.000         210.000
  24754496.154    -2759820.47849  -2141274.24945  24754497.108    24754501.510
       207.000         138.000
 00  2  4  2 57  0.0000000  0  8G24G26G 5G 6G17G10G30G13
  23638954.475    -6309866.23449  -4326746.22045  23638953.933    23638960.403
       214.000         159.000
  24249592.654    -3546787.72149  -2739430.40345  24249592.886    24249599.767
       213.000         141.000
  22656848.826   -15898762.28849 -12366972.47846  22656848.350    22656855.675
       227.000         179.000
  20801240.155   -25389497.36549 -19155907.30748  20801239.761    20801245.420
       245.000         214.000
  22692562.074   -15734485.63149 -12237574.62146  22692561.037    22692567.970
       230.000         183.000
  21080821.470   -21657704.68149 -16595755.69447  21080820.692    21080826.863
       243.000         207.000
  20974383.371   -16625473.80049 -12665572.66247  20974383.636    20974389.287
       245.000         210.000
  24752964.286    -2767870.15749  -2147546.67645  24752964.060    24752970.348
       208.000         138.000
 00  2  4  2 57 30.0000000  0  8G24G26G 5G 6G17G10G30G13
  23653292.629    -6234518.18749  -4268033.44845  23653291.927    23653298.869
       216.000         159.000
  24233249.503    -3632671.48849  -2806352.72645  24233249.640    24233256.587
       211.000         142.000
  22675691.046   -15799745.80249 -12289816.78746  22675690.366    22675697.931
       227.000         179.000
  20792906.174   -25433292.41249 -19190033.28948  20792905.831    20792911.406
       244.000         214.000
  22680847.479   -15796045.87949 -12285543.60946  22680846.317    22680853.482
       230.000         183.000
  21089608.558   -21611528.46249 -16559774.21047  21089607.788    21089613.804
       242.000         207.000
  20983744.182   -16576282.67849 -12627241.92747  20983744.206    20983750.010
       245.000         210.000
  24751530.007    -2775407.25649  -2153419.70745  24751530.212    24751534.610
       207.000         138.000
 00  2  4  2 58  0.0000000  0  8G24G26G 5G 6G17G10G30G13
  23667628.176    -6159184.12749  -4209331.56945  23667627.912    23667633.455
       217.000         158.000
  24216911.459    -3718528.06149  -2873253.84045  24216911.551    24216918.341
       209.000         142.000
  22694572.591   -15700522.70849 -12212500.10846  22694571.565    22694578.871
       227.000         179.000
  20784626.842   -25476800.47749 -19223935.65748  20784626.642    20784631.950
       244.000         214.000
  22669174.133   -15857389.59849 -12333343.85846  22669173.328    22669180.157
       231.000         183.000
  21098496.642   -21564821.15849 -16523378.89047  21098495.615    21098501.877
       243.000         206.000
  20993207.238   -16526554.06449 -12588492.36347  20993207.335    20993213.040
       245.000         210.000
  24750197.734    -2782406.53249  -2158873.64945  24750198.174    24750202.355
       210.000         138.000
 00  2  4  2 58 30.0000000  0  8G24G26G 5G 6G17G10G30G13
  23681953.818    -6083902.60949  -4150670.64645  23681953.914    23681960.633
       216.000         158.000
  24200575.703    -3804372.58849  -2940145.56245  24200574.211    24200582.627
       209.000         142.000
  22713489.285   -15601115.01749 -12135039.57946  22713488.469    22713496.186
       227.000         179.000
  20776396.793   -25520049.63849 -19257636.27748  20776396.650    20776402.134
       244.000         214.000
  22657538.161   -15918537.08549 -12380991.20646  22657537.513    22657544.252
       231.000         184.000
  21107481.245   -21517606.70449 -16486588.39047  21107480.365    21107486.413
       243.000         206.000
  21002765.695   -16476323.92349 -12549351.99847  21002765.648    21002771.604
       245.000         210.000
  24748963.247    -2788896.12249  -2163930.43645  24748963.329    24748968.070
       209.000         138.000
 00  2  4  2 59  0.0000000  0  8G24G26G 5G 6G17G10G30G13
  23696266.499    -6008689.07149  -4092062.68245  23696266.426    23696273.009
       215.000         157.000
  24184243.085    -3890200.98049  -3007024.72445  24184242.867    24184249.822
       209.000         144.000
  22732439.971   -15501528.41649 -12057439.64146  22732439.699    22732446.478
       228.000         179.000
  20768214.983   -25563045.40749 -19291139.45148  20768214.714    20768220.326
       245.000         214.000
  22645938.608   -15979493.00649 -12428489.28146  22645937.434    22645944.854
       231.000         184.000
  21116562.554   -21469884.07649 -16449401.90847  21116561.589    21116567.685
       242.000         206.000
  21012414.191   -16425620.53849 -12509842.87247  21012414.378    21012420.171
       245.000         210.000
  24747822.191    -2794893.82449  -2168603.93245  24747820.910    24747827.336
       209.000         139.000
 00  2  4  2 59 30.0000000  0  8G24G26G 5G 6G17G10G30G13
  23710568.832    -5933529.54749  -4033496.81645  23710568.625    23710574.440
       216.000         156.000
  24167916.248    -3975998.38549  -3073879.74245  24167915.180    24167923.076
       207.000         144.000
  22751426.301   -15401754.67849 -11979693.88146  22751425.346    22751432.661
       227.000         179.000
  20760079.499   -25605797.50749 -19324452.75048  20760079.096    20760084.637
       244.000         214.000
  22634375.449   -16040257.66549 -12475838.32346  22634374.529    22634381.132
       231.000         184.000
  21125738.346   -21421665.09149 -16411828.65747  21125737.276    21125743.516
       243.000         206.000
  21022150.898   -16374453.88049 -12469972.75247  21022151.188    21022156.609
       244.000         210.000
  24746776.622    -2800388.40549  -2172885.38145  24746775.983    24746780.783
       209.000         138.000
 00  2  4  3  0  0.0000000  0  8G24G26G 5G 6G17G10G30G13
  23724862.457    -5858416.14249  -3974966.89445  23724862.489    23724868.223
       216.000         156.000
  24151593.365    -4061774.28749  -3140718.00845  24151592.740    24151599.936
       207.000         144.000
  22770447.582   -15301797.27249 -11901804.99646  22770447.117    22770454.625
       227.000         178.000
  20751986.827   -25648324.73749 -19357590.83148  20751986.589    20751992.063
       245.000         214.000
  22622848.145   -16100833.83749 -12523040.49746  22622847.449    22622854.770
       232.000         185.000
  21135007.763   -21372953.79549 -16373871.78747  21135007.099    21135012.974
       242.000         206.000
  21031979.339   -16322805.17649 -12429727.01447  21031979.494    21031985.184
       244.000         210.000
  24745823.504    -2805397.17149  -2176788.26945  24745823.993    24745828.485
       208.000         138.000
 00  2  4  3  0 30.0000000  0  8G24G26G 5G 6G17G10G30G13
  23739149.776    -5783335.53649  -3916462.51545  23739149.699    23739156.087
       215.000         155.000
  24135280.000    -4147501.76149  -3207518.54745  24135279.354    24135286.807
       209.000         145.000
  22789503.905   -15201655.66249 -11823772.58046  22789503.125    22789510.568
       226.000         178.000
  20743938.911   -25690616.68349 -19390545.57148  20743938.660    20743944.086
       245.000         214.000
  22611357.341   -16161218.58349 -12570093.50246  22611356.494    22611363.925
       231.000         185.000
  21144374.992   -21323728.56449 -16335514.44847  21144374.144    21144380.076
       243.000         206.000
  21041906.186   -16270639.44949 -12389078.39747  21041906.401    21041912.104
       245.000         210.000
  24744962.293    -2809921.92249  -2180314.01445  24744962.689    24744967.352
       209.000         138.000
 00  2  4  3  1  0.0000000  0  8G24G26G 5G 6G17G10G30G13
  23753432.533    -5708279.25149  -3857977.10445  23753431.542    23753439.141
       215.000         154.000
  24118977.165    -4233173.49149  -3274275.66645  24118976.730    24118984.190
       210.000         147.000
  22808596.369   -15101324.28449 -11745592.29546  22808596.367    22808602.483
       226.000         177.000
  20735938.201   -25732660.83749 -19423307.22248  20735937.919    20735943.504
       245.000         214.000
  22599904.362   -16221404.09549 -12616991.26046  22599903.133    22599910.051
       231.000         185.000
  21153839.360   -21273993.04649 -16296759.48047  21153838.412    21153844.329
       242.000         206.000
  21051933.924   -16217943.32649 -12348016.48647  21051934.159    21051939.676
       245.000         209.000
  24744192.805    -2813965.72849  -2183465.02145  24744193.571    24744197.671
       209.000         139.000
 00  2  4  3  1 30.0000000  0  8G24G26G 5G 6G17G10G30G13
  23767710.824    -5633246.30949  -3799509.86645  23767710.836    23767717.163
       213.000         154.000
  24102683.785    -4318795.42949  -3340993.96945  24102683.519    24102690.854
       208.000         148.000
  22827724.136   -15000807.60349 -11667267.62146  22827723.636    22827730.722
       225.000         176.000
  20727984.912   -25774455.55149 -19455874.51048  20727984.575    20727990.221
       245.000         215.000
  22588490.273   -16281385.41949 -12663729.91446  22588489.314    22588496.419
       231.000         185.000
  21163399.067   -21223756.19049 -16257613.86447  21163398.284    21163404.160
       242.000         205.000
  21062067.412   -16164691.39049 -12306521.47647  21062067.564    21062073.242
       244.000         209.000
  24743514.590    -2817530.08349  -2186242.38645  24743514.152    24743518.346
       211.000         139.000
 00  2  4  3  2  0.0000000  0  8G24G26G 5G 6G17G10G30G13
  23781984.402    -5558238.03549  -3741061.86645  23781983.595    23781990.784
       216.000         153.000
  24086399.906    -4404366.89349  -3407672.94845  24086399.333    24086406.273
       211.000         148.000
  22846886.681   -14900107.62449 -11588800.11046  22846885.740    22846893.114
       224.000         175.000
  20720082.872   -25815980.82749 -19488231.84848  20720082.735    20720088.255
       245.000         215.000
  22577116.154   -16341156.76849 -12710304.94446  22577115.368    22577122.183
       231.000         186.000
  21173057.839   -21172999.05149 -16218062.82947  21173056.938    21173062.795
       242.000         205.000
  21072308.504   -16110874.19449 -12264586.00547  21072308.624    21072314.236
       244.000         209.000
  24742926.015    -2820622.39349  -2188651.94645  24742928.087    24742931.396
       211.000         138.000
 00  2  4  3  2 30.0000000  0  8G24G26G 5G 6G17G10G30G13
  23796255.267    -5483244.63749  -3682625.44245  23796255.605    23796261.499
       215.000         154.000
  24070128.914    -4489871.27849  -3474299.65745  24070128.607    24070136.475
       209.000         147.000
  22866083.278   -14799228.75649 -11510193.20946  22866082.291    22866089.327
       224.000         175.000
  20712238.000   -25857205.85149 -19520355.22448  20712237.646    20712243.160
       245.000         215.000
  22565782.409   -16400715.91449 -12756714.62646  22565781.774    22565788.378
       231.000         186.000
  21182817.085   -21121713.72249 -16178100.21847  21182816.231    21182821.988
       242.000         205.000
  21082655.415   -16056500.84149 -12222217.16247  21082655.511    21082661.262
       244.000         209.000
  24742431.124    -2823222.99149  -2190678.35745  24742430.312    24742436.447
       208.000         138.000
 00  2  4  3  3  0.0000000  0  8G24G26G 5G 6G17G10G30G13
  23810525.908    -5408251.95949  -3624189.59245  23810526.026    23810531.189
       214.000         154.000
  24053868.577    -4575319.54649  -3540882.65345  24053869.093    24053875.868
       211.000         148.000
  22885315.759   -14698161.20549 -11431439.28146  22885315.356    22885322.186
       225.000         175.000
  20704450.094   -25898131.53649 -19552245.34848  20704449.728    20704455.254
       245.000         215.000
  22554488.678   -16460064.55949 -12802960.27946  22554487.873    22554494.681
       231.000         186.000
  21192677.750   -21069895.35649 -16137722.25347  21192676.855    21192682.913
       242.000         205.000
  21093104.428   -16001591.05649 -12179430.32147  21093104.568    21093110.139
       244.000         209.000
  24742030.421    -2825326.87449  -2192317.71945  24742029.999    24742036.365
       208.000         139.000
 00  2  4  3  3 30.0000000  0  8G24G26G 5G 6G17G10G30G13
  23824795.783    -5333262.84349  -3565756.51045  23824795.367    23824801.891
       216.000         153.000
  24037620.072    -4660705.64149  -3607417.20545  24037620.492    24037626.525
       211.000         150.000
  22904581.313   -14596919.93149 -11352549.97846  22904580.649    22904587.659
       223.000         175.000
  20696718.230   -25938762.60349 -19583905.89648  20696718.080    20696723.482
       245.000         215.000
  22543234.262   -16519206.45549 -12849044.82546  22543233.514    22543240.071
       232.000         186.000
  21202640.622   -21017540.03749 -16096925.88547  21202639.708    21202645.523
       242.000         205.000
  21103652.000   -15946163.23749 -12136239.81447  21103652.286    21103657.923
       244.000         209.000
  24741725.484    -2826928.67149  -2193565.83045  24741725.620    24741729.775
       210.000         139.000
 00  2  4  3  4  0.0000000  0  8G24G26G 5G 6G17G10G30G13
  23839064.893    -5258278.11249  -3507326.84245  23839064.379    23839071.236
       217.000         155.000
  24021384.263    -4746025.23449  -3673899.92545  24021383.402    24021391.364
       213.000         150.000
  22923878.556   -14495512.10249 -11273530.89846  22923877.960    22923885.179
       224.000         174.000
  20689042.491   -25979098.87149 -19615336.73448  20689042.134    20689047.592
       245.000         215.000
  22532018.451   -16578145.55249 -12894971.35146  22532018.009    22532024.384
       232.000         187.000
  21212705.917   -20964646.46649 -16055710.09947  21212705.120    21212710.950
       242.000         205.000
  21114294.278   -15890237.76249 -12092661.52547  21114294.438    21114299.967
       244.000         209.000
  24741517.101    -2828023.90549  -2194419.25145  24741518.073    24741522.159
       209.000         140.000
 00  2  4  3  4 30.0000000  0  9G23G24G26G 5G 6G17G10G30G13
  24589564.296    -1902197.09049  -1462899.01945  24589563.919    24589572.150
       199.000         144.000
  23853332.023    -5183304.14649  -3448905.56845  23853332.102    23853338.437
       217.000         155.000
  24005159.501    -4831286.40749  -3740337.11845  24005159.294    24005166.117
       212.000         151.000
  22943207.701   -14393937.04349 -11194381.51346  22943207.018    22943214.135
       223.000         174.000
  20681419.319   -26019158.71149 -19646552.17348  20681419.072    20681424.587
       245.000         215.000
  22520841.409   -16636881.21149 -12940739.35246  22520840.636    22520847.748
       233.000         187.000
  21222870.941   -20911228.89449 -16014086.00147  21222869.973    21222876.215
       242.000         205.000
  21125026.873   -15833837.46449 -12048713.24447  21125027.038    21125032.711
       244.000         208.000
  24741405.479    -2828611.01449  -2194876.67945  24741404.602    24741410.109
       210.000         140.000
 00  2  4  3  5  0.0000000  0  9G23G24G26G 5G 6G17G10G30G13
  24569424.990    -2008029.97249  -1545366.12545  24569424.222    24569432.813
       201.000         144.000
  23867593.773    -5108358.49449  -3390506.35745  23867593.949    23867600.336
       217.000         156.000
  23988942.709    -4916505.54249  -3806741.58445  23988942.800    23988949.449
       211.000         151.000
  22962566.350   -14292206.48349 -11115110.95846  22962565.427    22962572.952
       223.000         173.000
  20673844.534   -26058964.32549 -19677569.51348  20673844.215    20673849.706
       245.000         215.000
  22509703.847   -16695409.31349 -12986345.60846  22509703.047    22509709.685
       232.000         187.000
  21233135.188   -20857289.75949 -15972055.49047  21233134.297    21233140.372
       241.000         204.000
  21135847.699   -15776973.61649 -12004403.75547  21135847.897    21135853.567
       244.000         208.000
  24741386.001    -2828713.95949  -2194956.89945  24741386.105    24741389.067
       207.000         140.000
